<?xml version="1.0" encoding="UTF-8" standalone="no" ?>
<gpx xmlns="http://www.topografix.com/GPX/1/1" xmlns:xsi="http://www.w3.org/2001/XMLSchema-instance" xsi:schemaLocation="http://www.topografix.com/GPX/1/1 http://www.topografix.com/GPX/1/1/gpx.xsd" version="1.1" creator="VisuGPX - https://www.visugpx.com">
  <metadata>
    <name>2ColduChevalMort</name>
  </metadata>
  <wpt lat="44.59192" lon="3.90491">
    <ele>1020</ele>
    <name><![CDATA[217]]></name>
    <desc><![CDATA[La Bastide-Puylaurent]]></desc>
    <cmt><![CDATA[La Bastide-Puylaurent]]></cmt>
  </wpt>
  <wpt lat="44.56806" lon="3.75526">
    <ele>1171</ele>
    <name><![CDATA[220]]></name>
    <desc><![CDATA[Chazeaux]]></desc>
    <cmt><![CDATA[Chazeaux]]></cmt>
  </wpt>
  <wpt lat="44.58389" lon="3.64094">
    <ele>1200</ele>
    <name><![CDATA[221]]></name>
    <desc><![CDATA[Laubert]]></desc>
    <cmt><![CDATA[Laubert]]></cmt>
  </wpt>
  <wpt lat="44.5499" lon="3.82809">
    <ele>1160</ele>
    <name><![CDATA[Chasserades]]></name>
    <desc><![CDATA[D6 en Weg]]></desc>
    <cmt><![CDATA[D6 en Weg]]></cmt>
  </wpt>
  <wpt lat="44.59012" lon="3.6687">
    <ele>1237</ele>
    <name><![CDATA[Col de La P. Plantée]]></name>
    <desc><![CDATA[N88 en  D6]]></desc>
    <cmt><![CDATA[N88 en  D6]]></cmt>
  </wpt>
  <wpt lat="44.66796" lon="3.54296">
    <ele>1453</ele>
    <name><![CDATA[Col du cheval mort]]></name>
    <desc><![CDATA[D3 en Weg]]></desc>
    <cmt><![CDATA[D3 en Weg]]></cmt>
  </wpt>
  <wpt lat="44.72672" lon="3.8562">
    <ele>912</ele>
    <name><![CDATA[Langogne]]></name>
    <desc><![CDATA[Langogne]]></desc>
    <cmt><![CDATA[Langogne]]></cmt>
  </wpt>
  <wpt lat="44.11629" lon="3.08437">
    <ele>370</ele>
    <name><![CDATA[Lilliau]]></name>
    <desc><![CDATA[Boulevard Du Puech D'Andan en Giratoire de Bellugues]]></desc>
    <cmt><![CDATA[Boulevard Du Puech D'Andan en Giratoire de Bellugues]]></cmt>
  </wpt>
  <trk>
    <name><![CDATA[2ColduChevalMort]]></name>
    <trkseg>
      <trkpt lat="44.7341" lon="3.83526">
        <ele>949</ele>
        <time>2010-01-01T00:00:00Z</time>
      </trkpt>
      <trkpt lat="44.7344" lon="3.83513">
        <ele>948</ele>
        <time>2010-01-01T00:00:05Z</time>
      </trkpt>
      <trkpt lat="44.73487" lon="3.83509">
        <ele>947</ele>
        <time>2010-01-01T00:00:12Z</time>
      </trkpt>
      <trkpt lat="44.7353" lon="3.83483">
        <ele>947</ele>
        <time>2010-01-01T00:00:20Z</time>
      </trkpt>
      <trkpt lat="44.73568" lon="3.83474">
        <ele>949</ele>
        <time>2010-01-01T00:00:26Z</time>
      </trkpt>
      <trkpt lat="44.73607" lon="3.83474">
        <ele>951</ele>
        <time>2010-01-01T00:00:32Z</time>
      </trkpt>
      <trkpt lat="44.73684" lon="3.83526">
        <ele>959</ele>
        <time>2010-01-01T00:00:46Z</time>
      </trkpt>
      <trkpt lat="44.73732" lon="3.83487">
        <ele>958</ele>
        <time>2010-01-01T00:00:54Z</time>
      </trkpt>
      <trkpt lat="44.73774" lon="3.8347">
        <ele>957</ele>
        <time>2010-01-01T00:01:02Z</time>
      </trkpt>
      <trkpt lat="44.73792" lon="3.8347">
        <ele>957</ele>
        <time>2010-01-01T00:01:04Z</time>
      </trkpt>
      <trkpt lat="44.73813" lon="3.83492">
        <ele>958</ele>
        <time>2010-01-01T00:01:09Z</time>
      </trkpt>
      <trkpt lat="44.73753" lon="3.83586">
        <ele>967</ele>
        <time>2010-01-01T00:01:23Z</time>
      </trkpt>
      <trkpt lat="44.73689" lon="3.83663">
        <ele>972</ele>
        <time>2010-01-01T00:01:37Z</time>
      </trkpt>
      <trkpt lat="44.7362" lon="3.8374">
        <ele>972</ele>
        <time>2010-01-01T00:01:51Z</time>
      </trkpt>
      <trkpt lat="44.73474" lon="3.83891">
        <ele>982</ele>
        <time>2010-01-01T00:02:20Z</time>
      </trkpt>
      <trkpt lat="44.73423" lon="3.83929">
        <ele>987</ele>
        <time>2010-01-01T00:02:29Z</time>
      </trkpt>
      <trkpt lat="44.73242" lon="3.84007">
        <ele>994</ele>
        <time>2010-01-01T00:02:59Z</time>
      </trkpt>
      <trkpt lat="44.73242" lon="3.84024">
        <ele>995</ele>
        <time>2010-01-01T00:03:01Z</time>
      </trkpt>
      <trkpt lat="44.73238" lon="3.84037">
        <ele>996</ele>
        <time>2010-01-01T00:03:03Z</time>
      </trkpt>
      <trkpt lat="44.73195" lon="3.84092">
        <ele>995</ele>
        <time>2010-01-01T00:03:12Z</time>
      </trkpt>
      <trkpt lat="44.73126" lon="3.84234">
        <ele>994</ele>
        <time>2010-01-01T00:03:31Z</time>
      </trkpt>
      <trkpt lat="44.73028" lon="3.84496">
        <ele>993</ele>
        <time>2010-01-01T00:04:05Z</time>
      </trkpt>
      <trkpt lat="44.73006" lon="3.84573">
        <ele>992</ele>
        <time>2010-01-01T00:04:15Z</time>
      </trkpt>
      <trkpt lat="44.72998" lon="3.84633">
        <ele>991</ele>
        <time>2010-01-01T00:04:22Z</time>
      </trkpt>
      <trkpt lat="44.73006" lon="3.8468">
        <ele>989</ele>
        <time>2010-01-01T00:04:27Z</time>
      </trkpt>
      <trkpt lat="44.73002" lon="3.84715">
        <ele>986</ele>
        <time>2010-01-01T00:04:31Z</time>
      </trkpt>
      <trkpt lat="44.72989" lon="3.84805">
        <ele>977</ele>
        <time>2010-01-01T00:04:42Z</time>
      </trkpt>
      <trkpt lat="44.72972" lon="3.84878">
        <ele>970</ele>
        <time>2010-01-01T00:04:50Z</time>
      </trkpt>
      <trkpt lat="44.72959" lon="3.84946">
        <ele>967</ele>
        <time>2010-01-01T00:04:58Z</time>
      </trkpt>
      <trkpt lat="44.7295" lon="3.84998">
        <ele>966</ele>
        <time>2010-01-01T00:05:04Z</time>
      </trkpt>
      <trkpt lat="44.72933" lon="3.85092">
        <ele>966</ele>
        <time>2010-01-01T00:05:15Z</time>
      </trkpt>
      <trkpt lat="44.72899" lon="3.852">
        <ele>957</ele>
        <time>2010-01-01T00:05:29Z</time>
      </trkpt>
      <trkpt lat="44.7289" lon="3.85247">
        <ele>952</ele>
        <time>2010-01-01T00:05:34Z</time>
      </trkpt>
      <trkpt lat="44.72878" lon="3.8529">
        <ele>948</ele>
        <time>2010-01-01T00:05:40Z</time>
      </trkpt>
      <trkpt lat="44.7286" lon="3.85324">
        <ele>945</ele>
        <time>2010-01-01T00:05:44Z</time>
      </trkpt>
      <trkpt lat="44.72843" lon="3.8535">
        <ele>942</ele>
        <time>2010-01-01T00:05:49Z</time>
      </trkpt>
      <trkpt lat="44.72813" lon="3.8538">
        <ele>937</ele>
        <time>2010-01-01T00:05:54Z</time>
      </trkpt>
      <trkpt lat="44.72779" lon="3.85414">
        <ele>931</ele>
        <time>2010-01-01T00:06:01Z</time>
      </trkpt>
      <trkpt lat="44.72766" lon="3.85436">
        <ele>928</ele>
        <time>2010-01-01T00:06:04Z</time>
      </trkpt>
      <trkpt lat="44.72753" lon="3.85448">
        <ele>925</ele>
        <time>2010-01-01T00:06:07Z</time>
      </trkpt>
      <trkpt lat="44.72752" lon="3.85454">
        <ele>925</ele>
        <time>2010-01-01T00:06:08Z</time>
      </trkpt>
      <trkpt lat="44.72736" lon="3.85517">
        <ele>918</ele>
        <time>2010-01-01T00:06:15Z</time>
      </trkpt>
      <trkpt lat="44.72719" lon="3.85526">
        <ele>917</ele>
        <time>2010-01-01T00:06:18Z</time>
      </trkpt>
      <trkpt lat="44.72706" lon="3.85509">
        <ele>918</ele>
        <time>2010-01-01T00:06:21Z</time>
      </trkpt>
      <trkpt lat="44.72697" lon="3.85519">
        <ele>917</ele>
        <time>2010-01-01T00:06:23Z</time>
      </trkpt>
      <trkpt lat="44.72684" lon="3.85534">
        <ele>916</ele>
        <time>2010-01-01T00:06:25Z</time>
      </trkpt>
      <trkpt lat="44.72663" lon="3.85556">
        <ele>915</ele>
        <time>2010-01-01T00:06:30Z</time>
      </trkpt>
      <trkpt lat="44.7265" lon="3.85569">
        <ele>913</ele>
        <time>2010-01-01T00:06:32Z</time>
      </trkpt>
      <trkpt lat="44.72641" lon="3.85547">
        <ele>914</ele>
        <time>2010-01-01T00:06:35Z</time>
      </trkpt>
      <trkpt lat="44.72624" lon="3.8556">
        <ele>913</ele>
        <time>2010-01-01T00:06:38Z</time>
      </trkpt>
      <trkpt lat="44.72611" lon="3.85517">
        <ele>915</ele>
        <time>2010-01-01T00:06:43Z</time>
      </trkpt>
      <trkpt lat="44.72594" lon="3.85487">
        <ele>916</ele>
        <time>2010-01-01T00:06:48Z</time>
      </trkpt>
      <trkpt lat="44.72573" lon="3.85461">
        <ele>917</ele>
        <time>2010-01-01T00:06:52Z</time>
      </trkpt>
      <trkpt lat="44.72526" lon="3.85525">
        <ele>912</ele>
        <time>2010-01-01T00:07:03Z</time>
      </trkpt>
      <trkpt lat="44.72513" lon="3.85543">
        <ele>911</ele>
        <time>2010-01-01T00:07:06Z</time>
      </trkpt>
      <trkpt lat="44.72478" lon="3.85586">
        <ele>911</ele>
        <time>2010-01-01T00:07:13Z</time>
      </trkpt>
      <trkpt lat="44.72427" lon="3.85603">
        <ele>917</ele>
        <time>2010-01-01T00:07:21Z</time>
      </trkpt>
      <trkpt lat="44.72332" lon="3.8562">
        <ele>924</ele>
        <time>2010-01-01T00:07:37Z</time>
      </trkpt>
      <trkpt lat="44.72298" lon="3.85629">
        <ele>927</ele>
        <time>2010-01-01T00:07:42Z</time>
      </trkpt>
      <trkpt lat="44.7226" lon="3.85642">
        <ele>929</ele>
        <time>2010-01-01T00:07:49Z</time>
      </trkpt>
      <trkpt lat="44.72234" lon="3.85663">
        <ele>931</ele>
        <time>2010-01-01T00:07:53Z</time>
      </trkpt>
      <trkpt lat="44.72174" lon="3.85727">
        <ele>934</ele>
        <time>2010-01-01T00:08:06Z</time>
      </trkpt>
      <trkpt lat="44.72161" lon="3.85749">
        <ele>934</ele>
        <time>2010-01-01T00:08:09Z</time>
      </trkpt>
      <trkpt lat="44.72084" lon="3.85835">
        <ele>939</ele>
        <time>2010-01-01T00:08:24Z</time>
      </trkpt>
      <trkpt lat="44.72075" lon="3.85843">
        <ele>940</ele>
        <time>2010-01-01T00:08:26Z</time>
      </trkpt>
      <trkpt lat="44.72024" lon="3.85903">
        <ele>945</ele>
        <time>2010-01-01T00:08:37Z</time>
      </trkpt>
      <trkpt lat="44.72002" lon="3.85929">
        <ele>945</ele>
        <time>2010-01-01T00:08:41Z</time>
      </trkpt>
      <trkpt lat="44.71989" lon="3.85942">
        <ele>945</ele>
        <time>2010-01-01T00:08:44Z</time>
      </trkpt>
      <trkpt lat="44.71946" lon="3.85985">
        <ele>945</ele>
        <time>2010-01-01T00:08:52Z</time>
      </trkpt>
      <trkpt lat="44.71912" lon="3.86002">
        <ele>944</ele>
        <time>2010-01-01T00:08:58Z</time>
      </trkpt>
      <trkpt lat="44.71839" lon="3.85993">
        <ele>946</ele>
        <time>2010-01-01T00:09:10Z</time>
      </trkpt>
      <trkpt lat="44.71822" lon="3.85998">
        <ele>947</ele>
        <time>2010-01-01T00:09:13Z</time>
      </trkpt>
      <trkpt lat="44.71796" lon="3.86024">
        <ele>946</ele>
        <time>2010-01-01T00:09:18Z</time>
      </trkpt>
      <trkpt lat="44.71749" lon="3.86092">
        <ele>944</ele>
        <time>2010-01-01T00:09:29Z</time>
      </trkpt>
      <trkpt lat="44.7165" lon="3.86152">
        <ele>943</ele>
        <time>2010-01-01T00:09:46Z</time>
      </trkpt>
      <trkpt lat="44.71599" lon="3.86174">
        <ele>940</ele>
        <time>2010-01-01T00:09:54Z</time>
      </trkpt>
      <trkpt lat="44.71556" lon="3.86161">
        <ele>941</ele>
        <time>2010-01-01T00:10:01Z</time>
      </trkpt>
      <trkpt lat="44.71509" lon="3.86131">
        <ele>942</ele>
        <time>2010-01-01T00:10:10Z</time>
      </trkpt>
      <trkpt lat="44.71375" lon="3.86011">
        <ele>945</ele>
        <time>2010-01-01T00:10:35Z</time>
      </trkpt>
      <trkpt lat="44.71328" lon="3.85985">
        <ele>946</ele>
        <time>2010-01-01T00:10:43Z</time>
      </trkpt>
      <trkpt lat="44.71277" lon="3.85981">
        <ele>946</ele>
        <time>2010-01-01T00:10:51Z</time>
      </trkpt>
      <trkpt lat="44.71242" lon="3.85985">
        <ele>945</ele>
        <time>2010-01-01T00:10:57Z</time>
      </trkpt>
      <trkpt lat="44.71114" lon="3.86028">
        <ele>945</ele>
        <time>2010-01-01T00:11:18Z</time>
      </trkpt>
      <trkpt lat="44.71054" lon="3.86054">
        <ele>948</ele>
        <time>2010-01-01T00:11:28Z</time>
      </trkpt>
      <trkpt lat="44.71015" lon="3.86096">
        <ele>951</ele>
        <time>2010-01-01T00:11:36Z</time>
      </trkpt>
      <trkpt lat="44.70908" lon="3.86311">
        <ele>944</ele>
        <time>2010-01-01T00:12:06Z</time>
      </trkpt>
      <trkpt lat="44.70891" lon="3.8635">
        <ele>942</ele>
        <time>2010-01-01T00:12:11Z</time>
      </trkpt>
      <trkpt lat="44.70878" lon="3.8641">
        <ele>941</ele>
        <time>2010-01-01T00:12:18Z</time>
      </trkpt>
      <trkpt lat="44.70869" lon="3.86466">
        <ele>946</ele>
        <time>2010-01-01T00:12:25Z</time>
      </trkpt>
      <trkpt lat="44.70848" lon="3.86586">
        <ele>951</ele>
        <time>2010-01-01T00:12:39Z</time>
      </trkpt>
      <trkpt lat="44.7083" lon="3.86642">
        <ele>948</ele>
        <time>2010-01-01T00:12:46Z</time>
      </trkpt>
      <trkpt lat="44.70796" lon="3.86723">
        <ele>945</ele>
        <time>2010-01-01T00:12:57Z</time>
      </trkpt>
      <trkpt lat="44.70693" lon="3.86925">
        <ele>952</ele>
        <time>2010-01-01T00:13:25Z</time>
      </trkpt>
      <trkpt lat="44.70659" lon="3.86972">
        <ele>949</ele>
        <time>2010-01-01T00:13:33Z</time>
      </trkpt>
      <trkpt lat="44.70616" lon="3.86998">
        <ele>945</ele>
        <time>2010-01-01T00:13:40Z</time>
      </trkpt>
      <trkpt lat="44.70582" lon="3.86993">
        <ele>944</ele>
        <time>2010-01-01T00:13:46Z</time>
      </trkpt>
      <trkpt lat="44.70547" lon="3.86959">
        <ele>941</ele>
        <time>2010-01-01T00:13:52Z</time>
      </trkpt>
      <trkpt lat="44.70504" lon="3.86882">
        <ele>941</ele>
        <time>2010-01-01T00:14:03Z</time>
      </trkpt>
      <trkpt lat="44.7047" lon="3.86792">
        <ele>945</ele>
        <time>2010-01-01T00:14:15Z</time>
      </trkpt>
      <trkpt lat="44.70431" lon="3.86723">
        <ele>943</ele>
        <time>2010-01-01T00:14:25Z</time>
      </trkpt>
      <trkpt lat="44.7038" lon="3.86654">
        <ele>948</ele>
        <time>2010-01-01T00:14:36Z</time>
      </trkpt>
      <trkpt lat="44.70324" lon="3.86611">
        <ele>951</ele>
        <time>2010-01-01T00:14:47Z</time>
      </trkpt>
      <trkpt lat="44.70255" lon="3.86594">
        <ele>957</ele>
        <time>2010-01-01T00:14:58Z</time>
      </trkpt>
      <trkpt lat="44.70135" lon="3.86633">
        <ele>952</ele>
        <time>2010-01-01T00:15:17Z</time>
      </trkpt>
      <trkpt lat="44.70092" lon="3.86663">
        <ele>950</ele>
        <time>2010-01-01T00:15:25Z</time>
      </trkpt>
      <trkpt lat="44.70041" lon="3.8674">
        <ele>950</ele>
        <time>2010-01-01T00:15:37Z</time>
      </trkpt>
      <trkpt lat="44.70002" lon="3.86792">
        <ele>949</ele>
        <time>2010-01-01T00:15:46Z</time>
      </trkpt>
      <trkpt lat="44.69968" lon="3.86813">
        <ele>947</ele>
        <time>2010-01-01T00:15:52Z</time>
      </trkpt>
      <trkpt lat="44.69925" lon="3.86817">
        <ele>948</ele>
        <time>2010-01-01T00:15:59Z</time>
      </trkpt>
      <trkpt lat="44.69873" lon="3.86796">
        <ele>951</ele>
        <time>2010-01-01T00:16:07Z</time>
      </trkpt>
      <trkpt lat="44.69702" lon="3.86727">
        <ele>957</ele>
        <time>2010-01-01T00:16:36Z</time>
      </trkpt>
      <trkpt lat="44.69667" lon="3.86719">
        <ele>956</ele>
        <time>2010-01-01T00:16:41Z</time>
      </trkpt>
      <trkpt lat="44.69629" lon="3.86723">
        <ele>956</ele>
        <time>2010-01-01T00:16:48Z</time>
      </trkpt>
      <trkpt lat="44.69603" lon="3.86749">
        <ele>954</ele>
        <time>2010-01-01T00:16:53Z</time>
      </trkpt>
      <trkpt lat="44.69582" lon="3.86796">
        <ele>954</ele>
        <time>2010-01-01T00:16:59Z</time>
      </trkpt>
      <trkpt lat="44.6956" lon="3.86916">
        <ele>949</ele>
        <time>2010-01-01T00:17:13Z</time>
      </trkpt>
      <trkpt lat="44.69522" lon="3.87023">
        <ele>946</ele>
        <time>2010-01-01T00:17:27Z</time>
      </trkpt>
      <trkpt lat="44.69513" lon="3.87049">
        <ele>948</ele>
        <time>2010-01-01T00:17:30Z</time>
      </trkpt>
      <trkpt lat="44.69513" lon="3.87105">
        <ele>948</ele>
        <time>2010-01-01T00:17:36Z</time>
      </trkpt>
      <trkpt lat="44.69522" lon="3.87161">
        <ele>949</ele>
        <time>2010-01-01T00:17:43Z</time>
      </trkpt>
      <trkpt lat="44.69569" lon="3.87281">
        <ele>947</ele>
        <time>2010-01-01T00:17:59Z</time>
      </trkpt>
      <trkpt lat="44.69582" lon="3.87337">
        <ele>945</ele>
        <time>2010-01-01T00:18:05Z</time>
      </trkpt>
      <trkpt lat="44.69582" lon="3.8741">
        <ele>947</ele>
        <time>2010-01-01T00:18:14Z</time>
      </trkpt>
      <trkpt lat="44.69573" lon="3.87538">
        <ele>947</ele>
        <time>2010-01-01T00:18:28Z</time>
      </trkpt>
      <trkpt lat="44.69556" lon="3.8768">
        <ele>950</ele>
        <time>2010-01-01T00:18:45Z</time>
      </trkpt>
      <trkpt lat="44.69556" lon="3.87719">
        <ele>951</ele>
        <time>2010-01-01T00:18:49Z</time>
      </trkpt>
      <trkpt lat="44.6956" lon="3.87774">
        <ele>952</ele>
        <time>2010-01-01T00:18:55Z</time>
      </trkpt>
      <trkpt lat="44.69582" lon="3.87843">
        <ele>949</ele>
        <time>2010-01-01T00:19:04Z</time>
      </trkpt>
      <trkpt lat="44.69616" lon="3.8792">
        <ele>948</ele>
        <time>2010-01-01T00:19:14Z</time>
      </trkpt>
      <trkpt lat="44.69642" lon="3.87993">
        <ele>949</ele>
        <time>2010-01-01T00:19:24Z</time>
      </trkpt>
      <trkpt lat="44.69689" lon="3.88169">
        <ele>951</ele>
        <time>2010-01-01T00:19:45Z</time>
      </trkpt>
      <trkpt lat="44.69702" lon="3.88242">
        <ele>950</ele>
        <time>2010-01-01T00:19:53Z</time>
      </trkpt>
      <trkpt lat="44.69697" lon="3.88272">
        <ele>949</ele>
        <time>2010-01-01T00:19:57Z</time>
      </trkpt>
      <trkpt lat="44.69685" lon="3.88319">
        <ele>948</ele>
        <time>2010-01-01T00:20:03Z</time>
      </trkpt>
      <trkpt lat="44.69672" lon="3.88341">
        <ele>948</ele>
        <time>2010-01-01T00:20:06Z</time>
      </trkpt>
      <trkpt lat="44.69642" lon="3.88371">
        <ele>946</ele>
        <time>2010-01-01T00:20:12Z</time>
      </trkpt>
      <trkpt lat="44.69625" lon="3.88384">
        <ele>945</ele>
        <time>2010-01-01T00:20:15Z</time>
      </trkpt>
      <trkpt lat="44.6959" lon="3.88388">
        <ele>947</ele>
        <time>2010-01-01T00:20:20Z</time>
      </trkpt>
      <trkpt lat="44.6953" lon="3.88384">
        <ele>946</ele>
        <time>2010-01-01T00:20:30Z</time>
      </trkpt>
      <trkpt lat="44.69496" lon="3.88371">
        <ele>947</ele>
        <time>2010-01-01T00:20:36Z</time>
      </trkpt>
      <trkpt lat="44.6947" lon="3.8835">
        <ele>949</ele>
        <time>2010-01-01T00:20:41Z</time>
      </trkpt>
      <trkpt lat="44.69401" lon="3.88255">
        <ele>954</ele>
        <time>2010-01-01T00:20:56Z</time>
      </trkpt>
      <trkpt lat="44.69384" lon="3.88242">
        <ele>954</ele>
        <time>2010-01-01T00:20:59Z</time>
      </trkpt>
      <trkpt lat="44.69285" lon="3.88195">
        <ele>950</ele>
        <time>2010-01-01T00:21:16Z</time>
      </trkpt>
      <trkpt lat="44.69238" lon="3.88161">
        <ele>948</ele>
        <time>2010-01-01T00:21:24Z</time>
      </trkpt>
      <trkpt lat="44.69195" lon="3.88113">
        <ele>949</ele>
        <time>2010-01-01T00:21:33Z</time>
      </trkpt>
      <trkpt lat="44.69118" lon="3.88015">
        <ele>947</ele>
        <time>2010-01-01T00:21:50Z</time>
      </trkpt>
      <trkpt lat="44.69088" lon="3.8795">
        <ele>947</ele>
        <time>2010-01-01T00:21:58Z</time>
      </trkpt>
      <trkpt lat="44.69054" lon="3.87809">
        <ele>946</ele>
        <time>2010-01-01T00:22:16Z</time>
      </trkpt>
      <trkpt lat="44.69032" lon="3.87757">
        <ele>944</ele>
        <time>2010-01-01T00:22:22Z</time>
      </trkpt>
      <trkpt lat="44.68985" lon="3.87671">
        <ele>945</ele>
        <time>2010-01-01T00:22:35Z</time>
      </trkpt>
      <trkpt lat="44.68942" lon="3.8762">
        <ele>946</ele>
        <time>2010-01-01T00:22:44Z</time>
      </trkpt>
      <trkpt lat="44.68848" lon="3.8756">
        <ele>945</ele>
        <time>2010-01-01T00:23:00Z</time>
      </trkpt>
      <trkpt lat="44.68745" lon="3.87496">
        <ele>947</ele>
        <time>2010-01-01T00:23:18Z</time>
      </trkpt>
      <trkpt lat="44.68693" lon="3.87487">
        <ele>947</ele>
        <time>2010-01-01T00:23:27Z</time>
      </trkpt>
      <trkpt lat="44.68649" lon="3.87485">
        <ele>947</ele>
        <time>2010-01-01T00:23:34Z</time>
      </trkpt>
      <trkpt lat="44.68573" lon="3.87483">
        <ele>947</ele>
        <time>2010-01-01T00:23:46Z</time>
      </trkpt>
      <trkpt lat="44.68526" lon="3.87465">
        <ele>946</ele>
        <time>2010-01-01T00:23:54Z</time>
      </trkpt>
      <trkpt lat="44.68462" lon="3.87414">
        <ele>946</ele>
        <time>2010-01-01T00:24:06Z</time>
      </trkpt>
      <trkpt lat="44.68406" lon="3.87337">
        <ele>946</ele>
        <time>2010-01-01T00:24:18Z</time>
      </trkpt>
      <trkpt lat="44.68316" lon="3.87259">
        <ele>949</ele>
        <time>2010-01-01T00:24:35Z</time>
      </trkpt>
      <trkpt lat="44.6823" lon="3.87191">
        <ele>950</ele>
        <time>2010-01-01T00:24:51Z</time>
      </trkpt>
      <trkpt lat="44.68187" lon="3.87161">
        <ele>952</ele>
        <time>2010-01-01T00:24:58Z</time>
      </trkpt>
      <trkpt lat="44.68131" lon="3.87152">
        <ele>949</ele>
        <time>2010-01-01T00:25:07Z</time>
      </trkpt>
      <trkpt lat="44.68075" lon="3.87118">
        <ele>952</ele>
        <time>2010-01-01T00:25:17Z</time>
      </trkpt>
      <trkpt lat="44.68041" lon="3.87088">
        <ele>951</ele>
        <time>2010-01-01T00:25:24Z</time>
      </trkpt>
      <trkpt lat="44.67964" lon="3.86976">
        <ele>955</ele>
        <time>2010-01-01T00:25:41Z</time>
      </trkpt>
      <trkpt lat="44.67899" lon="3.8692">
        <ele>951</ele>
        <time>2010-01-01T00:25:54Z</time>
      </trkpt>
      <trkpt lat="44.67852" lon="3.86886">
        <ele>951</ele>
        <time>2010-01-01T00:26:02Z</time>
      </trkpt>
      <trkpt lat="44.67822" lon="3.86869">
        <ele>954</ele>
        <time>2010-01-01T00:26:07Z</time>
      </trkpt>
      <trkpt lat="44.67779" lon="3.86882">
        <ele>957</ele>
        <time>2010-01-01T00:26:14Z</time>
      </trkpt>
      <trkpt lat="44.67745" lon="3.86899">
        <ele>956</ele>
        <time>2010-01-01T00:26:20Z</time>
      </trkpt>
      <trkpt lat="44.67672" lon="3.86963">
        <ele>952</ele>
        <time>2010-01-01T00:26:34Z</time>
      </trkpt>
      <trkpt lat="44.67646" lon="3.86976">
        <ele>950</ele>
        <time>2010-01-01T00:26:38Z</time>
      </trkpt>
      <trkpt lat="44.67586" lon="3.86985">
        <ele>951</ele>
        <time>2010-01-01T00:26:48Z</time>
      </trkpt>
      <trkpt lat="44.67552" lon="3.87006">
        <ele>951</ele>
        <time>2010-01-01T00:26:54Z</time>
      </trkpt>
      <trkpt lat="44.67522" lon="3.87049">
        <ele>952</ele>
        <time>2010-01-01T00:27:01Z</time>
      </trkpt>
      <trkpt lat="44.67483" lon="3.87131">
        <ele>956</ele>
        <time>2010-01-01T00:27:12Z</time>
      </trkpt>
      <trkpt lat="44.67436" lon="3.87238">
        <ele>961</ele>
        <time>2010-01-01T00:27:26Z</time>
      </trkpt>
      <trkpt lat="44.67414" lon="3.87302">
        <ele>962</ele>
        <time>2010-01-01T00:27:34Z</time>
      </trkpt>
      <trkpt lat="44.67402" lon="3.87384">
        <ele>962</ele>
        <time>2010-01-01T00:27:44Z</time>
      </trkpt>
      <trkpt lat="44.67389" lon="3.875">
        <ele>961</ele>
        <time>2010-01-01T00:27:57Z</time>
      </trkpt>
      <trkpt lat="44.67376" lon="3.87551">
        <ele>960</ele>
        <time>2010-01-01T00:28:03Z</time>
      </trkpt>
      <trkpt lat="44.67341" lon="3.8762">
        <ele>960</ele>
        <time>2010-01-01T00:28:13Z</time>
      </trkpt>
      <trkpt lat="44.67316" lon="3.87646">
        <ele>962</ele>
        <time>2010-01-01T00:28:18Z</time>
      </trkpt>
      <trkpt lat="44.67277" lon="3.87671">
        <ele>965</ele>
        <time>2010-01-01T00:28:25Z</time>
      </trkpt>
      <trkpt lat="44.67213" lon="3.87719">
        <ele>967</ele>
        <time>2010-01-01T00:28:37Z</time>
      </trkpt>
      <trkpt lat="44.67165" lon="3.87736">
        <ele>969</ele>
        <time>2010-01-01T00:28:44Z</time>
      </trkpt>
      <trkpt lat="44.67097" lon="3.87732">
        <ele>972</ele>
        <time>2010-01-01T00:28:55Z</time>
      </trkpt>
      <trkpt lat="44.67011" lon="3.87697">
        <ele>979</ele>
        <time>2010-01-01T00:29:10Z</time>
      </trkpt>
      <trkpt lat="44.66977" lon="3.87697">
        <ele>978</ele>
        <time>2010-01-01T00:29:15Z</time>
      </trkpt>
      <trkpt lat="44.66869" lon="3.8771">
        <ele>977</ele>
        <time>2010-01-01T00:29:32Z</time>
      </trkpt>
      <trkpt lat="44.66814" lon="3.87723">
        <ele>978</ele>
        <time>2010-01-01T00:29:41Z</time>
      </trkpt>
      <trkpt lat="44.66762" lon="3.87749">
        <ele>975</ele>
        <time>2010-01-01T00:29:50Z</time>
      </trkpt>
      <trkpt lat="44.66702" lon="3.87796">
        <ele>974</ele>
        <time>2010-01-01T00:30:01Z</time>
      </trkpt>
      <trkpt lat="44.66698" lon="3.878">
        <ele>974</ele>
        <time>2010-01-01T00:30:02Z</time>
      </trkpt>
      <trkpt lat="44.66681" lon="3.87817">
        <ele>972</ele>
        <time>2010-01-01T00:30:05Z</time>
      </trkpt>
      <trkpt lat="44.6662" lon="3.87873">
        <ele>972</ele>
        <time>2010-01-01T00:30:17Z</time>
      </trkpt>
      <trkpt lat="44.6661" lon="3.87895">
        <ele>971</ele>
        <time>2010-01-01T00:30:20Z</time>
      </trkpt>
      <trkpt lat="44.66608" lon="3.87899">
        <ele>971</ele>
        <time>2010-01-01T00:30:21Z</time>
      </trkpt>
      <trkpt lat="44.66578" lon="3.8798">
        <ele>968</ele>
        <time>2010-01-01T00:30:31Z</time>
      </trkpt>
      <trkpt lat="44.66543" lon="3.88071">
        <ele>965</ele>
        <time>2010-01-01T00:30:43Z</time>
      </trkpt>
      <trkpt lat="44.66517" lon="3.88092">
        <ele>966</ele>
        <time>2010-01-01T00:30:47Z</time>
      </trkpt>
      <trkpt lat="44.6641" lon="3.88148">
        <ele>972</ele>
        <time>2010-01-01T00:31:06Z</time>
      </trkpt>
      <trkpt lat="44.66341" lon="3.88174">
        <ele>972</ele>
        <time>2010-01-01T00:31:17Z</time>
      </trkpt>
      <trkpt lat="44.66251" lon="3.88182">
        <ele>981</ele>
        <time>2010-01-01T00:31:32Z</time>
      </trkpt>
      <trkpt lat="44.66204" lon="3.88186">
        <ele>981</ele>
        <time>2010-01-01T00:31:39Z</time>
      </trkpt>
      <trkpt lat="44.65835" lon="3.88182">
        <ele>981</ele>
        <time>2010-01-01T00:32:38Z</time>
      </trkpt>
      <trkpt lat="44.65788" lon="3.88186">
        <ele>984</ele>
        <time>2010-01-01T00:32:46Z</time>
      </trkpt>
      <trkpt lat="44.65728" lon="3.88212">
        <ele>983</ele>
        <time>2010-01-01T00:32:56Z</time>
      </trkpt>
      <trkpt lat="44.65693" lon="3.88238">
        <ele>983</ele>
        <time>2010-01-01T00:33:02Z</time>
      </trkpt>
      <trkpt lat="44.65569" lon="3.88401">
        <ele>977</ele>
        <time>2010-01-01T00:33:29Z</time>
      </trkpt>
      <trkpt lat="44.65548" lon="3.88435">
        <ele>979</ele>
        <time>2010-01-01T00:33:35Z</time>
      </trkpt>
      <trkpt lat="44.65535" lon="3.88483">
        <ele>982</ele>
        <time>2010-01-01T00:33:40Z</time>
      </trkpt>
      <trkpt lat="44.65526" lon="3.88534">
        <ele>982</ele>
        <time>2010-01-01T00:33:46Z</time>
      </trkpt>
      <trkpt lat="44.65526" lon="3.8859">
        <ele>980</ele>
        <time>2010-01-01T00:33:53Z</time>
      </trkpt>
      <trkpt lat="44.65535" lon="3.88701">
        <ele>979</ele>
        <time>2010-01-01T00:34:06Z</time>
      </trkpt>
      <trkpt lat="44.65509" lon="3.88877">
        <ele>981</ele>
        <time>2010-01-01T00:34:26Z</time>
      </trkpt>
      <trkpt lat="44.655" lon="3.88925">
        <ele>979</ele>
        <time>2010-01-01T00:34:32Z</time>
      </trkpt>
      <trkpt lat="44.65475" lon="3.88976">
        <ele>981</ele>
        <time>2010-01-01T00:34:39Z</time>
      </trkpt>
      <trkpt lat="44.65406" lon="3.89062">
        <ele>981</ele>
        <time>2010-01-01T00:34:53Z</time>
      </trkpt>
      <trkpt lat="44.65359" lon="3.89105">
        <ele>982</ele>
        <time>2010-01-01T00:35:02Z</time>
      </trkpt>
      <trkpt lat="44.65324" lon="3.89131">
        <ele>980</ele>
        <time>2010-01-01T00:35:09Z</time>
      </trkpt>
      <trkpt lat="44.65277" lon="3.89152">
        <ele>980</ele>
        <time>2010-01-01T00:35:17Z</time>
      </trkpt>
      <trkpt lat="44.65247" lon="3.89156">
        <ele>981</ele>
        <time>2010-01-01T00:35:21Z</time>
      </trkpt>
      <trkpt lat="44.652" lon="3.89156">
        <ele>984</ele>
        <time>2010-01-01T00:35:29Z</time>
      </trkpt>
      <trkpt lat="44.65144" lon="3.89174">
        <ele>984</ele>
        <time>2010-01-01T00:35:38Z</time>
      </trkpt>
      <trkpt lat="44.65097" lon="3.89195">
        <ele>984</ele>
        <time>2010-01-01T00:35:46Z</time>
      </trkpt>
      <trkpt lat="44.64921" lon="3.89332">
        <ele>976</ele>
        <time>2010-01-01T00:36:18Z</time>
      </trkpt>
      <trkpt lat="44.64887" lon="3.89354">
        <ele>976</ele>
        <time>2010-01-01T00:36:24Z</time>
      </trkpt>
      <trkpt lat="44.64852" lon="3.89362">
        <ele>977</ele>
        <time>2010-01-01T00:36:30Z</time>
      </trkpt>
      <trkpt lat="44.64732" lon="3.89354">
        <ele>982</ele>
        <time>2010-01-01T00:36:49Z</time>
      </trkpt>
      <trkpt lat="44.64706" lon="3.89362">
        <ele>981</ele>
        <time>2010-01-01T00:36:53Z</time>
      </trkpt>
      <trkpt lat="44.64616" lon="3.8941">
        <ele>981</ele>
        <time>2010-01-01T00:37:09Z</time>
      </trkpt>
      <trkpt lat="44.6444" lon="3.89452">
        <ele>981</ele>
        <time>2010-01-01T00:37:37Z</time>
      </trkpt>
      <trkpt lat="44.64385" lon="3.89452">
        <ele>982</ele>
        <time>2010-01-01T00:37:46Z</time>
      </trkpt>
      <trkpt lat="44.64324" lon="3.8944">
        <ele>982</ele>
        <time>2010-01-01T00:37:56Z</time>
      </trkpt>
      <trkpt lat="44.64277" lon="3.89418">
        <ele>981</ele>
        <time>2010-01-01T00:38:04Z</time>
      </trkpt>
      <trkpt lat="44.64243" lon="3.89388">
        <ele>984</ele>
        <time>2010-01-01T00:38:10Z</time>
      </trkpt>
      <trkpt lat="44.64216" lon="3.89364">
        <ele>985</ele>
        <time>2010-01-01T00:38:16Z</time>
      </trkpt>
      <trkpt lat="44.64097" lon="3.89255">
        <ele>983</ele>
        <time>2010-01-01T00:38:38Z</time>
      </trkpt>
      <trkpt lat="44.64041" lon="3.89238">
        <ele>980</ele>
        <time>2010-01-01T00:38:47Z</time>
      </trkpt>
      <trkpt lat="44.63981" lon="3.89238">
        <ele>977</ele>
        <time>2010-01-01T00:38:57Z</time>
      </trkpt>
      <trkpt lat="44.63943" lon="3.89238">
        <ele>977</ele>
        <time>2010-01-01T00:39:03Z</time>
      </trkpt>
      <trkpt lat="44.63852" lon="3.89238">
        <ele>979</ele>
        <time>2010-01-01T00:39:18Z</time>
      </trkpt>
      <trkpt lat="44.63805" lon="3.89251">
        <ele>980</ele>
        <time>2010-01-01T00:39:25Z</time>
      </trkpt>
      <trkpt lat="44.63642" lon="3.89302">
        <ele>984</ele>
        <time>2010-01-01T00:39:52Z</time>
      </trkpt>
      <trkpt lat="44.63603" lon="3.89307">
        <ele>984</ele>
        <time>2010-01-01T00:39:58Z</time>
      </trkpt>
      <trkpt lat="44.63552" lon="3.89294">
        <ele>984</ele>
        <time>2010-01-01T00:40:07Z</time>
      </trkpt>
      <trkpt lat="44.63488" lon="3.89281">
        <ele>982</ele>
        <time>2010-01-01T00:40:17Z</time>
      </trkpt>
      <trkpt lat="44.63423" lon="3.89268">
        <ele>975</ele>
        <time>2010-01-01T00:40:28Z</time>
      </trkpt>
      <trkpt lat="44.63376" lon="3.89272">
        <ele>979</ele>
        <time>2010-01-01T00:40:35Z</time>
      </trkpt>
      <trkpt lat="44.63264" lon="3.89302">
        <ele>982</ele>
        <time>2010-01-01T00:40:53Z</time>
      </trkpt>
      <trkpt lat="44.63174" lon="3.89315">
        <ele>987</ele>
        <time>2010-01-01T00:41:08Z</time>
      </trkpt>
      <trkpt lat="44.63076" lon="3.89328">
        <ele>991</ele>
        <time>2010-01-01T00:41:24Z</time>
      </trkpt>
      <trkpt lat="44.63033" lon="3.89324">
        <ele>991</ele>
        <time>2010-01-01T00:41:31Z</time>
      </trkpt>
      <trkpt lat="44.62994" lon="3.89311">
        <ele>992</ele>
        <time>2010-01-01T00:41:37Z</time>
      </trkpt>
      <trkpt lat="44.62895" lon="3.89246">
        <ele>993</ele>
        <time>2010-01-01T00:41:54Z</time>
      </trkpt>
      <trkpt lat="44.62749" lon="3.89212">
        <ele>989</ele>
        <time>2010-01-01T00:42:18Z</time>
      </trkpt>
      <trkpt lat="44.62677" lon="3.89182">
        <ele>986</ele>
        <time>2010-01-01T00:42:30Z</time>
      </trkpt>
      <trkpt lat="44.62655" lon="3.89174">
        <ele>986</ele>
        <time>2010-01-01T00:42:34Z</time>
      </trkpt>
      <trkpt lat="44.62612" lon="3.89152">
        <ele>987</ele>
        <time>2010-01-01T00:42:41Z</time>
      </trkpt>
      <trkpt lat="44.62582" lon="3.89152">
        <ele>985</ele>
        <time>2010-01-01T00:42:46Z</time>
      </trkpt>
      <trkpt lat="44.62531" lon="3.89156">
        <ele>985</ele>
        <time>2010-01-01T00:42:54Z</time>
      </trkpt>
      <trkpt lat="44.62419" lon="3.89195">
        <ele>984</ele>
        <time>2010-01-01T00:43:13Z</time>
      </trkpt>
      <trkpt lat="44.62385" lon="3.89199">
        <ele>982</ele>
        <time>2010-01-01T00:43:18Z</time>
      </trkpt>
      <trkpt lat="44.62333" lon="3.89204">
        <ele>979</ele>
        <time>2010-01-01T00:43:26Z</time>
      </trkpt>
      <trkpt lat="44.6226" lon="3.89195">
        <ele>980</ele>
        <time>2010-01-01T00:43:38Z</time>
      </trkpt>
      <trkpt lat="44.62222" lon="3.89199">
        <ele>982</ele>
        <time>2010-01-01T00:43:44Z</time>
      </trkpt>
      <trkpt lat="44.62063" lon="3.89238">
        <ele>989</ele>
        <time>2010-01-01T00:44:10Z</time>
      </trkpt>
      <trkpt lat="44.6194" lon="3.89291">
        <ele>987</ele>
        <time>2010-01-01T00:44:31Z</time>
      </trkpt>
      <trkpt lat="44.61934" lon="3.89294">
        <ele>987</ele>
        <time>2010-01-01T00:44:32Z</time>
      </trkpt>
      <trkpt lat="44.61887" lon="3.89307">
        <ele>987</ele>
        <time>2010-01-01T00:44:39Z</time>
      </trkpt>
      <trkpt lat="44.61707" lon="3.89328">
        <ele>987</ele>
        <time>2010-01-01T00:45:08Z</time>
      </trkpt>
      <trkpt lat="44.61552" lon="3.89367">
        <ele>991</ele>
        <time>2010-01-01T00:45:33Z</time>
      </trkpt>
      <trkpt lat="44.61522" lon="3.89362">
        <ele>992</ele>
        <time>2010-01-01T00:45:38Z</time>
      </trkpt>
      <trkpt lat="44.61466" lon="3.89349">
        <ele>994</ele>
        <time>2010-01-01T00:45:47Z</time>
      </trkpt>
      <trkpt lat="44.61411" lon="3.89337">
        <ele>995</ele>
        <time>2010-01-01T00:45:56Z</time>
      </trkpt>
      <trkpt lat="44.61393" lon="3.89345">
        <ele>994</ele>
        <time>2010-01-01T00:45:59Z</time>
      </trkpt>
      <trkpt lat="44.6138" lon="3.89358">
        <ele>993</ele>
        <time>2010-01-01T00:46:02Z</time>
      </trkpt>
      <trkpt lat="44.61359" lon="3.89418">
        <ele>986</ele>
        <time>2010-01-01T00:46:10Z</time>
      </trkpt>
      <trkpt lat="44.61303" lon="3.89504">
        <ele>990</ele>
        <time>2010-01-01T00:46:23Z</time>
      </trkpt>
      <trkpt lat="44.61282" lon="3.89568">
        <ele>989</ele>
        <time>2010-01-01T00:46:31Z</time>
      </trkpt>
      <trkpt lat="44.61269" lon="3.89641">
        <ele>989</ele>
        <time>2010-01-01T00:46:39Z</time>
      </trkpt>
      <trkpt lat="44.61269" lon="3.89693">
        <ele>990</ele>
        <time>2010-01-01T00:46:45Z</time>
      </trkpt>
      <trkpt lat="44.61282" lon="3.89727">
        <ele>991</ele>
        <time>2010-01-01T00:46:50Z</time>
      </trkpt>
      <trkpt lat="44.61299" lon="3.89753">
        <ele>992</ele>
        <time>2010-01-01T00:46:54Z</time>
      </trkpt>
      <trkpt lat="44.61342" lon="3.89787">
        <ele>994</ele>
        <time>2010-01-01T00:47:02Z</time>
      </trkpt>
      <trkpt lat="44.61363" lon="3.89822">
        <ele>996</ele>
        <time>2010-01-01T00:47:07Z</time>
      </trkpt>
      <trkpt lat="44.61385" lon="3.89864">
        <ele>997</ele>
        <time>2010-01-01T00:47:13Z</time>
      </trkpt>
      <trkpt lat="44.61393" lon="3.89916">
        <ele>997</ele>
        <time>2010-01-01T00:47:19Z</time>
      </trkpt>
      <trkpt lat="44.61398" lon="3.8995">
        <ele>996</ele>
        <time>2010-01-01T00:47:23Z</time>
      </trkpt>
      <trkpt lat="44.61389" lon="3.9001">
        <ele>993</ele>
        <time>2010-01-01T00:47:30Z</time>
      </trkpt>
      <trkpt lat="44.61355" lon="3.90096">
        <ele>995</ele>
        <time>2010-01-01T00:47:41Z</time>
      </trkpt>
      <trkpt lat="44.61338" lon="3.90225">
        <ele>1000</ele>
        <time>2010-01-01T00:47:56Z</time>
      </trkpt>
      <trkpt lat="44.61325" lon="3.90315">
        <ele>1005</ele>
        <time>2010-01-01T00:48:06Z</time>
      </trkpt>
      <trkpt lat="44.61286" lon="3.90478">
        <ele>1010</ele>
        <time>2010-01-01T00:48:26Z</time>
      </trkpt>
      <trkpt lat="44.61196" lon="3.90624">
        <ele>1011</ele>
        <time>2010-01-01T00:48:48Z</time>
      </trkpt>
      <trkpt lat="44.61174" lon="3.9065">
        <ele>1010</ele>
        <time>2010-01-01T00:48:53Z</time>
      </trkpt>
      <trkpt lat="44.61076" lon="3.9074">
        <ele>1012</ele>
        <time>2010-01-01T00:49:11Z</time>
      </trkpt>
      <trkpt lat="44.60999" lon="3.90779">
        <ele>1010</ele>
        <time>2010-01-01T00:49:25Z</time>
      </trkpt>
      <trkpt lat="44.60934" lon="3.90796">
        <ele>1009</ele>
        <time>2010-01-01T00:49:35Z</time>
      </trkpt>
      <trkpt lat="44.60805" lon="3.90851">
        <ele>1011</ele>
        <time>2010-01-01T00:49:57Z</time>
      </trkpt>
      <trkpt lat="44.60681" lon="3.90847">
        <ele>1012</ele>
        <time>2010-01-01T00:50:17Z</time>
      </trkpt>
      <trkpt lat="44.60634" lon="3.90851">
        <ele>1013</ele>
        <time>2010-01-01T00:50:24Z</time>
      </trkpt>
      <trkpt lat="44.60612" lon="3.90851">
        <ele>1014</ele>
        <time>2010-01-01T00:50:28Z</time>
      </trkpt>
      <trkpt lat="44.60505" lon="3.90804">
        <ele>1019</ele>
        <time>2010-01-01T00:50:46Z</time>
      </trkpt>
      <trkpt lat="44.60475" lon="3.90796">
        <ele>1019</ele>
        <time>2010-01-01T00:50:50Z</time>
      </trkpt>
      <trkpt lat="44.60385" lon="3.90787">
        <ele>1018</ele>
        <time>2010-01-01T00:51:05Z</time>
      </trkpt>
      <trkpt lat="44.60316" lon="3.90766">
        <ele>1017</ele>
        <time>2010-01-01T00:51:16Z</time>
      </trkpt>
      <trkpt lat="44.60235" lon="3.90753">
        <ele>1022</ele>
        <time>2010-01-01T00:51:29Z</time>
      </trkpt>
      <trkpt lat="44.60205" lon="3.90744">
        <ele>1024</ele>
        <time>2010-01-01T00:51:34Z</time>
      </trkpt>
      <trkpt lat="44.60024" lon="3.90637">
        <ele>1021</ele>
        <time>2010-01-01T00:52:06Z</time>
      </trkpt>
      <trkpt lat="44.59836" lon="3.90594">
        <ele>1029</ele>
        <time>2010-01-01T00:52:36Z</time>
      </trkpt>
      <trkpt lat="44.59724" lon="3.90581">
        <ele>1027</ele>
        <time>2010-01-01T00:52:54Z</time>
      </trkpt>
      <trkpt lat="44.59685" lon="3.90585">
        <ele>1026</ele>
        <time>2010-01-01T00:53:00Z</time>
      </trkpt>
      <trkpt lat="44.59651" lon="3.90603">
        <ele>1026</ele>
        <time>2010-01-01T00:53:06Z</time>
      </trkpt>
      <trkpt lat="44.59617" lon="3.90624">
        <ele>1025</ele>
        <time>2010-01-01T00:53:12Z</time>
      </trkpt>
      <trkpt lat="44.59582" lon="3.90663">
        <ele>1024</ele>
        <time>2010-01-01T00:53:19Z</time>
      </trkpt>
      <trkpt lat="44.59548" lon="3.90718">
        <ele>1028</ele>
        <time>2010-01-01T00:53:28Z</time>
      </trkpt>
      <trkpt lat="44.59518" lon="3.90714">
        <ele>1025</ele>
        <time>2010-01-01T00:53:32Z</time>
      </trkpt>
      <trkpt lat="44.59487" lon="3.90696">
        <ele>1022</ele>
        <time>2010-01-01T00:53:38Z</time>
      </trkpt>
      <trkpt lat="44.59466" lon="3.90684">
        <ele>1020</ele>
        <time>2010-01-01T00:53:41Z</time>
      </trkpt>
      <trkpt lat="44.59411" lon="3.90641">
        <ele>1018</ele>
        <time>2010-01-01T00:53:52Z</time>
      </trkpt>
      <trkpt lat="44.59394" lon="3.90628">
        <ele>1018</ele>
        <time>2010-01-01T00:53:55Z</time>
      </trkpt>
      <trkpt lat="44.59389" lon="3.90624">
        <ele>1018</ele>
        <time>2010-01-01T00:53:56Z</time>
      </trkpt>
      <trkpt lat="44.59342" lon="3.90603">
        <ele>1017</ele>
        <time>2010-01-01T00:54:04Z</time>
      </trkpt>
      <trkpt lat="44.5926" lon="3.90581">
        <ele>1017</ele>
        <time>2010-01-01T00:54:17Z</time>
      </trkpt>
      <trkpt lat="44.5923" lon="3.90585">
        <ele>1019</ele>
        <time>2010-01-01T00:54:22Z</time>
      </trkpt>
      <trkpt lat="44.59222" lon="3.9059">
        <ele>1019</ele>
        <time>2010-01-01T00:54:23Z</time>
      </trkpt>
      <trkpt lat="44.59192" lon="3.90585">
        <ele>1021</ele>
        <time>2010-01-01T00:54:28Z</time>
      </trkpt>
      <trkpt lat="44.59179" lon="3.9059">
        <ele>1022</ele>
        <time>2010-01-01T00:54:30Z</time>
      </trkpt>
      <trkpt lat="44.59179" lon="3.90564">
        <ele>1022</ele>
        <time>2010-01-01T00:54:33Z</time>
      </trkpt>
      <trkpt lat="44.59179" lon="3.90543">
        <ele>1021</ele>
        <time>2010-01-01T00:54:35Z</time>
      </trkpt>
      <trkpt lat="44.59192" lon="3.90491">
        <ele>1020</ele>
        <time>2010-01-01T00:54:42Z</time>
      </trkpt>
      <trkpt lat="44.59192" lon="3.90491">
        <ele>1020</ele>
        <time>2010-01-01T00:54:42Z</time>
      </trkpt>
      <trkpt lat="44.59205" lon="3.9044">
        <ele>1021</ele>
        <time>2010-01-01T00:54:48Z</time>
      </trkpt>
      <trkpt lat="44.592" lon="3.90427">
        <ele>1021</ele>
        <time>2010-01-01T00:54:49Z</time>
      </trkpt>
      <trkpt lat="44.59179" lon="3.90405">
        <ele>1022</ele>
        <time>2010-01-01T00:54:54Z</time>
      </trkpt>
      <trkpt lat="44.59097" lon="3.90354">
        <ele>1024</ele>
        <time>2010-01-01T00:55:08Z</time>
      </trkpt>
      <trkpt lat="44.5908" lon="3.90349">
        <ele>1024</ele>
        <time>2010-01-01T00:55:11Z</time>
      </trkpt>
      <trkpt lat="44.59003" lon="3.90319">
        <ele>1026</ele>
        <time>2010-01-01T00:55:24Z</time>
      </trkpt>
      <trkpt lat="44.589" lon="3.90306">
        <ele>1026</ele>
        <time>2010-01-01T00:55:40Z</time>
      </trkpt>
      <trkpt lat="44.58831" lon="3.90294">
        <ele>1027</ele>
        <time>2010-01-01T00:55:51Z</time>
      </trkpt>
      <trkpt lat="44.58715" lon="3.90302">
        <ele>1026</ele>
        <time>2010-01-01T00:56:10Z</time>
      </trkpt>
      <trkpt lat="44.58707" lon="3.90289">
        <ele>1027</ele>
        <time>2010-01-01T00:56:12Z</time>
      </trkpt>
      <trkpt lat="44.58703" lon="3.90259">
        <ele>1029</ele>
        <time>2010-01-01T00:56:15Z</time>
      </trkpt>
      <trkpt lat="44.58703" lon="3.90242">
        <ele>1030</ele>
        <time>2010-01-01T00:56:17Z</time>
      </trkpt>
      <trkpt lat="44.58698" lon="3.90225">
        <ele>1032</ele>
        <time>2010-01-01T00:56:19Z</time>
      </trkpt>
      <trkpt lat="44.58681" lon="3.90208">
        <ele>1033</ele>
        <time>2010-01-01T00:56:23Z</time>
      </trkpt>
      <trkpt lat="44.58574" lon="3.90131">
        <ele>1035</ele>
        <time>2010-01-01T00:56:42Z</time>
      </trkpt>
      <trkpt lat="44.58518" lon="3.90058">
        <ele>1035</ele>
        <time>2010-01-01T00:56:54Z</time>
      </trkpt>
      <trkpt lat="44.58449" lon="3.89967">
        <ele>1036</ele>
        <time>2010-01-01T00:57:09Z</time>
      </trkpt>
      <trkpt lat="44.58436" lon="3.89942">
        <ele>1036</ele>
        <time>2010-01-01T00:57:13Z</time>
      </trkpt>
      <trkpt lat="44.58411" lon="3.89826">
        <ele>1034</ele>
        <time>2010-01-01T00:57:27Z</time>
      </trkpt>
      <trkpt lat="44.58394" lon="3.89779">
        <ele>1036</ele>
        <time>2010-01-01T00:57:33Z</time>
      </trkpt>
      <trkpt lat="44.58368" lon="3.89744">
        <ele>1037</ele>
        <time>2010-01-01T00:57:39Z</time>
      </trkpt>
      <trkpt lat="44.58308" lon="3.8968">
        <ele>1044</ele>
        <time>2010-01-01T00:57:51Z</time>
      </trkpt>
      <trkpt lat="44.58239" lon="3.89637">
        <ele>1048</ele>
        <time>2010-01-01T00:58:03Z</time>
      </trkpt>
      <trkpt lat="44.582" lon="3.89637">
        <ele>1046</ele>
        <time>2010-01-01T00:58:09Z</time>
      </trkpt>
      <trkpt lat="44.58089" lon="3.8965">
        <ele>1044</ele>
        <time>2010-01-01T00:58:27Z</time>
      </trkpt>
      <trkpt lat="44.5805" lon="3.8965">
        <ele>1042</ele>
        <time>2010-01-01T00:58:33Z</time>
      </trkpt>
      <trkpt lat="44.58037" lon="3.89641">
        <ele>1042</ele>
        <time>2010-01-01T00:58:35Z</time>
      </trkpt>
      <trkpt lat="44.58025" lon="3.89628">
        <ele>1043</ele>
        <time>2010-01-01T00:58:38Z</time>
      </trkpt>
      <trkpt lat="44.57982" lon="3.89573">
        <ele>1047</ele>
        <time>2010-01-01T00:58:47Z</time>
      </trkpt>
      <trkpt lat="44.57917" lon="3.89504">
        <ele>1048</ele>
        <time>2010-01-01T00:59:00Z</time>
      </trkpt>
      <trkpt lat="44.57861" lon="3.89427">
        <ele>1051</ele>
        <time>2010-01-01T00:59:13Z</time>
      </trkpt>
      <trkpt lat="44.57728" lon="3.89328">
        <ele>1046</ele>
        <time>2010-01-01T00:59:37Z</time>
      </trkpt>
      <trkpt lat="44.57621" lon="3.89294">
        <ele>1054</ele>
        <time>2010-01-01T00:59:54Z</time>
      </trkpt>
      <trkpt lat="44.57548" lon="3.89298">
        <ele>1055</ele>
        <time>2010-01-01T01:00:06Z</time>
      </trkpt>
      <trkpt lat="44.57428" lon="3.89281">
        <ele>1059</ele>
        <time>2010-01-01T01:00:25Z</time>
      </trkpt>
      <trkpt lat="44.57321" lon="3.89225">
        <ele>1063</ele>
        <time>2010-01-01T01:00:44Z</time>
      </trkpt>
      <trkpt lat="44.57265" lon="3.89212">
        <ele>1061</ele>
        <time>2010-01-01T01:00:53Z</time>
      </trkpt>
      <trkpt lat="44.57153" lon="3.89212">
        <ele>1061</ele>
        <time>2010-01-01T01:01:11Z</time>
      </trkpt>
      <trkpt lat="44.5711" lon="3.89225">
        <ele>1061</ele>
        <time>2010-01-01T01:01:18Z</time>
      </trkpt>
      <trkpt lat="44.57059" lon="3.89255">
        <ele>1057</ele>
        <time>2010-01-01T01:01:27Z</time>
      </trkpt>
      <trkpt lat="44.57029" lon="3.89255">
        <ele>1056</ele>
        <time>2010-01-01T01:01:31Z</time>
      </trkpt>
      <trkpt lat="44.5699" lon="3.89221">
        <ele>1061</ele>
        <time>2010-01-01T01:01:39Z</time>
      </trkpt>
      <trkpt lat="44.56964" lon="3.89178">
        <ele>1064</ele>
        <time>2010-01-01T01:01:45Z</time>
      </trkpt>
      <trkpt lat="44.56947" lon="3.89092">
        <ele>1069</ele>
        <time>2010-01-01T01:01:55Z</time>
      </trkpt>
      <trkpt lat="44.5693" lon="3.88925">
        <ele>1069</ele>
        <time>2010-01-01T01:02:15Z</time>
      </trkpt>
      <trkpt lat="44.56904" lon="3.88856">
        <ele>1070</ele>
        <time>2010-01-01T01:02:23Z</time>
      </trkpt>
      <trkpt lat="44.56883" lon="3.8883">
        <ele>1070</ele>
        <time>2010-01-01T01:02:28Z</time>
      </trkpt>
      <trkpt lat="44.5684" lon="3.88783">
        <ele>1069</ele>
        <time>2010-01-01T01:02:37Z</time>
      </trkpt>
      <trkpt lat="44.56806" lon="3.88753">
        <ele>1068</ele>
        <time>2010-01-01T01:02:43Z</time>
      </trkpt>
      <trkpt lat="44.56784" lon="3.8871">
        <ele>1068</ele>
        <time>2010-01-01T01:02:49Z</time>
      </trkpt>
      <trkpt lat="44.56771" lon="3.88663">
        <ele>1068</ele>
        <time>2010-01-01T01:02:55Z</time>
      </trkpt>
      <trkpt lat="44.56767" lon="3.8862">
        <ele>1068</ele>
        <time>2010-01-01T01:03:00Z</time>
      </trkpt>
      <trkpt lat="44.56771" lon="3.88581">
        <ele>1069</ele>
        <time>2010-01-01T01:03:04Z</time>
      </trkpt>
      <trkpt lat="44.56767" lon="3.88564">
        <ele>1068</ele>
        <time>2010-01-01T01:03:06Z</time>
      </trkpt>
      <trkpt lat="44.56763" lon="3.88547">
        <ele>1068</ele>
        <time>2010-01-01T01:03:08Z</time>
      </trkpt>
      <trkpt lat="44.56741" lon="3.88534">
        <ele>1067</ele>
        <time>2010-01-01T01:03:12Z</time>
      </trkpt>
      <trkpt lat="44.56711" lon="3.88521">
        <ele>1066</ele>
        <time>2010-01-01T01:03:17Z</time>
      </trkpt>
      <trkpt lat="44.56686" lon="3.88491">
        <ele>1066</ele>
        <time>2010-01-01T01:03:23Z</time>
      </trkpt>
      <trkpt lat="44.56677" lon="3.88435">
        <ele>1067</ele>
        <time>2010-01-01T01:03:29Z</time>
      </trkpt>
      <trkpt lat="44.56681" lon="3.88332">
        <ele>1074</ele>
        <time>2010-01-01T01:03:41Z</time>
      </trkpt>
      <trkpt lat="44.56681" lon="3.88285">
        <ele>1074</ele>
        <time>2010-01-01T01:03:46Z</time>
      </trkpt>
      <trkpt lat="44.56703" lon="3.88195">
        <ele>1079</ele>
        <time>2010-01-01T01:03:57Z</time>
      </trkpt>
      <trkpt lat="44.56746" lon="3.88096">
        <ele>1081</ele>
        <time>2010-01-01T01:04:10Z</time>
      </trkpt>
      <trkpt lat="44.56853" lon="3.87762">
        <ele>1089</ele>
        <time>2010-01-01T01:04:52Z</time>
      </trkpt>
      <trkpt lat="44.56866" lon="3.87504">
        <ele>1096</ele>
        <time>2010-01-01T01:05:22Z</time>
      </trkpt>
      <trkpt lat="44.56844" lon="3.87401">
        <ele>1093</ele>
        <time>2010-01-01T01:05:34Z</time>
      </trkpt>
      <trkpt lat="44.56836" lon="3.87242">
        <ele>1097</ele>
        <time>2010-01-01T01:05:52Z</time>
      </trkpt>
      <trkpt lat="44.56831" lon="3.87161">
        <ele>1093</ele>
        <time>2010-01-01T01:06:01Z</time>
      </trkpt>
      <trkpt lat="44.5684" lon="3.87075">
        <ele>1094</ele>
        <time>2010-01-01T01:06:11Z</time>
      </trkpt>
      <trkpt lat="44.5684" lon="3.87041">
        <ele>1094</ele>
        <time>2010-01-01T01:06:15Z</time>
      </trkpt>
      <trkpt lat="44.56844" lon="3.86976">
        <ele>1097</ele>
        <time>2010-01-01T01:06:22Z</time>
      </trkpt>
      <trkpt lat="44.56892" lon="3.86882">
        <ele>1104</ele>
        <time>2010-01-01T01:06:36Z</time>
      </trkpt>
      <trkpt lat="44.56909" lon="3.86813">
        <ele>1104</ele>
        <time>2010-01-01T01:06:44Z</time>
      </trkpt>
      <trkpt lat="44.56922" lon="3.86684">
        <ele>1103</ele>
        <time>2010-01-01T01:06:59Z</time>
      </trkpt>
      <trkpt lat="44.56917" lon="3.86551">
        <ele>1102</ele>
        <time>2010-01-01T01:07:14Z</time>
      </trkpt>
      <trkpt lat="44.56939" lon="3.86466">
        <ele>1104</ele>
        <time>2010-01-01T01:07:24Z</time>
      </trkpt>
      <trkpt lat="44.56943" lon="3.86427">
        <ele>1106</ele>
        <time>2010-01-01T01:07:29Z</time>
      </trkpt>
      <trkpt lat="44.56939" lon="3.86384">
        <ele>1108</ele>
        <time>2010-01-01T01:07:34Z</time>
      </trkpt>
      <trkpt lat="44.56913" lon="3.86281">
        <ele>1111</ele>
        <time>2010-01-01T01:07:46Z</time>
      </trkpt>
      <trkpt lat="44.5684" lon="3.85976">
        <ele>1116</ele>
        <time>2010-01-01T01:08:23Z</time>
      </trkpt>
      <trkpt lat="44.56819" lon="3.85929">
        <ele>1113</ele>
        <time>2010-01-01T01:08:29Z</time>
      </trkpt>
      <trkpt lat="44.5678" lon="3.85882">
        <ele>1114</ele>
        <time>2010-01-01T01:08:37Z</time>
      </trkpt>
      <trkpt lat="44.56746" lon="3.85865">
        <ele>1114</ele>
        <time>2010-01-01T01:08:43Z</time>
      </trkpt>
      <trkpt lat="44.56681" lon="3.85873">
        <ele>1120</ele>
        <time>2010-01-01T01:08:54Z</time>
      </trkpt>
      <trkpt lat="44.56651" lon="3.85869">
        <ele>1122</ele>
        <time>2010-01-01T01:08:58Z</time>
      </trkpt>
      <trkpt lat="44.56527" lon="3.85787">
        <ele>1121</ele>
        <time>2010-01-01T01:09:20Z</time>
      </trkpt>
      <trkpt lat="44.56492" lon="3.85783">
        <ele>1123</ele>
        <time>2010-01-01T01:09:26Z</time>
      </trkpt>
      <trkpt lat="44.56432" lon="3.85783">
        <ele>1127</ele>
        <time>2010-01-01T01:09:36Z</time>
      </trkpt>
      <trkpt lat="44.56364" lon="3.85727">
        <ele>1126</ele>
        <time>2010-01-01T01:09:48Z</time>
      </trkpt>
      <trkpt lat="44.56321" lon="3.85659">
        <ele>1125</ele>
        <time>2010-01-01T01:09:59Z</time>
      </trkpt>
      <trkpt lat="44.56308" lon="3.85629">
        <ele>1128</ele>
        <time>2010-01-01T01:10:03Z</time>
      </trkpt>
      <trkpt lat="44.56304" lon="3.85599">
        <ele>1129</ele>
        <time>2010-01-01T01:10:06Z</time>
      </trkpt>
      <trkpt lat="44.56304" lon="3.85539">
        <ele>1133</ele>
        <time>2010-01-01T01:10:13Z</time>
      </trkpt>
      <trkpt lat="44.56351" lon="3.85204">
        <ele>1137</ele>
        <time>2010-01-01T01:10:52Z</time>
      </trkpt>
      <trkpt lat="44.56338" lon="3.85139">
        <ele>1140</ele>
        <time>2010-01-01T01:11:00Z</time>
      </trkpt>
      <trkpt lat="44.56295" lon="3.85058">
        <ele>1141</ele>
        <time>2010-01-01T01:11:11Z</time>
      </trkpt>
      <trkpt lat="44.56252" lon="3.85011">
        <ele>1141</ele>
        <time>2010-01-01T01:11:20Z</time>
      </trkpt>
      <trkpt lat="44.56093" lon="3.84929">
        <ele>1147</ele>
        <time>2010-01-01T01:11:47Z</time>
      </trkpt>
      <trkpt lat="44.56003" lon="3.84861">
        <ele>1149</ele>
        <time>2010-01-01T01:12:03Z</time>
      </trkpt>
      <trkpt lat="44.55969" lon="3.84843">
        <ele>1149</ele>
        <time>2010-01-01T01:12:09Z</time>
      </trkpt>
      <trkpt lat="44.55737" lon="3.8483">
        <ele>1157</ele>
        <time>2010-01-01T01:12:46Z</time>
      </trkpt>
      <trkpt lat="44.55711" lon="3.84826">
        <ele>1158</ele>
        <time>2010-01-01T01:12:51Z</time>
      </trkpt>
      <trkpt lat="44.55673" lon="3.84805">
        <ele>1159</ele>
        <time>2010-01-01T01:12:57Z</time>
      </trkpt>
      <trkpt lat="44.55561" lon="3.84689">
        <ele>1162</ele>
        <time>2010-01-01T01:13:19Z</time>
      </trkpt>
      <trkpt lat="44.55531" lon="3.84655">
        <ele>1162</ele>
        <time>2010-01-01T01:13:26Z</time>
      </trkpt>
      <trkpt lat="44.5548" lon="3.84556">
        <ele>1166</ele>
        <time>2010-01-01T01:13:40Z</time>
      </trkpt>
      <trkpt lat="44.55462" lon="3.84496">
        <ele>1168</ele>
        <time>2010-01-01T01:13:47Z</time>
      </trkpt>
      <trkpt lat="44.55462" lon="3.84466">
        <ele>1168</ele>
        <time>2010-01-01T01:13:50Z</time>
      </trkpt>
      <trkpt lat="44.55471" lon="3.84423">
        <ele>1168</ele>
        <time>2010-01-01T01:13:55Z</time>
      </trkpt>
      <trkpt lat="44.55488" lon="3.84367">
        <ele>1168</ele>
        <time>2010-01-01T01:14:02Z</time>
      </trkpt>
      <trkpt lat="44.55488" lon="3.8432">
        <ele>1169</ele>
        <time>2010-01-01T01:14:08Z</time>
      </trkpt>
      <trkpt lat="44.55454" lon="3.83968">
        <ele>1173</ele>
        <time>2010-01-01T01:14:48Z</time>
      </trkpt>
      <trkpt lat="44.5545" lon="3.83938">
        <ele>1173</ele>
        <time>2010-01-01T01:14:52Z</time>
      </trkpt>
      <trkpt lat="44.55428" lon="3.83882">
        <ele>1173</ele>
        <time>2010-01-01T01:14:59Z</time>
      </trkpt>
      <trkpt lat="44.55287" lon="3.8353">
        <ele>1169</ele>
        <time>2010-01-01T01:15:45Z</time>
      </trkpt>
      <trkpt lat="44.55269" lon="3.83509">
        <ele>1168</ele>
        <time>2010-01-01T01:15:49Z</time>
      </trkpt>
      <trkpt lat="44.55214" lon="3.83483">
        <ele>1167</ele>
        <time>2010-01-01T01:15:58Z</time>
      </trkpt>
      <trkpt lat="44.55192" lon="3.83457">
        <ele>1165</ele>
        <time>2010-01-01T01:16:03Z</time>
      </trkpt>
      <trkpt lat="44.55184" lon="3.83427">
        <ele>1162</ele>
        <time>2010-01-01T01:16:06Z</time>
      </trkpt>
      <trkpt lat="44.55179" lon="3.83346">
        <ele>1160</ele>
        <time>2010-01-01T01:16:16Z</time>
      </trkpt>
      <trkpt lat="44.55158" lon="3.83303">
        <ele>1162</ele>
        <time>2010-01-01T01:16:22Z</time>
      </trkpt>
      <trkpt lat="44.55128" lon="3.83281">
        <ele>1163</ele>
        <time>2010-01-01T01:16:27Z</time>
      </trkpt>
      <trkpt lat="44.55038" lon="3.83251">
        <ele>1163</ele>
        <time>2010-01-01T01:16:42Z</time>
      </trkpt>
      <trkpt lat="44.55003" lon="3.83217">
        <ele>1163</ele>
        <time>2010-01-01T01:16:49Z</time>
      </trkpt>
      <trkpt lat="44.54995" lon="3.83191">
        <ele>1164</ele>
        <time>2010-01-01T01:16:52Z</time>
      </trkpt>
      <trkpt lat="44.54986" lon="3.83135">
        <ele>1166</ele>
        <time>2010-01-01T01:16:59Z</time>
      </trkpt>
      <trkpt lat="44.54982" lon="3.8308">
        <ele>1168</ele>
        <time>2010-01-01T01:17:05Z</time>
      </trkpt>
      <trkpt lat="44.54978" lon="3.82968">
        <ele>1167</ele>
        <time>2010-01-01T01:17:18Z</time>
      </trkpt>
      <trkpt lat="44.54982" lon="3.82925">
        <ele>1165</ele>
        <time>2010-01-01T01:17:23Z</time>
      </trkpt>
      <trkpt lat="44.54995" lon="3.82856">
        <ele>1162</ele>
        <time>2010-01-01T01:17:31Z</time>
      </trkpt>
      <trkpt lat="44.5499" lon="3.82809">
        <ele>1160</ele>
        <time>2010-01-01T01:17:36Z</time>
      </trkpt>
      <trkpt lat="44.54969" lon="3.82762">
        <ele>1155</ele>
        <time>2010-01-01T01:17:43Z</time>
      </trkpt>
      <trkpt lat="44.54926" lon="3.82723">
        <ele>1152</ele>
        <time>2010-01-01T01:17:51Z</time>
      </trkpt>
      <trkpt lat="44.54905" lon="3.82702">
        <ele>1150</ele>
        <time>2010-01-01T01:17:55Z</time>
      </trkpt>
      <trkpt lat="44.54892" lon="3.8268">
        <ele>1146</ele>
        <time>2010-01-01T01:17:58Z</time>
      </trkpt>
      <trkpt lat="44.54866" lon="3.8259">
        <ele>1146</ele>
        <time>2010-01-01T01:18:09Z</time>
      </trkpt>
      <trkpt lat="44.54857" lon="3.82539">
        <ele>1144</ele>
        <time>2010-01-01T01:18:15Z</time>
      </trkpt>
      <trkpt lat="44.54887" lon="3.82324">
        <ele>1148</ele>
        <time>2010-01-01T01:18:40Z</time>
      </trkpt>
      <trkpt lat="44.54892" lon="3.82277">
        <ele>1146</ele>
        <time>2010-01-01T01:18:46Z</time>
      </trkpt>
      <trkpt lat="44.54892" lon="3.82183">
        <ele>1143</ele>
        <time>2010-01-01T01:18:56Z</time>
      </trkpt>
      <trkpt lat="44.54883" lon="3.82161">
        <ele>1141</ele>
        <time>2010-01-01T01:18:59Z</time>
      </trkpt>
      <trkpt lat="44.54866" lon="3.82161">
        <ele>1137</ele>
        <time>2010-01-01T01:19:02Z</time>
      </trkpt>
      <trkpt lat="44.54849" lon="3.82183">
        <ele>1135</ele>
        <time>2010-01-01T01:19:06Z</time>
      </trkpt>
      <trkpt lat="44.54836" lon="3.82187">
        <ele>1132</ele>
        <time>2010-01-01T01:19:08Z</time>
      </trkpt>
      <trkpt lat="44.54823" lon="3.82178">
        <ele>1127</ele>
        <time>2010-01-01T01:19:10Z</time>
      </trkpt>
      <trkpt lat="44.54823" lon="3.82157">
        <ele>1126</ele>
        <time>2010-01-01T01:19:12Z</time>
      </trkpt>
      <trkpt lat="44.54853" lon="3.82037">
        <ele>1123</ele>
        <time>2010-01-01T01:19:27Z</time>
      </trkpt>
      <trkpt lat="44.54887" lon="3.81968">
        <ele>1122</ele>
        <time>2010-01-01T01:19:37Z</time>
      </trkpt>
      <trkpt lat="44.54896" lon="3.81912">
        <ele>1118</ele>
        <time>2010-01-01T01:19:43Z</time>
      </trkpt>
      <trkpt lat="44.54892" lon="3.81741">
        <ele>1114</ele>
        <time>2010-01-01T01:20:03Z</time>
      </trkpt>
      <trkpt lat="44.54896" lon="3.81633">
        <ele>1111</ele>
        <time>2010-01-01T01:20:15Z</time>
      </trkpt>
      <trkpt lat="44.54892" lon="3.81608">
        <ele>1109</ele>
        <time>2010-01-01T01:20:18Z</time>
      </trkpt>
      <trkpt lat="44.54879" lon="3.81586">
        <ele>1107</ele>
        <time>2010-01-01T01:20:21Z</time>
      </trkpt>
      <trkpt lat="44.5484" lon="3.81556">
        <ele>1100</ele>
        <time>2010-01-01T01:20:28Z</time>
      </trkpt>
      <trkpt lat="44.54827" lon="3.81535">
        <ele>1099</ele>
        <time>2010-01-01T01:20:31Z</time>
      </trkpt>
      <trkpt lat="44.54827" lon="3.81513">
        <ele>1098</ele>
        <time>2010-01-01T01:20:34Z</time>
      </trkpt>
      <trkpt lat="44.5484" lon="3.81483">
        <ele>1097</ele>
        <time>2010-01-01T01:20:38Z</time>
      </trkpt>
      <trkpt lat="44.54853" lon="3.81457">
        <ele>1098</ele>
        <time>2010-01-01T01:20:41Z</time>
      </trkpt>
      <trkpt lat="44.5487" lon="3.81427">
        <ele>1100</ele>
        <time>2010-01-01T01:20:46Z</time>
      </trkpt>
      <trkpt lat="44.54883" lon="3.81397">
        <ele>1102</ele>
        <time>2010-01-01T01:20:50Z</time>
      </trkpt>
      <trkpt lat="44.54887" lon="3.81389">
        <ele>1103</ele>
        <time>2010-01-01T01:20:51Z</time>
      </trkpt>
      <trkpt lat="44.54913" lon="3.81273">
        <ele>1104</ele>
        <time>2010-01-01T01:21:05Z</time>
      </trkpt>
      <trkpt lat="44.54909" lon="3.81191">
        <ele>1105</ele>
        <time>2010-01-01T01:21:14Z</time>
      </trkpt>
      <trkpt lat="44.549" lon="3.81144">
        <ele>1107</ele>
        <time>2010-01-01T01:21:20Z</time>
      </trkpt>
      <trkpt lat="44.54892" lon="3.81114">
        <ele>1108</ele>
        <time>2010-01-01T01:21:24Z</time>
      </trkpt>
      <trkpt lat="44.5487" lon="3.8108">
        <ele>1105</ele>
        <time>2010-01-01T01:21:29Z</time>
      </trkpt>
      <trkpt lat="44.5484" lon="3.81041">
        <ele>1103</ele>
        <time>2010-01-01T01:21:35Z</time>
      </trkpt>
      <trkpt lat="44.54819" lon="3.81028">
        <ele>1102</ele>
        <time>2010-01-01T01:21:39Z</time>
      </trkpt>
      <trkpt lat="44.54772" lon="3.81015">
        <ele>1101</ele>
        <time>2010-01-01T01:21:47Z</time>
      </trkpt>
      <trkpt lat="44.54737" lon="3.80994">
        <ele>1101</ele>
        <time>2010-01-01T01:21:53Z</time>
      </trkpt>
      <trkpt lat="44.54694" lon="3.80912">
        <ele>1105</ele>
        <time>2010-01-01T01:22:04Z</time>
      </trkpt>
      <trkpt lat="44.5466" lon="3.80831">
        <ele>1104</ele>
        <time>2010-01-01T01:22:15Z</time>
      </trkpt>
      <trkpt lat="44.54656" lon="3.80766">
        <ele>1106</ele>
        <time>2010-01-01T01:22:22Z</time>
      </trkpt>
      <trkpt lat="44.54669" lon="3.8059">
        <ele>1111</ele>
        <time>2010-01-01T01:22:43Z</time>
      </trkpt>
      <trkpt lat="44.54669" lon="3.80556">
        <ele>1111</ele>
        <time>2010-01-01T01:22:47Z</time>
      </trkpt>
      <trkpt lat="44.54647" lon="3.80432">
        <ele>1112</ele>
        <time>2010-01-01T01:23:01Z</time>
      </trkpt>
      <trkpt lat="44.54643" lon="3.80294">
        <ele>1106</ele>
        <time>2010-01-01T01:23:17Z</time>
      </trkpt>
      <trkpt lat="44.54647" lon="3.80239">
        <ele>1103</ele>
        <time>2010-01-01T01:23:23Z</time>
      </trkpt>
      <trkpt lat="44.54664" lon="3.80204">
        <ele>1104</ele>
        <time>2010-01-01T01:23:28Z</time>
      </trkpt>
      <trkpt lat="44.5472" lon="3.80136">
        <ele>1109</ele>
        <time>2010-01-01T01:23:40Z</time>
      </trkpt>
      <trkpt lat="44.5484" lon="3.8005">
        <ele>1113</ele>
        <time>2010-01-01T01:24:02Z</time>
      </trkpt>
      <trkpt lat="44.54875" lon="3.80015">
        <ele>1114</ele>
        <time>2010-01-01T01:24:08Z</time>
      </trkpt>
      <trkpt lat="44.549" lon="3.79981">
        <ele>1113</ele>
        <time>2010-01-01T01:24:14Z</time>
      </trkpt>
      <trkpt lat="44.54917" lon="3.79942">
        <ele>1110</ele>
        <time>2010-01-01T01:24:19Z</time>
      </trkpt>
      <trkpt lat="44.54969" lon="3.79771">
        <ele>1113</ele>
        <time>2010-01-01T01:24:40Z</time>
      </trkpt>
      <trkpt lat="44.54986" lon="3.79732">
        <ele>1113</ele>
        <time>2010-01-01T01:24:46Z</time>
      </trkpt>
      <trkpt lat="44.55003" lon="3.79694">
        <ele>1112</ele>
        <time>2010-01-01T01:24:51Z</time>
      </trkpt>
      <trkpt lat="44.55063" lon="3.79616">
        <ele>1118</ele>
        <time>2010-01-01T01:25:04Z</time>
      </trkpt>
      <trkpt lat="44.55085" lon="3.79573">
        <ele>1120</ele>
        <time>2010-01-01T01:25:10Z</time>
      </trkpt>
      <trkpt lat="44.55098" lon="3.79535">
        <ele>1124</ele>
        <time>2010-01-01T01:25:15Z</time>
      </trkpt>
      <trkpt lat="44.55102" lon="3.79488">
        <ele>1125</ele>
        <time>2010-01-01T01:25:20Z</time>
      </trkpt>
      <trkpt lat="44.55102" lon="3.79359">
        <ele>1120</ele>
        <time>2010-01-01T01:25:35Z</time>
      </trkpt>
      <trkpt lat="44.55119" lon="3.79303">
        <ele>1122</ele>
        <time>2010-01-01T01:25:42Z</time>
      </trkpt>
      <trkpt lat="44.55175" lon="3.79234">
        <ele>1120</ele>
        <time>2010-01-01T01:25:54Z</time>
      </trkpt>
      <trkpt lat="44.55252" lon="3.7917">
        <ele>1121</ele>
        <time>2010-01-01T01:26:08Z</time>
      </trkpt>
      <trkpt lat="44.55308" lon="3.79101">
        <ele>1126</ele>
        <time>2010-01-01T01:26:20Z</time>
      </trkpt>
      <trkpt lat="44.55385" lon="3.79028">
        <ele>1129</ele>
        <time>2010-01-01T01:26:35Z</time>
      </trkpt>
      <trkpt lat="44.5542" lon="3.78973">
        <ele>1127</ele>
        <time>2010-01-01T01:26:43Z</time>
      </trkpt>
      <trkpt lat="44.55432" lon="3.78904">
        <ele>1132</ele>
        <time>2010-01-01T01:26:51Z</time>
      </trkpt>
      <trkpt lat="44.55432" lon="3.78857">
        <ele>1132</ele>
        <time>2010-01-01T01:26:57Z</time>
      </trkpt>
      <trkpt lat="44.5542" lon="3.78685">
        <ele>1127</ele>
        <time>2010-01-01T01:27:16Z</time>
      </trkpt>
      <trkpt lat="44.55428" lon="3.78642">
        <ele>1130</ele>
        <time>2010-01-01T01:27:21Z</time>
      </trkpt>
      <trkpt lat="44.55458" lon="3.78599">
        <ele>1134</ele>
        <time>2010-01-01T01:27:28Z</time>
      </trkpt>
      <trkpt lat="44.55523" lon="3.78561">
        <ele>1138</ele>
        <time>2010-01-01T01:27:40Z</time>
      </trkpt>
      <trkpt lat="44.55544" lon="3.78522">
        <ele>1139</ele>
        <time>2010-01-01T01:27:45Z</time>
      </trkpt>
      <trkpt lat="44.55561" lon="3.78453">
        <ele>1136</ele>
        <time>2010-01-01T01:27:53Z</time>
      </trkpt>
      <trkpt lat="44.55565" lon="3.7841">
        <ele>1134</ele>
        <time>2010-01-01T01:27:58Z</time>
      </trkpt>
      <trkpt lat="44.55561" lon="3.78372">
        <ele>1135</ele>
        <time>2010-01-01T01:28:03Z</time>
      </trkpt>
      <trkpt lat="44.55527" lon="3.7826">
        <ele>1137</ele>
        <time>2010-01-01T01:28:17Z</time>
      </trkpt>
      <trkpt lat="44.55527" lon="3.78243">
        <ele>1136</ele>
        <time>2010-01-01T01:28:19Z</time>
      </trkpt>
      <trkpt lat="44.55535" lon="3.78204">
        <ele>1134</ele>
        <time>2010-01-01T01:28:23Z</time>
      </trkpt>
      <trkpt lat="44.55553" lon="3.78179">
        <ele>1132</ele>
        <time>2010-01-01T01:28:27Z</time>
      </trkpt>
      <trkpt lat="44.55617" lon="3.78153">
        <ele>1137</ele>
        <time>2010-01-01T01:28:38Z</time>
      </trkpt>
      <trkpt lat="44.55656" lon="3.78119">
        <ele>1139</ele>
        <time>2010-01-01T01:28:45Z</time>
      </trkpt>
      <trkpt lat="44.55677" lon="3.78084">
        <ele>1138</ele>
        <time>2010-01-01T01:28:51Z</time>
      </trkpt>
      <trkpt lat="44.5572" lon="3.78016">
        <ele>1140</ele>
        <time>2010-01-01T01:29:01Z</time>
      </trkpt>
      <trkpt lat="44.5581" lon="3.779">
        <ele>1141</ele>
        <time>2010-01-01T01:29:21Z</time>
      </trkpt>
      <trkpt lat="44.55832" lon="3.77831">
        <ele>1137</ele>
        <time>2010-01-01T01:29:29Z</time>
      </trkpt>
      <trkpt lat="44.55827" lon="3.77707">
        <ele>1141</ele>
        <time>2010-01-01T01:29:43Z</time>
      </trkpt>
      <trkpt lat="44.55806" lon="3.77539">
        <ele>1145</ele>
        <time>2010-01-01T01:30:03Z</time>
      </trkpt>
      <trkpt lat="44.55797" lon="3.77436">
        <ele>1146</ele>
        <time>2010-01-01T01:30:15Z</time>
      </trkpt>
      <trkpt lat="44.55797" lon="3.77385">
        <ele>1146</ele>
        <time>2010-01-01T01:30:20Z</time>
      </trkpt>
      <trkpt lat="44.55823" lon="3.77234">
        <ele>1145</ele>
        <time>2010-01-01T01:30:38Z</time>
      </trkpt>
      <trkpt lat="44.55849" lon="3.77162">
        <ele>1141</ele>
        <time>2010-01-01T01:30:47Z</time>
      </trkpt>
      <trkpt lat="44.5587" lon="3.77114">
        <ele>1144</ele>
        <time>2010-01-01T01:30:54Z</time>
      </trkpt>
      <trkpt lat="44.55917" lon="3.7702">
        <ele>1145</ele>
        <time>2010-01-01T01:31:07Z</time>
      </trkpt>
      <trkpt lat="44.56025" lon="3.76913">
        <ele>1154</ele>
        <time>2010-01-01T01:31:28Z</time>
      </trkpt>
      <trkpt lat="44.56055" lon="3.7687">
        <ele>1158</ele>
        <time>2010-01-01T01:31:35Z</time>
      </trkpt>
      <trkpt lat="44.5608" lon="3.7681">
        <ele>1156</ele>
        <time>2010-01-01T01:31:43Z</time>
      </trkpt>
      <trkpt lat="44.56136" lon="3.76677">
        <ele>1156</ele>
        <time>2010-01-01T01:32:00Z</time>
      </trkpt>
      <trkpt lat="44.56162" lon="3.76591">
        <ele>1157</ele>
        <time>2010-01-01T01:32:11Z</time>
      </trkpt>
      <trkpt lat="44.56269" lon="3.76406">
        <ele>1167</ele>
        <time>2010-01-01T01:32:38Z</time>
      </trkpt>
      <trkpt lat="44.56286" lon="3.76368">
        <ele>1170</ele>
        <time>2010-01-01T01:32:43Z</time>
      </trkpt>
      <trkpt lat="44.56291" lon="3.76342">
        <ele>1170</ele>
        <time>2010-01-01T01:32:46Z</time>
      </trkpt>
      <trkpt lat="44.56295" lon="3.76209">
        <ele>1166</ele>
        <time>2010-01-01T01:33:02Z</time>
      </trkpt>
      <trkpt lat="44.56312" lon="3.76179">
        <ele>1167</ele>
        <time>2010-01-01T01:33:06Z</time>
      </trkpt>
      <trkpt lat="44.56368" lon="3.76144">
        <ele>1168</ele>
        <time>2010-01-01T01:33:16Z</time>
      </trkpt>
      <trkpt lat="44.56398" lon="3.76149">
        <ele>1170</ele>
        <time>2010-01-01T01:33:21Z</time>
      </trkpt>
      <trkpt lat="44.56445" lon="3.76162">
        <ele>1174</ele>
        <time>2010-01-01T01:33:28Z</time>
      </trkpt>
      <trkpt lat="44.56462" lon="3.76157">
        <ele>1174</ele>
        <time>2010-01-01T01:33:31Z</time>
      </trkpt>
      <trkpt lat="44.56518" lon="3.76136">
        <ele>1174</ele>
        <time>2010-01-01T01:33:40Z</time>
      </trkpt>
      <trkpt lat="44.56553" lon="3.7611">
        <ele>1174</ele>
        <time>2010-01-01T01:33:47Z</time>
      </trkpt>
      <trkpt lat="44.56656" lon="3.75973">
        <ele>1172</ele>
        <time>2010-01-01T01:34:09Z</time>
      </trkpt>
      <trkpt lat="44.56668" lon="3.75878">
        <ele>1164</ele>
        <time>2010-01-01T01:34:20Z</time>
      </trkpt>
      <trkpt lat="44.56681" lon="3.75853">
        <ele>1163</ele>
        <time>2010-01-01T01:34:24Z</time>
      </trkpt>
      <trkpt lat="44.56754" lon="3.75831">
        <ele>1166</ele>
        <time>2010-01-01T01:34:36Z</time>
      </trkpt>
      <trkpt lat="44.56793" lon="3.75805">
        <ele>1167</ele>
        <time>2010-01-01T01:34:43Z</time>
      </trkpt>
      <trkpt lat="44.5681" lon="3.75788">
        <ele>1167</ele>
        <time>2010-01-01T01:34:46Z</time>
      </trkpt>
      <trkpt lat="44.56827" lon="3.75745">
        <ele>1166</ele>
        <time>2010-01-01T01:34:52Z</time>
      </trkpt>
      <trkpt lat="44.5684" lon="3.75702">
        <ele>1167</ele>
        <time>2010-01-01T01:34:57Z</time>
      </trkpt>
      <trkpt lat="44.5684" lon="3.75672">
        <ele>1168</ele>
        <time>2010-01-01T01:35:00Z</time>
      </trkpt>
      <trkpt lat="44.56827" lon="3.75612">
        <ele>1169</ele>
        <time>2010-01-01T01:35:08Z</time>
      </trkpt>
      <trkpt lat="44.56819" lon="3.75587">
        <ele>1169</ele>
        <time>2010-01-01T01:35:11Z</time>
      </trkpt>
      <trkpt lat="44.56806" lon="3.75526">
        <ele>1171</ele>
        <time>2010-01-01T01:35:18Z</time>
      </trkpt>
      <trkpt lat="44.56784" lon="3.75471">
        <ele>1172</ele>
        <time>2010-01-01T01:35:25Z</time>
      </trkpt>
      <trkpt lat="44.56767" lon="3.75436">
        <ele>1172</ele>
        <time>2010-01-01T01:35:30Z</time>
      </trkpt>
      <trkpt lat="44.56758" lon="3.75419">
        <ele>1172</ele>
        <time>2010-01-01T01:35:32Z</time>
      </trkpt>
      <trkpt lat="44.56741" lon="3.75368">
        <ele>1172</ele>
        <time>2010-01-01T01:35:39Z</time>
      </trkpt>
      <trkpt lat="44.56724" lon="3.75346">
        <ele>1172</ele>
        <time>2010-01-01T01:35:43Z</time>
      </trkpt>
      <trkpt lat="44.56694" lon="3.75325">
        <ele>1172</ele>
        <time>2010-01-01T01:35:48Z</time>
      </trkpt>
      <trkpt lat="44.56651" lon="3.75303">
        <ele>1171</ele>
        <time>2010-01-01T01:35:55Z</time>
      </trkpt>
      <trkpt lat="44.56608" lon="3.75278">
        <ele>1171</ele>
        <time>2010-01-01T01:36:03Z</time>
      </trkpt>
      <trkpt lat="44.56553" lon="3.75226">
        <ele>1171</ele>
        <time>2010-01-01T01:36:13Z</time>
      </trkpt>
      <trkpt lat="44.56535" lon="3.75187">
        <ele>1171</ele>
        <time>2010-01-01T01:36:19Z</time>
      </trkpt>
      <trkpt lat="44.56531" lon="3.75149">
        <ele>1172</ele>
        <time>2010-01-01T01:36:23Z</time>
      </trkpt>
      <trkpt lat="44.56557" lon="3.75033">
        <ele>1176</ele>
        <time>2010-01-01T01:36:37Z</time>
      </trkpt>
      <trkpt lat="44.56557" lon="3.74947">
        <ele>1176</ele>
        <time>2010-01-01T01:36:47Z</time>
      </trkpt>
      <trkpt lat="44.56553" lon="3.74887">
        <ele>1176</ele>
        <time>2010-01-01T01:36:54Z</time>
      </trkpt>
      <trkpt lat="44.56531" lon="3.74801">
        <ele>1175</ele>
        <time>2010-01-01T01:37:04Z</time>
      </trkpt>
      <trkpt lat="44.56522" lon="3.74741">
        <ele>1175</ele>
        <time>2010-01-01T01:37:11Z</time>
      </trkpt>
      <trkpt lat="44.56518" lon="3.74672">
        <ele>1175</ele>
        <time>2010-01-01T01:37:19Z</time>
      </trkpt>
      <trkpt lat="44.56518" lon="3.74629">
        <ele>1176</ele>
        <time>2010-01-01T01:37:24Z</time>
      </trkpt>
      <trkpt lat="44.56531" lon="3.74595">
        <ele>1177</ele>
        <time>2010-01-01T01:37:28Z</time>
      </trkpt>
      <trkpt lat="44.56583" lon="3.74522">
        <ele>1177</ele>
        <time>2010-01-01T01:37:40Z</time>
      </trkpt>
      <trkpt lat="44.566" lon="3.74471">
        <ele>1177</ele>
        <time>2010-01-01T01:37:46Z</time>
      </trkpt>
      <trkpt lat="44.56608" lon="3.74441">
        <ele>1177</ele>
        <time>2010-01-01T01:37:50Z</time>
      </trkpt>
      <trkpt lat="44.56608" lon="3.74351">
        <ele>1176</ele>
        <time>2010-01-01T01:38:00Z</time>
      </trkpt>
      <trkpt lat="44.56613" lon="3.74295">
        <ele>1175</ele>
        <time>2010-01-01T01:38:07Z</time>
      </trkpt>
      <trkpt lat="44.5663" lon="3.74269">
        <ele>1176</ele>
        <time>2010-01-01T01:38:11Z</time>
      </trkpt>
      <trkpt lat="44.56651" lon="3.74243">
        <ele>1176</ele>
        <time>2010-01-01T01:38:15Z</time>
      </trkpt>
      <trkpt lat="44.56703" lon="3.74196">
        <ele>1176</ele>
        <time>2010-01-01T01:38:25Z</time>
      </trkpt>
      <trkpt lat="44.5672" lon="3.74183">
        <ele>1175</ele>
        <time>2010-01-01T01:38:28Z</time>
      </trkpt>
      <trkpt lat="44.56767" lon="3.74162">
        <ele>1174</ele>
        <time>2010-01-01T01:38:36Z</time>
      </trkpt>
      <trkpt lat="44.56926" lon="3.74145">
        <ele>1178</ele>
        <time>2010-01-01T01:39:02Z</time>
      </trkpt>
      <trkpt lat="44.57003" lon="3.74162">
        <ele>1178</ele>
        <time>2010-01-01T01:39:14Z</time>
      </trkpt>
      <trkpt lat="44.57085" lon="3.74196">
        <ele>1179</ele>
        <time>2010-01-01T01:39:28Z</time>
      </trkpt>
      <trkpt lat="44.5711" lon="3.74209">
        <ele>1180</ele>
        <time>2010-01-01T01:39:32Z</time>
      </trkpt>
      <trkpt lat="44.57136" lon="3.74209">
        <ele>1182</ele>
        <time>2010-01-01T01:39:36Z</time>
      </trkpt>
      <trkpt lat="44.57196" lon="3.74192">
        <ele>1187</ele>
        <time>2010-01-01T01:39:46Z</time>
      </trkpt>
      <trkpt lat="44.57286" lon="3.74136">
        <ele>1195</ele>
        <time>2010-01-01T01:40:02Z</time>
      </trkpt>
      <trkpt lat="44.57394" lon="3.74089">
        <ele>1202</ele>
        <time>2010-01-01T01:40:20Z</time>
      </trkpt>
      <trkpt lat="44.57501" lon="3.74012">
        <ele>1206</ele>
        <time>2010-01-01T01:40:39Z</time>
      </trkpt>
      <trkpt lat="44.57548" lon="3.7399">
        <ele>1207</ele>
        <time>2010-01-01T01:40:47Z</time>
      </trkpt>
      <trkpt lat="44.57651" lon="3.73964">
        <ele>1206</ele>
        <time>2010-01-01T01:41:04Z</time>
      </trkpt>
      <trkpt lat="44.57754" lon="3.73973">
        <ele>1204</ele>
        <time>2010-01-01T01:41:20Z</time>
      </trkpt>
      <trkpt lat="44.57788" lon="3.73964">
        <ele>1206</ele>
        <time>2010-01-01T01:41:26Z</time>
      </trkpt>
      <trkpt lat="44.57831" lon="3.73939">
        <ele>1208</ele>
        <time>2010-01-01T01:41:34Z</time>
      </trkpt>
      <trkpt lat="44.5787" lon="3.73891">
        <ele>1211</ele>
        <time>2010-01-01T01:41:42Z</time>
      </trkpt>
      <trkpt lat="44.57934" lon="3.73797">
        <ele>1212</ele>
        <time>2010-01-01T01:41:57Z</time>
      </trkpt>
      <trkpt lat="44.5799" lon="3.73688">
        <ele>1211</ele>
        <time>2010-01-01T01:42:12Z</time>
      </trkpt>
      <trkpt lat="44.58085" lon="3.73501">
        <ele>1212</ele>
        <time>2010-01-01T01:42:38Z</time>
      </trkpt>
      <trkpt lat="44.58235" lon="3.73213">
        <ele>1211</ele>
        <time>2010-01-01T01:43:19Z</time>
      </trkpt>
      <trkpt lat="44.58265" lon="3.7314">
        <ele>1211</ele>
        <time>2010-01-01T01:43:28Z</time>
      </trkpt>
      <trkpt lat="44.58329" lon="3.7293">
        <ele>1211</ele>
        <time>2010-01-01T01:43:54Z</time>
      </trkpt>
      <trkpt lat="44.58368" lon="3.72857">
        <ele>1210</ele>
        <time>2010-01-01T01:44:05Z</time>
      </trkpt>
      <trkpt lat="44.58415" lon="3.72776">
        <ele>1210</ele>
        <time>2010-01-01T01:44:17Z</time>
      </trkpt>
      <trkpt lat="44.58814" lon="3.7211">
        <ele>1213</ele>
        <time>2010-01-01T01:45:56Z</time>
      </trkpt>
      <trkpt lat="44.58891" lon="3.7196">
        <ele>1214</ele>
        <time>2010-01-01T01:46:17Z</time>
      </trkpt>
      <trkpt lat="44.58947" lon="3.71836">
        <ele>1215</ele>
        <time>2010-01-01T01:46:34Z</time>
      </trkpt>
      <trkpt lat="44.58977" lon="3.71767">
        <ele>1216</ele>
        <time>2010-01-01T01:46:43Z</time>
      </trkpt>
      <trkpt lat="44.58994" lon="3.71733">
        <ele>1216</ele>
        <time>2010-01-01T01:46:48Z</time>
      </trkpt>
      <trkpt lat="44.59012" lon="3.71686">
        <ele>1217</ele>
        <time>2010-01-01T01:46:54Z</time>
      </trkpt>
      <trkpt lat="44.59033" lon="3.71638">
        <ele>1219</ele>
        <time>2010-01-01T01:47:00Z</time>
      </trkpt>
      <trkpt lat="44.59046" lon="3.71587">
        <ele>1221</ele>
        <time>2010-01-01T01:47:07Z</time>
      </trkpt>
      <trkpt lat="44.5905" lon="3.71505">
        <ele>1220</ele>
        <time>2010-01-01T01:47:16Z</time>
      </trkpt>
      <trkpt lat="44.5908" lon="3.71432">
        <ele>1221</ele>
        <time>2010-01-01T01:47:25Z</time>
      </trkpt>
      <trkpt lat="44.59085" lon="3.71407">
        <ele>1221</ele>
        <time>2010-01-01T01:47:28Z</time>
      </trkpt>
      <trkpt lat="44.59085" lon="3.71346">
        <ele>1222</ele>
        <time>2010-01-01T01:47:35Z</time>
      </trkpt>
      <trkpt lat="44.5908" lon="3.71231">
        <ele>1223</ele>
        <time>2010-01-01T01:47:49Z</time>
      </trkpt>
      <trkpt lat="44.5908" lon="3.71145">
        <ele>1222</ele>
        <time>2010-01-01T01:47:58Z</time>
      </trkpt>
      <trkpt lat="44.59076" lon="3.71037">
        <ele>1221</ele>
        <time>2010-01-01T01:48:11Z</time>
      </trkpt>
      <trkpt lat="44.59016" lon="3.70454">
        <ele>1220</ele>
        <time>2010-01-01T01:49:18Z</time>
      </trkpt>
      <trkpt lat="44.59003" lon="3.70342">
        <ele>1223</ele>
        <time>2010-01-01T01:49:31Z</time>
      </trkpt>
      <trkpt lat="44.59003" lon="3.70286">
        <ele>1223</ele>
        <time>2010-01-01T01:49:37Z</time>
      </trkpt>
      <trkpt lat="44.59012" lon="3.70085">
        <ele>1225</ele>
        <time>2010-01-01T01:50:00Z</time>
      </trkpt>
      <trkpt lat="44.59042" lon="3.69819">
        <ele>1223</ele>
        <time>2010-01-01T01:50:31Z</time>
      </trkpt>
      <trkpt lat="44.59042" lon="3.69754">
        <ele>1222</ele>
        <time>2010-01-01T01:50:38Z</time>
      </trkpt>
      <trkpt lat="44.59012" lon="3.69471">
        <ele>1219</ele>
        <time>2010-01-01T01:51:11Z</time>
      </trkpt>
      <trkpt lat="44.59016" lon="3.69355">
        <ele>1218</ele>
        <time>2010-01-01T01:51:24Z</time>
      </trkpt>
      <trkpt lat="44.5902" lon="3.69299">
        <ele>1217</ele>
        <time>2010-01-01T01:51:30Z</time>
      </trkpt>
      <trkpt lat="44.58999" lon="3.69235">
        <ele>1216</ele>
        <time>2010-01-01T01:51:39Z</time>
      </trkpt>
      <trkpt lat="44.58939" lon="3.69145">
        <ele>1214</ele>
        <time>2010-01-01T01:51:53Z</time>
      </trkpt>
      <trkpt lat="44.58926" lon="3.69111">
        <ele>1214</ele>
        <time>2010-01-01T01:51:57Z</time>
      </trkpt>
      <trkpt lat="44.58866" lon="3.68862">
        <ele>1208</ele>
        <time>2010-01-01T01:52:27Z</time>
      </trkpt>
      <trkpt lat="44.58771" lon="3.6848">
        <ele>1200</ele>
        <time>2010-01-01T01:53:13Z</time>
      </trkpt>
      <trkpt lat="44.58763" lon="3.68411">
        <ele>1200</ele>
        <time>2010-01-01T01:53:21Z</time>
      </trkpt>
      <trkpt lat="44.58763" lon="3.68334">
        <ele>1202</ele>
        <time>2010-01-01T01:53:30Z</time>
      </trkpt>
      <trkpt lat="44.58771" lon="3.68252">
        <ele>1205</ele>
        <time>2010-01-01T01:53:39Z</time>
      </trkpt>
      <trkpt lat="44.58793" lon="3.68175">
        <ele>1207</ele>
        <time>2010-01-01T01:53:49Z</time>
      </trkpt>
      <trkpt lat="44.58896" lon="3.67892">
        <ele>1216</ele>
        <time>2010-01-01T01:54:25Z</time>
      </trkpt>
      <trkpt lat="44.59076" lon="3.67403">
        <ele>1221</ele>
        <time>2010-01-01T01:55:28Z</time>
      </trkpt>
      <trkpt lat="44.59102" lon="3.67317">
        <ele>1222</ele>
        <time>2010-01-01T01:55:38Z</time>
      </trkpt>
      <trkpt lat="44.5911" lon="3.67274">
        <ele>1222</ele>
        <time>2010-01-01T01:55:44Z</time>
      </trkpt>
      <trkpt lat="44.5911" lon="3.67218">
        <ele>1223</ele>
        <time>2010-01-01T01:55:50Z</time>
      </trkpt>
      <trkpt lat="44.59097" lon="3.67149">
        <ele>1225</ele>
        <time>2010-01-01T01:55:58Z</time>
      </trkpt>
      <trkpt lat="44.5908" lon="3.67115">
        <ele>1226</ele>
        <time>2010-01-01T01:56:03Z</time>
      </trkpt>
      <trkpt lat="44.59016" lon="3.67021">
        <ele>1230</ele>
        <time>2010-01-01T01:56:18Z</time>
      </trkpt>
      <trkpt lat="44.59003" lon="3.66978">
        <ele>1231</ele>
        <time>2010-01-01T01:56:23Z</time>
      </trkpt>
      <trkpt lat="44.59003" lon="3.6693">
        <ele>1233</ele>
        <time>2010-01-01T01:56:28Z</time>
      </trkpt>
      <trkpt lat="44.59012" lon="3.6687">
        <ele>1237</ele>
        <time>2010-01-01T01:56:35Z</time>
      </trkpt>
      <trkpt lat="44.58964" lon="3.66827">
        <ele>1238</ele>
        <time>2010-01-01T01:56:44Z</time>
      </trkpt>
      <trkpt lat="44.58921" lon="3.6678">
        <ele>1239</ele>
        <time>2010-01-01T01:56:53Z</time>
      </trkpt>
      <trkpt lat="44.58891" lon="3.6672">
        <ele>1240</ele>
        <time>2010-01-01T01:57:01Z</time>
      </trkpt>
      <trkpt lat="44.58844" lon="3.6654">
        <ele>1244</ele>
        <time>2010-01-01T01:57:23Z</time>
      </trkpt>
      <trkpt lat="44.58806" lon="3.6645">
        <ele>1245</ele>
        <time>2010-01-01T01:57:35Z</time>
      </trkpt>
      <trkpt lat="44.58767" lon="3.66338">
        <ele>1248</ele>
        <time>2010-01-01T01:57:50Z</time>
      </trkpt>
      <trkpt lat="44.58758" lon="3.6627">
        <ele>1252</ele>
        <time>2010-01-01T01:57:57Z</time>
      </trkpt>
      <trkpt lat="44.58763" lon="3.66227">
        <ele>1253</ele>
        <time>2010-01-01T01:58:02Z</time>
      </trkpt>
      <trkpt lat="44.5881" lon="3.66068">
        <ele>1257</ele>
        <time>2010-01-01T01:58:22Z</time>
      </trkpt>
      <trkpt lat="44.58818" lon="3.66008">
        <ele>1260</ele>
        <time>2010-01-01T01:58:29Z</time>
      </trkpt>
      <trkpt lat="44.5881" lon="3.65948">
        <ele>1260</ele>
        <time>2010-01-01T01:58:36Z</time>
      </trkpt>
      <trkpt lat="44.58797" lon="3.65909">
        <ele>1260</ele>
        <time>2010-01-01T01:58:41Z</time>
      </trkpt>
      <trkpt lat="44.58754" lon="3.6584">
        <ele>1261</ele>
        <time>2010-01-01T01:58:51Z</time>
      </trkpt>
      <trkpt lat="44.58677" lon="3.65763">
        <ele>1258</ele>
        <time>2010-01-01T01:59:06Z</time>
      </trkpt>
      <trkpt lat="44.58587" lon="3.65699">
        <ele>1255</ele>
        <time>2010-01-01T01:59:23Z</time>
      </trkpt>
      <trkpt lat="44.58535" lon="3.65652">
        <ele>1252</ele>
        <time>2010-01-01T01:59:33Z</time>
      </trkpt>
      <trkpt lat="44.58505" lon="3.65613">
        <ele>1251</ele>
        <time>2010-01-01T01:59:39Z</time>
      </trkpt>
      <trkpt lat="44.58488" lon="3.65566">
        <ele>1251</ele>
        <time>2010-01-01T01:59:45Z</time>
      </trkpt>
      <trkpt lat="44.58424" lon="3.65287">
        <ele>1248</ele>
        <time>2010-01-01T02:00:19Z</time>
      </trkpt>
      <trkpt lat="44.58406" lon="3.65201">
        <ele>1247</ele>
        <time>2010-01-01T02:00:29Z</time>
      </trkpt>
      <trkpt lat="44.58406" lon="3.65145">
        <ele>1247</ele>
        <time>2010-01-01T02:00:35Z</time>
      </trkpt>
      <trkpt lat="44.58411" lon="3.65094">
        <ele>1246</ele>
        <time>2010-01-01T02:00:41Z</time>
      </trkpt>
      <trkpt lat="44.58445" lon="3.64999">
        <ele>1245</ele>
        <time>2010-01-01T02:00:53Z</time>
      </trkpt>
      <trkpt lat="44.58479" lon="3.64909">
        <ele>1243</ele>
        <time>2010-01-01T02:01:05Z</time>
      </trkpt>
      <trkpt lat="44.58539" lon="3.64755">
        <ele>1241</ele>
        <time>2010-01-01T02:01:25Z</time>
      </trkpt>
      <trkpt lat="44.58544" lon="3.64703">
        <ele>1239</ele>
        <time>2010-01-01T02:01:31Z</time>
      </trkpt>
      <trkpt lat="44.58535" lon="3.64656">
        <ele>1238</ele>
        <time>2010-01-01T02:01:36Z</time>
      </trkpt>
      <trkpt lat="44.58518" lon="3.64609">
        <ele>1237</ele>
        <time>2010-01-01T02:01:42Z</time>
      </trkpt>
      <trkpt lat="44.58492" lon="3.64579">
        <ele>1235</ele>
        <time>2010-01-01T02:01:48Z</time>
      </trkpt>
      <trkpt lat="44.58441" lon="3.64557">
        <ele>1230</ele>
        <time>2010-01-01T02:01:56Z</time>
      </trkpt>
      <trkpt lat="44.58394" lon="3.64562">
        <ele>1226</ele>
        <time>2010-01-01T02:02:04Z</time>
      </trkpt>
      <trkpt lat="44.58364" lon="3.6457">
        <ele>1225</ele>
        <time>2010-01-01T02:02:09Z</time>
      </trkpt>
      <trkpt lat="44.58333" lon="3.64566">
        <ele>1223</ele>
        <time>2010-01-01T02:02:14Z</time>
      </trkpt>
      <trkpt lat="44.58316" lon="3.64562">
        <ele>1223</ele>
        <time>2010-01-01T02:02:16Z</time>
      </trkpt>
      <trkpt lat="44.58299" lon="3.64536">
        <ele>1222</ele>
        <time>2010-01-01T02:02:20Z</time>
      </trkpt>
      <trkpt lat="44.58291" lon="3.64519">
        <ele>1222</ele>
        <time>2010-01-01T02:02:23Z</time>
      </trkpt>
      <trkpt lat="44.58286" lon="3.6448">
        <ele>1221</ele>
        <time>2010-01-01T02:02:27Z</time>
      </trkpt>
      <trkpt lat="44.58299" lon="3.64441">
        <ele>1219</ele>
        <time>2010-01-01T02:02:32Z</time>
      </trkpt>
      <trkpt lat="44.58316" lon="3.64407">
        <ele>1216</ele>
        <time>2010-01-01T02:02:37Z</time>
      </trkpt>
      <trkpt lat="44.58359" lon="3.64326">
        <ele>1212</ele>
        <time>2010-01-01T02:02:48Z</time>
      </trkpt>
      <trkpt lat="44.58376" lon="3.64278">
        <ele>1209</ele>
        <time>2010-01-01T02:02:54Z</time>
      </trkpt>
      <trkpt lat="44.58381" lon="3.64227">
        <ele>1206</ele>
        <time>2010-01-01T02:03:00Z</time>
      </trkpt>
      <trkpt lat="44.58385" lon="3.64171">
        <ele>1202</ele>
        <time>2010-01-01T02:03:07Z</time>
      </trkpt>
      <trkpt lat="44.58389" lon="3.64132">
        <ele>1201</ele>
        <time>2010-01-01T02:03:11Z</time>
      </trkpt>
      <trkpt lat="44.58391" lon="3.64094">
        <ele>1200</ele>
        <time>2010-01-01T02:03:16Z</time>
      </trkpt>
      <trkpt lat="44.58389" lon="3.64094">
        <ele>1200</ele>
        <time>2010-01-01T02:03:16Z</time>
      </trkpt>
      <trkpt lat="44.58394" lon="3.64055">
        <ele>1199</ele>
        <time>2010-01-01T02:03:20Z</time>
      </trkpt>
      <trkpt lat="44.58398" lon="3.63995">
        <ele>1197</ele>
        <time>2010-01-01T02:03:27Z</time>
      </trkpt>
      <trkpt lat="44.58385" lon="3.63909">
        <ele>1195</ele>
        <time>2010-01-01T02:03:37Z</time>
      </trkpt>
      <trkpt lat="44.58372" lon="3.63853">
        <ele>1195</ele>
        <time>2010-01-01T02:03:44Z</time>
      </trkpt>
      <trkpt lat="44.58329" lon="3.6375">
        <ele>1196</ele>
        <time>2010-01-01T02:03:58Z</time>
      </trkpt>
      <trkpt lat="44.58299" lon="3.63712">
        <ele>1196</ele>
        <time>2010-01-01T02:04:04Z</time>
      </trkpt>
      <trkpt lat="44.58295" lon="3.63609">
        <ele>1201</ele>
        <time>2010-01-01T02:04:16Z</time>
      </trkpt>
      <trkpt lat="44.58291" lon="3.63583">
        <ele>1202</ele>
        <time>2010-01-01T02:04:19Z</time>
      </trkpt>
      <trkpt lat="44.58278" lon="3.63562">
        <ele>1203</ele>
        <time>2010-01-01T02:04:22Z</time>
      </trkpt>
      <trkpt lat="44.58265" lon="3.63553">
        <ele>1204</ele>
        <time>2010-01-01T02:04:24Z</time>
      </trkpt>
      <trkpt lat="44.58218" lon="3.63536">
        <ele>1204</ele>
        <time>2010-01-01T02:04:32Z</time>
      </trkpt>
      <trkpt lat="44.582" lon="3.63523">
        <ele>1205</ele>
        <time>2010-01-01T02:04:35Z</time>
      </trkpt>
      <trkpt lat="44.58188" lon="3.63506">
        <ele>1206</ele>
        <time>2010-01-01T02:04:38Z</time>
      </trkpt>
      <trkpt lat="44.58179" lon="3.63476">
        <ele>1207</ele>
        <time>2010-01-01T02:04:42Z</time>
      </trkpt>
      <trkpt lat="44.58188" lon="3.63424">
        <ele>1211</ele>
        <time>2010-01-01T02:04:48Z</time>
      </trkpt>
      <trkpt lat="44.58256" lon="3.63347">
        <ele>1217</ele>
        <time>2010-01-01T02:05:02Z</time>
      </trkpt>
      <trkpt lat="44.58329" lon="3.63214">
        <ele>1224</ele>
        <time>2010-01-01T02:05:21Z</time>
      </trkpt>
      <trkpt lat="44.58398" lon="3.63098">
        <ele>1229</ele>
        <time>2010-01-01T02:05:38Z</time>
      </trkpt>
      <trkpt lat="44.58424" lon="3.63051">
        <ele>1232</ele>
        <time>2010-01-01T02:05:45Z</time>
      </trkpt>
      <trkpt lat="44.58527" lon="3.62974">
        <ele>1241</ele>
        <time>2010-01-01T02:06:04Z</time>
      </trkpt>
      <trkpt lat="44.58578" lon="3.62918">
        <ele>1245</ele>
        <time>2010-01-01T02:06:14Z</time>
      </trkpt>
      <trkpt lat="44.58647" lon="3.62793">
        <ele>1249</ele>
        <time>2010-01-01T02:06:32Z</time>
      </trkpt>
      <trkpt lat="44.5869" lon="3.62738">
        <ele>1253</ele>
        <time>2010-01-01T02:06:42Z</time>
      </trkpt>
      <trkpt lat="44.58896" lon="3.626">
        <ele>1266</ele>
        <time>2010-01-01T02:07:18Z</time>
      </trkpt>
      <trkpt lat="44.58913" lon="3.62583">
        <ele>1268</ele>
        <time>2010-01-01T02:07:21Z</time>
      </trkpt>
      <trkpt lat="44.5893" lon="3.62549">
        <ele>1268</ele>
        <time>2010-01-01T02:07:26Z</time>
      </trkpt>
      <trkpt lat="44.5893" lon="3.62527">
        <ele>1269</ele>
        <time>2010-01-01T02:07:29Z</time>
      </trkpt>
      <trkpt lat="44.58934" lon="3.62497">
        <ele>1269</ele>
        <time>2010-01-01T02:07:32Z</time>
      </trkpt>
      <trkpt lat="44.58939" lon="3.62407">
        <ele>1273</ele>
        <time>2010-01-01T02:07:42Z</time>
      </trkpt>
      <trkpt lat="44.58951" lon="3.62364">
        <ele>1274</ele>
        <time>2010-01-01T02:07:48Z</time>
      </trkpt>
      <trkpt lat="44.59072" lon="3.62128">
        <ele>1281</ele>
        <time>2010-01-01T02:08:21Z</time>
      </trkpt>
      <trkpt lat="44.5908" lon="3.62047">
        <ele>1285</ele>
        <time>2010-01-01T02:08:30Z</time>
      </trkpt>
      <trkpt lat="44.59085" lon="3.62025">
        <ele>1286</ele>
        <time>2010-01-01T02:08:33Z</time>
      </trkpt>
      <trkpt lat="44.59115" lon="3.61982">
        <ele>1288</ele>
        <time>2010-01-01T02:08:40Z</time>
      </trkpt>
      <trkpt lat="44.59119" lon="3.61948">
        <ele>1289</ele>
        <time>2010-01-01T02:08:44Z</time>
      </trkpt>
      <trkpt lat="44.59119" lon="3.61897">
        <ele>1291</ele>
        <time>2010-01-01T02:08:50Z</time>
      </trkpt>
      <trkpt lat="44.59123" lon="3.61866">
        <ele>1292</ele>
        <time>2010-01-01T02:08:53Z</time>
      </trkpt>
      <trkpt lat="44.59136" lon="3.61845">
        <ele>1293</ele>
        <time>2010-01-01T02:08:56Z</time>
      </trkpt>
      <trkpt lat="44.59222" lon="3.61768">
        <ele>1297</ele>
        <time>2010-01-01T02:09:13Z</time>
      </trkpt>
      <trkpt lat="44.59312" lon="3.61618">
        <ele>1302</ele>
        <time>2010-01-01T02:09:35Z</time>
      </trkpt>
      <trkpt lat="44.59381" lon="3.61545">
        <ele>1305</ele>
        <time>2010-01-01T02:09:49Z</time>
      </trkpt>
      <trkpt lat="44.59449" lon="3.61459">
        <ele>1306</ele>
        <time>2010-01-01T02:10:03Z</time>
      </trkpt>
      <trkpt lat="44.59466" lon="3.61424">
        <ele>1307</ele>
        <time>2010-01-01T02:10:08Z</time>
      </trkpt>
      <trkpt lat="44.59514" lon="3.61296">
        <ele>1312</ele>
        <time>2010-01-01T02:10:25Z</time>
      </trkpt>
      <trkpt lat="44.59561" lon="3.61218">
        <ele>1315</ele>
        <time>2010-01-01T02:10:36Z</time>
      </trkpt>
      <trkpt lat="44.59625" lon="3.61128">
        <ele>1320</ele>
        <time>2010-01-01T02:10:51Z</time>
      </trkpt>
      <trkpt lat="44.59655" lon="3.61094">
        <ele>1323</ele>
        <time>2010-01-01T02:10:57Z</time>
      </trkpt>
      <trkpt lat="44.59728" lon="3.6097">
        <ele>1328</ele>
        <time>2010-01-01T02:11:15Z</time>
      </trkpt>
      <trkpt lat="44.59878" lon="3.60751">
        <ele>1335</ele>
        <time>2010-01-01T02:11:50Z</time>
      </trkpt>
      <trkpt lat="44.60063" lon="3.60399">
        <ele>1348</ele>
        <time>2010-01-01T02:12:40Z</time>
      </trkpt>
      <trkpt lat="44.60067" lon="3.60279">
        <ele>1354</ele>
        <time>2010-01-01T02:12:54Z</time>
      </trkpt>
      <trkpt lat="44.60076" lon="3.60253">
        <ele>1354</ele>
        <time>2010-01-01T02:12:57Z</time>
      </trkpt>
      <trkpt lat="44.60089" lon="3.60214">
        <ele>1356</ele>
        <time>2010-01-01T02:13:02Z</time>
      </trkpt>
      <trkpt lat="44.60166" lon="3.6012">
        <ele>1359</ele>
        <time>2010-01-01T02:13:18Z</time>
      </trkpt>
      <trkpt lat="44.60235" lon="3.60013">
        <ele>1365</ele>
        <time>2010-01-01T02:13:35Z</time>
      </trkpt>
      <trkpt lat="44.60308" lon="3.59875">
        <ele>1372</ele>
        <time>2010-01-01T02:13:54Z</time>
      </trkpt>
      <trkpt lat="44.60428" lon="3.59768">
        <ele>1377</ele>
        <time>2010-01-01T02:14:17Z</time>
      </trkpt>
      <trkpt lat="44.60441" lon="3.59751">
        <ele>1377</ele>
        <time>2010-01-01T02:14:20Z</time>
      </trkpt>
      <trkpt lat="44.60488" lon="3.59639">
        <ele>1383</ele>
        <time>2010-01-01T02:14:35Z</time>
      </trkpt>
      <trkpt lat="44.60509" lon="3.59605">
        <ele>1384</ele>
        <time>2010-01-01T02:14:40Z</time>
      </trkpt>
      <trkpt lat="44.60539" lon="3.59558">
        <ele>1386</ele>
        <time>2010-01-01T02:14:47Z</time>
      </trkpt>
      <trkpt lat="44.60634" lon="3.59468">
        <ele>1388</ele>
        <time>2010-01-01T02:15:05Z</time>
      </trkpt>
      <trkpt lat="44.60681" lon="3.5933">
        <ele>1393</ele>
        <time>2010-01-01T02:15:23Z</time>
      </trkpt>
      <trkpt lat="44.60701" lon="3.59264">
        <ele>1395</ele>
        <time>2010-01-01T02:15:31Z</time>
      </trkpt>
      <trkpt lat="44.60728" lon="3.59171">
        <ele>1395</ele>
        <time>2010-01-01T02:15:42Z</time>
      </trkpt>
      <trkpt lat="44.60732" lon="3.59137">
        <ele>1395</ele>
        <time>2010-01-01T02:15:46Z</time>
      </trkpt>
      <trkpt lat="44.60737" lon="3.59107">
        <ele>1395</ele>
        <time>2010-01-01T02:15:50Z</time>
      </trkpt>
      <trkpt lat="44.60707" lon="3.58948">
        <ele>1395</ele>
        <time>2010-01-01T02:16:08Z</time>
      </trkpt>
      <trkpt lat="44.60698" lon="3.58837">
        <ele>1394</ele>
        <time>2010-01-01T02:16:21Z</time>
      </trkpt>
      <trkpt lat="44.60672" lon="3.58781">
        <ele>1393</ele>
        <time>2010-01-01T02:16:29Z</time>
      </trkpt>
      <trkpt lat="44.60612" lon="3.58691">
        <ele>1391</ele>
        <time>2010-01-01T02:16:43Z</time>
      </trkpt>
      <trkpt lat="44.60595" lon="3.58648">
        <ele>1393</ele>
        <time>2010-01-01T02:16:49Z</time>
      </trkpt>
      <trkpt lat="44.60595" lon="3.58613">
        <ele>1394</ele>
        <time>2010-01-01T02:16:52Z</time>
      </trkpt>
      <trkpt lat="44.60677" lon="3.58532">
        <ele>1388</ele>
        <time>2010-01-01T02:17:08Z</time>
      </trkpt>
      <trkpt lat="44.60694" lon="3.58502">
        <ele>1387</ele>
        <time>2010-01-01T02:17:13Z</time>
      </trkpt>
      <trkpt lat="44.60702" lon="3.58476">
        <ele>1386</ele>
        <time>2010-01-01T02:17:16Z</time>
      </trkpt>
      <trkpt lat="44.60702" lon="3.58386">
        <ele>1385</ele>
        <time>2010-01-01T02:17:26Z</time>
      </trkpt>
      <trkpt lat="44.60677" lon="3.58296">
        <ele>1386</ele>
        <time>2010-01-01T02:17:37Z</time>
      </trkpt>
      <trkpt lat="44.60655" lon="3.58236">
        <ele>1386</ele>
        <time>2010-01-01T02:17:45Z</time>
      </trkpt>
      <trkpt lat="44.60655" lon="3.58167">
        <ele>1383</ele>
        <time>2010-01-01T02:17:53Z</time>
      </trkpt>
      <trkpt lat="44.6066" lon="3.58124">
        <ele>1383</ele>
        <time>2010-01-01T02:17:58Z</time>
      </trkpt>
      <trkpt lat="44.60672" lon="3.58094">
        <ele>1382</ele>
        <time>2010-01-01T02:18:02Z</time>
      </trkpt>
      <trkpt lat="44.60848" lon="3.57923">
        <ele>1387</ele>
        <time>2010-01-01T02:18:36Z</time>
      </trkpt>
      <trkpt lat="44.60986" lon="3.57777">
        <ele>1391</ele>
        <time>2010-01-01T02:19:04Z</time>
      </trkpt>
      <trkpt lat="44.61037" lon="3.57682">
        <ele>1394</ele>
        <time>2010-01-01T02:19:17Z</time>
      </trkpt>
      <trkpt lat="44.61071" lon="3.57596">
        <ele>1396</ele>
        <time>2010-01-01T02:19:29Z</time>
      </trkpt>
      <trkpt lat="44.61097" lon="3.57481">
        <ele>1398</ele>
        <time>2010-01-01T02:19:42Z</time>
      </trkpt>
      <trkpt lat="44.61106" lon="3.57356">
        <ele>1403</ele>
        <time>2010-01-01T02:19:57Z</time>
      </trkpt>
      <trkpt lat="44.61132" lon="3.5727">
        <ele>1405</ele>
        <time>2010-01-01T02:20:07Z</time>
      </trkpt>
      <trkpt lat="44.61157" lon="3.5712">
        <ele>1407</ele>
        <time>2010-01-01T02:20:25Z</time>
      </trkpt>
      <trkpt lat="44.61162" lon="3.57004">
        <ele>1409</ele>
        <time>2010-01-01T02:20:38Z</time>
      </trkpt>
      <trkpt lat="44.61153" lon="3.5688">
        <ele>1408</ele>
        <time>2010-01-01T02:20:52Z</time>
      </trkpt>
      <trkpt lat="44.61157" lon="3.56742">
        <ele>1409</ele>
        <time>2010-01-01T02:21:08Z</time>
      </trkpt>
      <trkpt lat="44.61174" lon="3.56609">
        <ele>1410</ele>
        <time>2010-01-01T02:21:23Z</time>
      </trkpt>
      <trkpt lat="44.61174" lon="3.56605">
        <ele>1410</ele>
        <time>2010-01-01T02:21:24Z</time>
      </trkpt>
      <trkpt lat="44.61183" lon="3.56532">
        <ele>1409</ele>
        <time>2010-01-01T02:21:32Z</time>
      </trkpt>
      <trkpt lat="44.61183" lon="3.56526">
        <ele>1408</ele>
        <time>2010-01-01T02:21:33Z</time>
      </trkpt>
      <trkpt lat="44.61179" lon="3.56373">
        <ele>1407</ele>
        <time>2010-01-01T02:21:50Z</time>
      </trkpt>
      <trkpt lat="44.61196" lon="3.56287">
        <ele>1405</ele>
        <time>2010-01-01T02:22:01Z</time>
      </trkpt>
      <trkpt lat="44.61187" lon="3.56245">
        <ele>1404</ele>
        <time>2010-01-01T02:22:06Z</time>
      </trkpt>
      <trkpt lat="44.61166" lon="3.56193">
        <ele>1405</ele>
        <time>2010-01-01T02:22:12Z</time>
      </trkpt>
      <trkpt lat="44.61166" lon="3.56154">
        <ele>1404</ele>
        <time>2010-01-01T02:22:17Z</time>
      </trkpt>
      <trkpt lat="44.61166" lon="3.56133">
        <ele>1403</ele>
        <time>2010-01-01T02:22:19Z</time>
      </trkpt>
      <trkpt lat="44.61192" lon="3.56017">
        <ele>1399</ele>
        <time>2010-01-01T02:22:33Z</time>
      </trkpt>
      <trkpt lat="44.61196" lon="3.55987">
        <ele>1398</ele>
        <time>2010-01-01T02:22:37Z</time>
      </trkpt>
      <trkpt lat="44.61192" lon="3.55974">
        <ele>1398</ele>
        <time>2010-01-01T02:22:38Z</time>
      </trkpt>
      <trkpt lat="44.61153" lon="3.55897">
        <ele>1397</ele>
        <time>2010-01-01T02:22:49Z</time>
      </trkpt>
      <trkpt lat="44.61144" lon="3.55863">
        <ele>1397</ele>
        <time>2010-01-01T02:22:53Z</time>
      </trkpt>
      <trkpt lat="44.6114" lon="3.55815">
        <ele>1395</ele>
        <time>2010-01-01T02:22:59Z</time>
      </trkpt>
      <trkpt lat="44.61149" lon="3.55742">
        <ele>1390</ele>
        <time>2010-01-01T02:23:07Z</time>
      </trkpt>
      <trkpt lat="44.61153" lon="3.55712">
        <ele>1389</ele>
        <time>2010-01-01T02:23:11Z</time>
      </trkpt>
      <trkpt lat="44.61183" lon="3.55657">
        <ele>1387</ele>
        <time>2010-01-01T02:23:19Z</time>
      </trkpt>
      <trkpt lat="44.61205" lon="3.55635">
        <ele>1385</ele>
        <time>2010-01-01T02:23:23Z</time>
      </trkpt>
      <trkpt lat="44.61385" lon="3.55541">
        <ele>1376</ele>
        <time>2010-01-01T02:23:54Z</time>
      </trkpt>
      <trkpt lat="44.61458" lon="3.55489">
        <ele>1374</ele>
        <time>2010-01-01T02:24:07Z</time>
      </trkpt>
      <trkpt lat="44.61479" lon="3.55455">
        <ele>1374</ele>
        <time>2010-01-01T02:24:12Z</time>
      </trkpt>
      <trkpt lat="44.61483" lon="3.55429">
        <ele>1374</ele>
        <time>2010-01-01T02:24:15Z</time>
      </trkpt>
      <trkpt lat="44.61479" lon="3.55369">
        <ele>1373</ele>
        <time>2010-01-01T02:24:22Z</time>
      </trkpt>
      <trkpt lat="44.61458" lon="3.55283">
        <ele>1368</ele>
        <time>2010-01-01T02:24:32Z</time>
      </trkpt>
      <trkpt lat="44.61453" lon="3.55232">
        <ele>1367</ele>
        <time>2010-01-01T02:24:38Z</time>
      </trkpt>
      <trkpt lat="44.61479" lon="3.55129">
        <ele>1367</ele>
        <time>2010-01-01T02:24:50Z</time>
      </trkpt>
      <trkpt lat="44.61496" lon="3.54991">
        <ele>1364</ele>
        <time>2010-01-01T02:25:06Z</time>
      </trkpt>
      <trkpt lat="44.61505" lon="3.54876">
        <ele>1358</ele>
        <time>2010-01-01T02:25:20Z</time>
      </trkpt>
      <trkpt lat="44.61556" lon="3.54631">
        <ele>1349</ele>
        <time>2010-01-01T02:25:49Z</time>
      </trkpt>
      <trkpt lat="44.61595" lon="3.54549">
        <ele>1348</ele>
        <time>2010-01-01T02:26:00Z</time>
      </trkpt>
      <trkpt lat="44.61608" lon="3.54524">
        <ele>1346</ele>
        <time>2010-01-01T02:26:03Z</time>
      </trkpt>
      <trkpt lat="44.61634" lon="3.54421">
        <ele>1340</ele>
        <time>2010-01-01T02:26:16Z</time>
      </trkpt>
      <trkpt lat="44.61642" lon="3.54399">
        <ele>1339</ele>
        <time>2010-01-01T02:26:19Z</time>
      </trkpt>
      <trkpt lat="44.61681" lon="3.54369">
        <ele>1336</ele>
        <time>2010-01-01T02:26:26Z</time>
      </trkpt>
      <trkpt lat="44.61724" lon="3.54365">
        <ele>1335</ele>
        <time>2010-01-01T02:26:33Z</time>
      </trkpt>
      <trkpt lat="44.61758" lon="3.54348">
        <ele>1333</ele>
        <time>2010-01-01T02:26:38Z</time>
      </trkpt>
      <trkpt lat="44.6178" lon="3.54309">
        <ele>1330</ele>
        <time>2010-01-01T02:26:44Z</time>
      </trkpt>
      <trkpt lat="44.61784" lon="3.54288">
        <ele>1328</ele>
        <time>2010-01-01T02:26:47Z</time>
      </trkpt>
      <trkpt lat="44.6178" lon="3.54258">
        <ele>1325</ele>
        <time>2010-01-01T02:26:50Z</time>
      </trkpt>
      <trkpt lat="44.61767" lon="3.5421">
        <ele>1320</ele>
        <time>2010-01-01T02:26:56Z</time>
      </trkpt>
      <trkpt lat="44.61698" lon="3.54103">
        <ele>1310</ele>
        <time>2010-01-01T02:27:12Z</time>
      </trkpt>
      <trkpt lat="44.61664" lon="3.5403">
        <ele>1308</ele>
        <time>2010-01-01T02:27:22Z</time>
      </trkpt>
      <trkpt lat="44.61621" lon="3.53858">
        <ele>1310</ele>
        <time>2010-01-01T02:27:43Z</time>
      </trkpt>
      <trkpt lat="44.61505" lon="3.53541">
        <ele>1308</ele>
        <time>2010-01-01T02:28:24Z</time>
      </trkpt>
      <trkpt lat="44.61462" lon="3.53429">
        <ele>1302</ele>
        <time>2010-01-01T02:28:38Z</time>
      </trkpt>
      <trkpt lat="44.61385" lon="3.53266">
        <ele>1296</ele>
        <time>2010-01-01T02:29:00Z</time>
      </trkpt>
      <trkpt lat="44.61372" lon="3.5321">
        <ele>1293</ele>
        <time>2010-01-01T02:29:07Z</time>
      </trkpt>
      <trkpt lat="44.61372" lon="3.5315">
        <ele>1290</ele>
        <time>2010-01-01T02:29:14Z</time>
      </trkpt>
      <trkpt lat="44.61376" lon="3.53039">
        <ele>1287</ele>
        <time>2010-01-01T02:29:27Z</time>
      </trkpt>
      <trkpt lat="44.61406" lon="3.52897">
        <ele>1286</ele>
        <time>2010-01-01T02:29:44Z</time>
      </trkpt>
      <trkpt lat="44.61406" lon="3.5285">
        <ele>1287</ele>
        <time>2010-01-01T02:29:49Z</time>
      </trkpt>
      <trkpt lat="44.61398" lon="3.52756">
        <ele>1287</ele>
        <time>2010-01-01T02:30:00Z</time>
      </trkpt>
      <trkpt lat="44.61389" lon="3.52704">
        <ele>1284</ele>
        <time>2010-01-01T02:30:06Z</time>
      </trkpt>
      <trkpt lat="44.61363" lon="3.52635">
        <ele>1281</ele>
        <time>2010-01-01T02:30:15Z</time>
      </trkpt>
      <trkpt lat="44.61316" lon="3.52584">
        <ele>1279</ele>
        <time>2010-01-01T02:30:24Z</time>
      </trkpt>
      <trkpt lat="44.61295" lon="3.52532">
        <ele>1274</ele>
        <time>2010-01-01T02:30:31Z</time>
      </trkpt>
      <trkpt lat="44.61273" lon="3.52464">
        <ele>1270</ele>
        <time>2010-01-01T02:30:40Z</time>
      </trkpt>
      <trkpt lat="44.61239" lon="3.52395">
        <ele>1270</ele>
        <time>2010-01-01T02:30:49Z</time>
      </trkpt>
      <trkpt lat="44.61239" lon="3.52352">
        <ele>1271</ele>
        <time>2010-01-01T02:30:54Z</time>
      </trkpt>
      <trkpt lat="44.61252" lon="3.52331">
        <ele>1271</ele>
        <time>2010-01-01T02:30:57Z</time>
      </trkpt>
      <trkpt lat="44.61277" lon="3.52296">
        <ele>1272</ele>
        <time>2010-01-01T02:31:03Z</time>
      </trkpt>
      <trkpt lat="44.61329" lon="3.52249">
        <ele>1272</ele>
        <time>2010-01-01T02:31:13Z</time>
      </trkpt>
      <trkpt lat="44.61363" lon="3.52176">
        <ele>1271</ele>
        <time>2010-01-01T02:31:23Z</time>
      </trkpt>
      <trkpt lat="44.6138" lon="3.5212">
        <ele>1269</ele>
        <time>2010-01-01T02:31:30Z</time>
      </trkpt>
      <trkpt lat="44.61389" lon="3.51966">
        <ele>1269</ele>
        <time>2010-01-01T02:31:47Z</time>
      </trkpt>
      <trkpt lat="44.61419" lon="3.51837">
        <ele>1270</ele>
        <time>2010-01-01T02:32:03Z</time>
      </trkpt>
      <trkpt lat="44.61488" lon="3.51734">
        <ele>1267</ele>
        <time>2010-01-01T02:32:19Z</time>
      </trkpt>
      <trkpt lat="44.61526" lon="3.51644">
        <ele>1262</ele>
        <time>2010-01-01T02:32:31Z</time>
      </trkpt>
      <trkpt lat="44.61604" lon="3.51404">
        <ele>1249</ele>
        <time>2010-01-01T02:33:01Z</time>
      </trkpt>
      <trkpt lat="44.61625" lon="3.51357">
        <ele>1246</ele>
        <time>2010-01-01T02:33:07Z</time>
      </trkpt>
      <trkpt lat="44.61655" lon="3.51236">
        <ele>1243</ele>
        <time>2010-01-01T02:33:22Z</time>
      </trkpt>
      <trkpt lat="44.61694" lon="3.51202">
        <ele>1239</ele>
        <time>2010-01-01T02:33:29Z</time>
      </trkpt>
      <trkpt lat="44.6175" lon="3.51181">
        <ele>1235</ele>
        <time>2010-01-01T02:33:38Z</time>
      </trkpt>
      <trkpt lat="44.61801" lon="3.51163">
        <ele>1233</ele>
        <time>2010-01-01T02:33:47Z</time>
      </trkpt>
      <trkpt lat="44.61908" lon="3.51108">
        <ele>1230</ele>
        <time>2010-01-01T02:34:05Z</time>
      </trkpt>
      <trkpt lat="44.61956" lon="3.51069">
        <ele>1229</ele>
        <time>2010-01-01T02:34:14Z</time>
      </trkpt>
      <trkpt lat="44.62037" lon="3.51026">
        <ele>1225</ele>
        <time>2010-01-01T02:34:28Z</time>
      </trkpt>
      <trkpt lat="44.62063" lon="3.51009">
        <ele>1223</ele>
        <time>2010-01-01T02:34:32Z</time>
      </trkpt>
      <trkpt lat="44.62132" lon="3.50936">
        <ele>1218</ele>
        <time>2010-01-01T02:34:46Z</time>
      </trkpt>
      <trkpt lat="44.622" lon="3.5088">
        <ele>1218</ele>
        <time>2010-01-01T02:34:59Z</time>
      </trkpt>
      <trkpt lat="44.62312" lon="3.50739">
        <ele>1218</ele>
        <time>2010-01-01T02:35:23Z</time>
      </trkpt>
      <trkpt lat="44.62376" lon="3.50674">
        <ele>1215</ele>
        <time>2010-01-01T02:35:36Z</time>
      </trkpt>
      <trkpt lat="44.62513" lon="3.50438">
        <ele>1211</ele>
        <time>2010-01-01T02:36:10Z</time>
      </trkpt>
      <trkpt lat="44.62574" lon="3.50352">
        <ele>1209</ele>
        <time>2010-01-01T02:36:24Z</time>
      </trkpt>
      <trkpt lat="44.62664" lon="3.50258">
        <ele>1207</ele>
        <time>2010-01-01T02:36:42Z</time>
      </trkpt>
      <trkpt lat="44.62719" lon="3.50142">
        <ele>1207</ele>
        <time>2010-01-01T02:36:58Z</time>
      </trkpt>
      <trkpt lat="44.62814" lon="3.50013">
        <ele>1211</ele>
        <time>2010-01-01T02:37:19Z</time>
      </trkpt>
      <trkpt lat="44.62827" lon="3.49983">
        <ele>1212</ele>
        <time>2010-01-01T02:37:23Z</time>
      </trkpt>
      <trkpt lat="44.629" lon="3.49902">
        <ele>1212</ele>
        <time>2010-01-01T02:37:38Z</time>
      </trkpt>
      <trkpt lat="44.62994" lon="3.49807">
        <ele>1213</ele>
        <time>2010-01-01T02:37:57Z</time>
      </trkpt>
      <trkpt lat="44.63011" lon="3.49773">
        <ele>1212</ele>
        <time>2010-01-01T02:38:01Z</time>
      </trkpt>
      <trkpt lat="44.63058" lon="3.49636">
        <ele>1208</ele>
        <time>2010-01-01T02:38:19Z</time>
      </trkpt>
      <trkpt lat="44.63089" lon="3.49567">
        <ele>1204</ele>
        <time>2010-01-01T02:38:28Z</time>
      </trkpt>
      <trkpt lat="44.63106" lon="3.49515">
        <ele>1203</ele>
        <time>2010-01-01T02:38:34Z</time>
      </trkpt>
      <trkpt lat="44.63101" lon="3.4946">
        <ele>1203</ele>
        <time>2010-01-01T02:38:41Z</time>
      </trkpt>
      <trkpt lat="44.63097" lon="3.49434">
        <ele>1202</ele>
        <time>2010-01-01T02:38:44Z</time>
      </trkpt>
      <trkpt lat="44.63106" lon="3.49421">
        <ele>1204</ele>
        <time>2010-01-01T02:38:46Z</time>
      </trkpt>
      <trkpt lat="44.63106" lon="3.49314">
        <ele>1204</ele>
        <time>2010-01-01T02:38:58Z</time>
      </trkpt>
      <trkpt lat="44.63114" lon="3.49288">
        <ele>1204</ele>
        <time>2010-01-01T02:39:01Z</time>
      </trkpt>
      <trkpt lat="44.63123" lon="3.49262">
        <ele>1203</ele>
        <time>2010-01-01T02:39:05Z</time>
      </trkpt>
      <trkpt lat="44.63157" lon="3.49215">
        <ele>1203</ele>
        <time>2010-01-01T02:39:12Z</time>
      </trkpt>
      <trkpt lat="44.63243" lon="3.49172">
        <ele>1201</ele>
        <time>2010-01-01T02:39:27Z</time>
      </trkpt>
      <trkpt lat="44.63256" lon="3.49164">
        <ele>1200</ele>
        <time>2010-01-01T02:39:29Z</time>
      </trkpt>
      <trkpt lat="44.63269" lon="3.49142">
        <ele>1200</ele>
        <time>2010-01-01T02:39:32Z</time>
      </trkpt>
      <trkpt lat="44.63269" lon="3.49095">
        <ele>1197</ele>
        <time>2010-01-01T02:39:38Z</time>
      </trkpt>
      <trkpt lat="44.63213" lon="3.48945">
        <ele>1188</ele>
        <time>2010-01-01T02:39:57Z</time>
      </trkpt>
      <trkpt lat="44.63217" lon="3.48863">
        <ele>1185</ele>
        <time>2010-01-01T02:40:06Z</time>
      </trkpt>
      <trkpt lat="44.63243" lon="3.4879">
        <ele>1183</ele>
        <time>2010-01-01T02:40:16Z</time>
      </trkpt>
      <trkpt lat="44.63247" lon="3.4876">
        <ele>1182</ele>
        <time>2010-01-01T02:40:19Z</time>
      </trkpt>
      <trkpt lat="44.63256" lon="3.4864">
        <ele>1177</ele>
        <time>2010-01-01T02:40:33Z</time>
      </trkpt>
      <trkpt lat="44.6332" lon="3.48541">
        <ele>1174</ele>
        <time>2010-01-01T02:40:48Z</time>
      </trkpt>
      <trkpt lat="44.63329" lon="3.48524">
        <ele>1173</ele>
        <time>2010-01-01T02:40:50Z</time>
      </trkpt>
      <trkpt lat="44.63346" lon="3.48468">
        <ele>1173</ele>
        <time>2010-01-01T02:40:57Z</time>
      </trkpt>
      <trkpt lat="44.63346" lon="3.4846">
        <ele>1173</ele>
        <time>2010-01-01T02:40:58Z</time>
      </trkpt>
      <trkpt lat="44.63342" lon="3.48417">
        <ele>1173</ele>
        <time>2010-01-01T02:41:03Z</time>
      </trkpt>
      <trkpt lat="44.63316" lon="3.48382">
        <ele>1172</ele>
        <time>2010-01-01T02:41:09Z</time>
      </trkpt>
      <trkpt lat="44.63303" lon="3.48365">
        <ele>1172</ele>
        <time>2010-01-01T02:41:12Z</time>
      </trkpt>
      <trkpt lat="44.63239" lon="3.48335">
        <ele>1167</ele>
        <time>2010-01-01T02:41:23Z</time>
      </trkpt>
      <trkpt lat="44.63213" lon="3.4831">
        <ele>1163</ele>
        <time>2010-01-01T02:41:28Z</time>
      </trkpt>
      <trkpt lat="44.63196" lon="3.48292">
        <ele>1161</ele>
        <time>2010-01-01T02:41:31Z</time>
      </trkpt>
      <trkpt lat="44.63183" lon="3.48258">
        <ele>1160</ele>
        <time>2010-01-01T02:41:36Z</time>
      </trkpt>
      <trkpt lat="44.632" lon="3.48176">
        <ele>1157</ele>
        <time>2010-01-01T02:41:45Z</time>
      </trkpt>
      <trkpt lat="44.63204" lon="3.48142">
        <ele>1156</ele>
        <time>2010-01-01T02:41:49Z</time>
      </trkpt>
      <trkpt lat="44.632" lon="3.48104">
        <ele>1153</ele>
        <time>2010-01-01T02:41:54Z</time>
      </trkpt>
      <trkpt lat="44.632" lon="3.48061">
        <ele>1151</ele>
        <time>2010-01-01T02:41:59Z</time>
      </trkpt>
      <trkpt lat="44.632" lon="3.48052">
        <ele>1151</ele>
        <time>2010-01-01T02:42:00Z</time>
      </trkpt>
      <trkpt lat="44.63204" lon="3.48001">
        <ele>1148</ele>
        <time>2010-01-01T02:42:05Z</time>
      </trkpt>
      <trkpt lat="44.63209" lon="3.47988">
        <ele>1147</ele>
        <time>2010-01-01T02:42:07Z</time>
      </trkpt>
      <trkpt lat="44.6323" lon="3.47966">
        <ele>1146</ele>
        <time>2010-01-01T02:42:11Z</time>
      </trkpt>
      <trkpt lat="44.63346" lon="3.47923">
        <ele>1143</ele>
        <time>2010-01-01T02:42:30Z</time>
      </trkpt>
      <trkpt lat="44.63376" lon="3.4791">
        <ele>1141</ele>
        <time>2010-01-01T02:42:36Z</time>
      </trkpt>
      <trkpt lat="44.6338" lon="3.47898">
        <ele>1140</ele>
        <time>2010-01-01T02:42:37Z</time>
      </trkpt>
      <trkpt lat="44.63385" lon="3.4788">
        <ele>1139</ele>
        <time>2010-01-01T02:42:39Z</time>
      </trkpt>
      <trkpt lat="44.63389" lon="3.47855">
        <ele>1138</ele>
        <time>2010-01-01T02:42:42Z</time>
      </trkpt>
      <trkpt lat="44.63402" lon="3.47855">
        <ele>1138</ele>
        <time>2010-01-01T02:42:44Z</time>
      </trkpt>
      <trkpt lat="44.63419" lon="3.47837">
        <ele>1137</ele>
        <time>2010-01-01T02:42:48Z</time>
      </trkpt>
      <trkpt lat="44.63436" lon="3.4782">
        <ele>1138</ele>
        <time>2010-01-01T02:42:51Z</time>
      </trkpt>
      <trkpt lat="44.6344" lon="3.47807">
        <ele>1137</ele>
        <time>2010-01-01T02:42:53Z</time>
      </trkpt>
      <trkpt lat="44.63462" lon="3.47756">
        <ele>1135</ele>
        <time>2010-01-01T02:42:59Z</time>
      </trkpt>
      <trkpt lat="44.63466" lon="3.47752">
        <ele>1135</ele>
        <time>2010-01-01T02:43:00Z</time>
      </trkpt>
      <trkpt lat="44.63492" lon="3.477">
        <ele>1132</ele>
        <time>2010-01-01T02:43:07Z</time>
      </trkpt>
      <trkpt lat="44.63513" lon="3.47661">
        <ele>1130</ele>
        <time>2010-01-01T02:43:13Z</time>
      </trkpt>
      <trkpt lat="44.63539" lon="3.4764">
        <ele>1128</ele>
        <time>2010-01-01T02:43:18Z</time>
      </trkpt>
      <trkpt lat="44.63552" lon="3.47631">
        <ele>1127</ele>
        <time>2010-01-01T02:43:20Z</time>
      </trkpt>
      <trkpt lat="44.63621" lon="3.47589">
        <ele>1122</ele>
        <time>2010-01-01T02:43:32Z</time>
      </trkpt>
      <trkpt lat="44.63659" lon="3.47576">
        <ele>1119</ele>
        <time>2010-01-01T02:43:39Z</time>
      </trkpt>
      <trkpt lat="44.63685" lon="3.47597">
        <ele>1118</ele>
        <time>2010-01-01T02:43:43Z</time>
      </trkpt>
      <trkpt lat="44.63732" lon="3.47704">
        <ele>1115</ele>
        <time>2010-01-01T02:43:58Z</time>
      </trkpt>
      <trkpt lat="44.63745" lon="3.47717">
        <ele>1112</ele>
        <time>2010-01-01T02:44:00Z</time>
      </trkpt>
      <trkpt lat="44.63801" lon="3.47764">
        <ele>1111</ele>
        <time>2010-01-01T02:44:11Z</time>
      </trkpt>
      <trkpt lat="44.63809" lon="3.47764">
        <ele>1110</ele>
        <time>2010-01-01T02:44:12Z</time>
      </trkpt>
      <trkpt lat="44.63822" lon="3.4776">
        <ele>1108</ele>
        <time>2010-01-01T02:44:14Z</time>
      </trkpt>
      <trkpt lat="44.63852" lon="3.47734">
        <ele>1107</ele>
        <time>2010-01-01T02:44:20Z</time>
      </trkpt>
      <trkpt lat="44.63865" lon="3.47722">
        <ele>1108</ele>
        <time>2010-01-01T02:44:22Z</time>
      </trkpt>
      <trkpt lat="44.63882" lon="3.47696">
        <ele>1110</ele>
        <time>2010-01-01T02:44:26Z</time>
      </trkpt>
      <trkpt lat="44.63891" lon="3.477">
        <ele>1111</ele>
        <time>2010-01-01T02:44:28Z</time>
      </trkpt>
      <trkpt lat="44.63904" lon="3.47709">
        <ele>1111</ele>
        <time>2010-01-01T02:44:30Z</time>
      </trkpt>
      <trkpt lat="44.63938" lon="3.47786">
        <ele>1112</ele>
        <time>2010-01-01T02:44:40Z</time>
      </trkpt>
      <trkpt lat="44.63964" lon="3.47833">
        <ele>1114</ele>
        <time>2010-01-01T02:44:47Z</time>
      </trkpt>
      <trkpt lat="44.63977" lon="3.4788">
        <ele>1113</ele>
        <time>2010-01-01T02:44:53Z</time>
      </trkpt>
      <trkpt lat="44.6399" lon="3.47902">
        <ele>1113</ele>
        <time>2010-01-01T02:44:56Z</time>
      </trkpt>
      <trkpt lat="44.63998" lon="3.4791">
        <ele>1113</ele>
        <time>2010-01-01T02:44:58Z</time>
      </trkpt>
      <trkpt lat="44.64011" lon="3.47906">
        <ele>1114</ele>
        <time>2010-01-01T02:45:00Z</time>
      </trkpt>
      <trkpt lat="44.64028" lon="3.47889">
        <ele>1117</ele>
        <time>2010-01-01T02:45:03Z</time>
      </trkpt>
      <trkpt lat="44.64037" lon="3.47876">
        <ele>1118</ele>
        <time>2010-01-01T02:45:05Z</time>
      </trkpt>
      <trkpt lat="44.64041" lon="3.47863">
        <ele>1119</ele>
        <time>2010-01-01T02:45:07Z</time>
      </trkpt>
      <trkpt lat="44.64058" lon="3.4785">
        <ele>1121</ele>
        <time>2010-01-01T02:45:10Z</time>
      </trkpt>
      <trkpt lat="44.6411" lon="3.47842">
        <ele>1128</ele>
        <time>2010-01-01T02:45:18Z</time>
      </trkpt>
      <trkpt lat="44.64123" lon="3.47846">
        <ele>1129</ele>
        <time>2010-01-01T02:45:21Z</time>
      </trkpt>
      <trkpt lat="44.64136" lon="3.47863">
        <ele>1130</ele>
        <time>2010-01-01T02:45:23Z</time>
      </trkpt>
      <trkpt lat="44.64157" lon="3.47936">
        <ele>1129</ele>
        <time>2010-01-01T02:45:32Z</time>
      </trkpt>
      <trkpt lat="44.64196" lon="3.47983">
        <ele>1133</ele>
        <time>2010-01-01T02:45:41Z</time>
      </trkpt>
      <trkpt lat="44.642" lon="3.48039">
        <ele>1131</ele>
        <time>2010-01-01T02:45:47Z</time>
      </trkpt>
      <trkpt lat="44.64209" lon="3.48073">
        <ele>1132</ele>
        <time>2010-01-01T02:45:51Z</time>
      </trkpt>
      <trkpt lat="44.64252" lon="3.48104">
        <ele>1139</ele>
        <time>2010-01-01T02:45:59Z</time>
      </trkpt>
      <trkpt lat="44.64264" lon="3.48116">
        <ele>1139</ele>
        <time>2010-01-01T02:46:01Z</time>
      </trkpt>
      <trkpt lat="44.64303" lon="3.48189">
        <ele>1141</ele>
        <time>2010-01-01T02:46:12Z</time>
      </trkpt>
      <trkpt lat="44.6432" lon="3.48215">
        <ele>1141</ele>
        <time>2010-01-01T02:46:16Z</time>
      </trkpt>
      <trkpt lat="44.6435" lon="3.48224">
        <ele>1145</ele>
        <time>2010-01-01T02:46:21Z</time>
      </trkpt>
      <trkpt lat="44.6438" lon="3.48219">
        <ele>1148</ele>
        <time>2010-01-01T02:46:25Z</time>
      </trkpt>
      <trkpt lat="44.64389" lon="3.48228">
        <ele>1149</ele>
        <time>2010-01-01T02:46:27Z</time>
      </trkpt>
      <trkpt lat="44.6441" lon="3.48301">
        <ele>1151</ele>
        <time>2010-01-01T02:46:36Z</time>
      </trkpt>
      <trkpt lat="44.64415" lon="3.48331">
        <ele>1152</ele>
        <time>2010-01-01T02:46:40Z</time>
      </trkpt>
      <trkpt lat="44.64415" lon="3.48378">
        <ele>1154</ele>
        <time>2010-01-01T02:46:45Z</time>
      </trkpt>
      <trkpt lat="44.64393" lon="3.48451">
        <ele>1153</ele>
        <time>2010-01-01T02:46:54Z</time>
      </trkpt>
      <trkpt lat="44.64393" lon="3.4849">
        <ele>1154</ele>
        <time>2010-01-01T02:46:58Z</time>
      </trkpt>
      <trkpt lat="44.64406" lon="3.48507">
        <ele>1156</ele>
        <time>2010-01-01T02:47:01Z</time>
      </trkpt>
      <trkpt lat="44.64423" lon="3.4852">
        <ele>1157</ele>
        <time>2010-01-01T02:47:04Z</time>
      </trkpt>
      <trkpt lat="44.64569" lon="3.48558">
        <ele>1170</ele>
        <time>2010-01-01T02:47:28Z</time>
      </trkpt>
      <trkpt lat="44.64869" lon="3.48546">
        <ele>1175</ele>
        <time>2010-01-01T02:48:16Z</time>
      </trkpt>
      <trkpt lat="44.65045" lon="3.48485">
        <ele>1175</ele>
        <time>2010-01-01T02:48:45Z</time>
      </trkpt>
      <trkpt lat="44.6508" lon="3.48485">
        <ele>1175</ele>
        <time>2010-01-01T02:48:51Z</time>
      </trkpt>
      <trkpt lat="44.65161" lon="3.48511">
        <ele>1175</ele>
        <time>2010-01-01T02:49:04Z</time>
      </trkpt>
      <trkpt lat="44.65226" lon="3.4852">
        <ele>1179</ele>
        <time>2010-01-01T02:49:14Z</time>
      </trkpt>
      <trkpt lat="44.65234" lon="3.48516">
        <ele>1179</ele>
        <time>2010-01-01T02:49:16Z</time>
      </trkpt>
      <trkpt lat="44.65277" lon="3.4846">
        <ele>1174</ele>
        <time>2010-01-01T02:49:25Z</time>
      </trkpt>
      <trkpt lat="44.6529" lon="3.48451">
        <ele>1173</ele>
        <time>2010-01-01T02:49:28Z</time>
      </trkpt>
      <trkpt lat="44.6532" lon="3.48455">
        <ele>1175</ele>
        <time>2010-01-01T02:49:32Z</time>
      </trkpt>
      <trkpt lat="44.65354" lon="3.48477">
        <ele>1179</ele>
        <time>2010-01-01T02:49:38Z</time>
      </trkpt>
      <trkpt lat="44.65376" lon="3.48468">
        <ele>1180</ele>
        <time>2010-01-01T02:49:42Z</time>
      </trkpt>
      <trkpt lat="44.65393" lon="3.48425">
        <ele>1175</ele>
        <time>2010-01-01T02:49:48Z</time>
      </trkpt>
      <trkpt lat="44.65415" lon="3.48404">
        <ele>1175</ele>
        <time>2010-01-01T02:49:52Z</time>
      </trkpt>
      <trkpt lat="44.65445" lon="3.48395">
        <ele>1174</ele>
        <time>2010-01-01T02:49:57Z</time>
      </trkpt>
      <trkpt lat="44.65462" lon="3.48408">
        <ele>1176</ele>
        <time>2010-01-01T02:50:00Z</time>
      </trkpt>
      <trkpt lat="44.65479" lon="3.4843">
        <ele>1178</ele>
        <time>2010-01-01T02:50:03Z</time>
      </trkpt>
      <trkpt lat="44.65487" lon="3.48451">
        <ele>1179</ele>
        <time>2010-01-01T02:50:06Z</time>
      </trkpt>
      <trkpt lat="44.65492" lon="3.48524">
        <ele>1184</ele>
        <time>2010-01-01T02:50:15Z</time>
      </trkpt>
      <trkpt lat="44.6553" lon="3.48614">
        <ele>1181</ele>
        <time>2010-01-01T02:50:27Z</time>
      </trkpt>
      <trkpt lat="44.65539" lon="3.48726">
        <ele>1185</ele>
        <time>2010-01-01T02:50:39Z</time>
      </trkpt>
      <trkpt lat="44.65582" lon="3.48816">
        <ele>1185</ele>
        <time>2010-01-01T02:50:52Z</time>
      </trkpt>
      <trkpt lat="44.65681" lon="3.48863">
        <ele>1184</ele>
        <time>2010-01-01T02:51:08Z</time>
      </trkpt>
      <trkpt lat="44.65728" lon="3.4891">
        <ele>1186</ele>
        <time>2010-01-01T02:51:18Z</time>
      </trkpt>
      <trkpt lat="44.65736" lon="3.48915">
        <ele>1186</ele>
        <time>2010-01-01T02:51:19Z</time>
      </trkpt>
      <trkpt lat="44.65762" lon="3.48906">
        <ele>1187</ele>
        <time>2010-01-01T02:51:23Z</time>
      </trkpt>
      <trkpt lat="44.65771" lon="3.48885">
        <ele>1187</ele>
        <time>2010-01-01T02:51:26Z</time>
      </trkpt>
      <trkpt lat="44.65771" lon="3.48777">
        <ele>1184</ele>
        <time>2010-01-01T02:51:38Z</time>
      </trkpt>
      <trkpt lat="44.65775" lon="3.48752">
        <ele>1184</ele>
        <time>2010-01-01T02:51:41Z</time>
      </trkpt>
      <trkpt lat="44.65784" lon="3.48739">
        <ele>1185</ele>
        <time>2010-01-01T02:51:43Z</time>
      </trkpt>
      <trkpt lat="44.65809" lon="3.48713">
        <ele>1186</ele>
        <time>2010-01-01T02:51:49Z</time>
      </trkpt>
      <trkpt lat="44.65839" lon="3.48683">
        <ele>1186</ele>
        <time>2010-01-01T02:51:54Z</time>
      </trkpt>
      <trkpt lat="44.65865" lon="3.4867">
        <ele>1186</ele>
        <time>2010-01-01T02:51:59Z</time>
      </trkpt>
      <trkpt lat="44.65972" lon="3.48644">
        <ele>1186</ele>
        <time>2010-01-01T02:52:16Z</time>
      </trkpt>
      <trkpt lat="44.66024" lon="3.48649">
        <ele>1186</ele>
        <time>2010-01-01T02:52:24Z</time>
      </trkpt>
      <trkpt lat="44.66118" lon="3.48683">
        <ele>1188</ele>
        <time>2010-01-01T02:52:40Z</time>
      </trkpt>
      <trkpt lat="44.66226" lon="3.48687">
        <ele>1186</ele>
        <time>2010-01-01T02:52:57Z</time>
      </trkpt>
      <trkpt lat="44.66316" lon="3.4876">
        <ele>1188</ele>
        <time>2010-01-01T02:53:14Z</time>
      </trkpt>
      <trkpt lat="44.66333" lon="3.48769">
        <ele>1187</ele>
        <time>2010-01-01T02:53:17Z</time>
      </trkpt>
      <trkpt lat="44.6635" lon="3.48773">
        <ele>1188</ele>
        <time>2010-01-01T02:53:20Z</time>
      </trkpt>
      <trkpt lat="44.66462" lon="3.4876">
        <ele>1184</ele>
        <time>2010-01-01T02:53:38Z</time>
      </trkpt>
      <trkpt lat="44.66522" lon="3.48794">
        <ele>1188</ele>
        <time>2010-01-01T02:53:48Z</time>
      </trkpt>
      <trkpt lat="44.66586" lon="3.4879">
        <ele>1187</ele>
        <time>2010-01-01T02:53:58Z</time>
      </trkpt>
      <trkpt lat="44.66629" lon="3.48803">
        <ele>1187</ele>
        <time>2010-01-01T02:54:05Z</time>
      </trkpt>
      <trkpt lat="44.66693" lon="3.48885">
        <ele>1192</ele>
        <time>2010-01-01T02:54:19Z</time>
      </trkpt>
      <trkpt lat="44.66762" lon="3.48949">
        <ele>1192</ele>
        <time>2010-01-01T02:54:32Z</time>
      </trkpt>
      <trkpt lat="44.66809" lon="3.49065">
        <ele>1198</ele>
        <time>2010-01-01T02:54:48Z</time>
      </trkpt>
      <trkpt lat="44.66835" lon="3.49112">
        <ele>1198</ele>
        <time>2010-01-01T02:54:54Z</time>
      </trkpt>
      <trkpt lat="44.66865" lon="3.49125">
        <ele>1198</ele>
        <time>2010-01-01T02:54:59Z</time>
      </trkpt>
      <trkpt lat="44.66874" lon="3.49121">
        <ele>1197</ele>
        <time>2010-01-01T02:55:01Z</time>
      </trkpt>
      <trkpt lat="44.66878" lon="3.49138">
        <ele>1197</ele>
        <time>2010-01-01T02:55:03Z</time>
      </trkpt>
      <trkpt lat="44.66903" lon="3.49196">
        <ele>1195</ele>
        <time>2010-01-01T02:55:11Z</time>
      </trkpt>
      <trkpt lat="44.66908" lon="3.49236">
        <ele>1196</ele>
        <time>2010-01-01T02:55:15Z</time>
      </trkpt>
      <trkpt lat="44.66917" lon="3.49348">
        <ele>1200</ele>
        <time>2010-01-01T02:55:28Z</time>
      </trkpt>
      <trkpt lat="44.66895" lon="3.49468">
        <ele>1205</ele>
        <time>2010-01-01T02:55:42Z</time>
      </trkpt>
      <trkpt lat="44.66895" lon="3.49511">
        <ele>1206</ele>
        <time>2010-01-01T02:55:47Z</time>
      </trkpt>
      <trkpt lat="44.66899" lon="3.49571">
        <ele>1208</ele>
        <time>2010-01-01T02:55:54Z</time>
      </trkpt>
      <trkpt lat="44.66921" lon="3.4973">
        <ele>1216</ele>
        <time>2010-01-01T02:56:12Z</time>
      </trkpt>
      <trkpt lat="44.66951" lon="3.49893">
        <ele>1220</ele>
        <time>2010-01-01T02:56:32Z</time>
      </trkpt>
      <trkpt lat="44.66955" lon="3.5">
        <ele>1223</ele>
        <time>2010-01-01T02:56:44Z</time>
      </trkpt>
      <trkpt lat="44.66947" lon="3.50043">
        <ele>1224</ele>
        <time>2010-01-01T02:56:49Z</time>
      </trkpt>
      <trkpt lat="44.66925" lon="3.50125">
        <ele>1225</ele>
        <time>2010-01-01T02:56:59Z</time>
      </trkpt>
      <trkpt lat="44.66908" lon="3.50172">
        <ele>1224</ele>
        <time>2010-01-01T02:57:05Z</time>
      </trkpt>
      <trkpt lat="44.66852" lon="3.50275">
        <ele>1221</ele>
        <time>2010-01-01T02:57:20Z</time>
      </trkpt>
      <trkpt lat="44.66826" lon="3.50301">
        <ele>1221</ele>
        <time>2010-01-01T02:57:25Z</time>
      </trkpt>
      <trkpt lat="44.66745" lon="3.50365">
        <ele>1223</ele>
        <time>2010-01-01T02:57:40Z</time>
      </trkpt>
      <trkpt lat="44.66625" lon="3.50477">
        <ele>1223</ele>
        <time>2010-01-01T02:58:03Z</time>
      </trkpt>
      <trkpt lat="44.6659" lon="3.50528">
        <ele>1223</ele>
        <time>2010-01-01T02:58:11Z</time>
      </trkpt>
      <trkpt lat="44.66586" lon="3.50554">
        <ele>1223</ele>
        <time>2010-01-01T02:58:14Z</time>
      </trkpt>
      <trkpt lat="44.66582" lon="3.50597">
        <ele>1222</ele>
        <time>2010-01-01T02:58:19Z</time>
      </trkpt>
      <trkpt lat="44.66603" lon="3.50666">
        <ele>1223</ele>
        <time>2010-01-01T02:58:27Z</time>
      </trkpt>
      <trkpt lat="44.66595" lon="3.50713">
        <ele>1227</ele>
        <time>2010-01-01T02:58:33Z</time>
      </trkpt>
      <trkpt lat="44.6659" lon="3.50721">
        <ele>1228</ele>
        <time>2010-01-01T02:58:34Z</time>
      </trkpt>
      <trkpt lat="44.66547" lon="3.5076">
        <ele>1230</ele>
        <time>2010-01-01T02:58:42Z</time>
      </trkpt>
      <trkpt lat="44.6653" lon="3.50777">
        <ele>1229</ele>
        <time>2010-01-01T02:58:45Z</time>
      </trkpt>
      <trkpt lat="44.66522" lon="3.5079">
        <ele>1229</ele>
        <time>2010-01-01T02:58:47Z</time>
      </trkpt>
      <trkpt lat="44.66526" lon="3.50807">
        <ele>1230</ele>
        <time>2010-01-01T02:58:50Z</time>
      </trkpt>
      <trkpt lat="44.66539" lon="3.50837">
        <ele>1231</ele>
        <time>2010-01-01T02:58:54Z</time>
      </trkpt>
      <trkpt lat="44.66556" lon="3.50906">
        <ele>1233</ele>
        <time>2010-01-01T02:59:02Z</time>
      </trkpt>
      <trkpt lat="44.6659" lon="3.51013">
        <ele>1236</ele>
        <time>2010-01-01T02:59:15Z</time>
      </trkpt>
      <trkpt lat="44.66599" lon="3.51095">
        <ele>1241</ele>
        <time>2010-01-01T02:59:25Z</time>
      </trkpt>
      <trkpt lat="44.66595" lon="3.51275">
        <ele>1254</ele>
        <time>2010-01-01T02:59:45Z</time>
      </trkpt>
      <trkpt lat="44.66599" lon="3.51305">
        <ele>1257</ele>
        <time>2010-01-01T02:59:49Z</time>
      </trkpt>
      <trkpt lat="44.66719" lon="3.51558">
        <ele>1272</ele>
        <time>2010-01-01T03:00:23Z</time>
      </trkpt>
      <trkpt lat="44.66736" lon="3.51575">
        <ele>1273</ele>
        <time>2010-01-01T03:00:27Z</time>
      </trkpt>
      <trkpt lat="44.66891" lon="3.51674">
        <ele>1288</ele>
        <time>2010-01-01T03:00:54Z</time>
      </trkpt>
      <trkpt lat="44.66934" lon="3.51717">
        <ele>1295</ele>
        <time>2010-01-01T03:01:02Z</time>
      </trkpt>
      <trkpt lat="44.6699" lon="3.5179">
        <ele>1301</ele>
        <time>2010-01-01T03:01:15Z</time>
      </trkpt>
      <trkpt lat="44.67002" lon="3.51811">
        <ele>1302</ele>
        <time>2010-01-01T03:01:18Z</time>
      </trkpt>
      <trkpt lat="44.67015" lon="3.51854">
        <ele>1303</ele>
        <time>2010-01-01T03:01:23Z</time>
      </trkpt>
      <trkpt lat="44.67011" lon="3.51902">
        <ele>1306</ele>
        <time>2010-01-01T03:01:28Z</time>
      </trkpt>
      <trkpt lat="44.66998" lon="3.51932">
        <ele>1310</ele>
        <time>2010-01-01T03:01:32Z</time>
      </trkpt>
      <trkpt lat="44.66959" lon="3.52013">
        <ele>1319</ele>
        <time>2010-01-01T03:01:44Z</time>
      </trkpt>
      <trkpt lat="44.66959" lon="3.52039">
        <ele>1321</ele>
        <time>2010-01-01T03:01:47Z</time>
      </trkpt>
      <trkpt lat="44.66968" lon="3.52065">
        <ele>1322</ele>
        <time>2010-01-01T03:01:50Z</time>
      </trkpt>
      <trkpt lat="44.6702" lon="3.52125">
        <ele>1325</ele>
        <time>2010-01-01T03:02:00Z</time>
      </trkpt>
      <trkpt lat="44.67101" lon="3.52219">
        <ele>1330</ele>
        <time>2010-01-01T03:02:17Z</time>
      </trkpt>
      <trkpt lat="44.6714" lon="3.52339">
        <ele>1339</ele>
        <time>2010-01-01T03:02:32Z</time>
      </trkpt>
      <trkpt lat="44.67144" lon="3.52412">
        <ele>1344</ele>
        <time>2010-01-01T03:02:41Z</time>
      </trkpt>
      <trkpt lat="44.67148" lon="3.52472">
        <ele>1347</ele>
        <time>2010-01-01T03:02:48Z</time>
      </trkpt>
      <trkpt lat="44.67144" lon="3.52515">
        <ele>1348</ele>
        <time>2010-01-01T03:02:53Z</time>
      </trkpt>
      <trkpt lat="44.6714" lon="3.52537">
        <ele>1348</ele>
        <time>2010-01-01T03:02:55Z</time>
      </trkpt>
      <trkpt lat="44.67131" lon="3.52558">
        <ele>1349</ele>
        <time>2010-01-01T03:02:58Z</time>
      </trkpt>
      <trkpt lat="44.67054" lon="3.52635">
        <ele>1361</ele>
        <time>2010-01-01T03:03:13Z</time>
      </trkpt>
      <trkpt lat="44.67032" lon="3.52661">
        <ele>1365</ele>
        <time>2010-01-01T03:03:18Z</time>
      </trkpt>
      <trkpt lat="44.67007" lon="3.52751">
        <ele>1368</ele>
        <time>2010-01-01T03:03:29Z</time>
      </trkpt>
      <trkpt lat="44.6699" lon="3.5279">
        <ele>1371</ele>
        <time>2010-01-01T03:03:34Z</time>
      </trkpt>
      <trkpt lat="44.66951" lon="3.52837">
        <ele>1376</ele>
        <time>2010-01-01T03:03:42Z</time>
      </trkpt>
      <trkpt lat="44.66934" lon="3.52876">
        <ele>1378</ele>
        <time>2010-01-01T03:03:47Z</time>
      </trkpt>
      <trkpt lat="44.66917" lon="3.5294">
        <ele>1379</ele>
        <time>2010-01-01T03:03:55Z</time>
      </trkpt>
      <trkpt lat="44.66908" lon="3.5297">
        <ele>1381</ele>
        <time>2010-01-01T03:03:59Z</time>
      </trkpt>
      <trkpt lat="44.66852" lon="3.53043">
        <ele>1385</ele>
        <time>2010-01-01T03:04:11Z</time>
      </trkpt>
      <trkpt lat="44.66801" lon="3.5309">
        <ele>1390</ele>
        <time>2010-01-01T03:04:21Z</time>
      </trkpt>
      <trkpt lat="44.66766" lon="3.53133">
        <ele>1394</ele>
        <time>2010-01-01T03:04:28Z</time>
      </trkpt>
      <trkpt lat="44.66749" lon="3.53189">
        <ele>1399</ele>
        <time>2010-01-01T03:04:35Z</time>
      </trkpt>
      <trkpt lat="44.66745" lon="3.5324">
        <ele>1402</ele>
        <time>2010-01-01T03:04:41Z</time>
      </trkpt>
      <trkpt lat="44.66736" lon="3.53279">
        <ele>1404</ele>
        <time>2010-01-01T03:04:46Z</time>
      </trkpt>
      <trkpt lat="44.66736" lon="3.53313">
        <ele>1405</ele>
        <time>2010-01-01T03:04:49Z</time>
      </trkpt>
      <trkpt lat="44.66749" lon="3.53399">
        <ele>1408</ele>
        <time>2010-01-01T03:04:59Z</time>
      </trkpt>
      <trkpt lat="44.66766" lon="3.53468">
        <ele>1412</ele>
        <time>2010-01-01T03:05:08Z</time>
      </trkpt>
      <trkpt lat="44.66784" lon="3.53687">
        <ele>1425</ele>
        <time>2010-01-01T03:05:33Z</time>
      </trkpt>
      <trkpt lat="44.66749" lon="3.53794">
        <ele>1431</ele>
        <time>2010-01-01T03:05:46Z</time>
      </trkpt>
      <trkpt lat="44.66745" lon="3.53837">
        <ele>1433</ele>
        <time>2010-01-01T03:05:51Z</time>
      </trkpt>
      <trkpt lat="44.66745" lon="3.53906">
        <ele>1436</ele>
        <time>2010-01-01T03:05:59Z</time>
      </trkpt>
      <trkpt lat="44.66741" lon="3.53944">
        <ele>1438</ele>
        <time>2010-01-01T03:06:03Z</time>
      </trkpt>
      <trkpt lat="44.66736" lon="3.53979">
        <ele>1440</ele>
        <time>2010-01-01T03:06:07Z</time>
      </trkpt>
      <trkpt lat="44.66741" lon="3.54043">
        <ele>1444</ele>
        <time>2010-01-01T03:06:15Z</time>
      </trkpt>
      <trkpt lat="44.66788" lon="3.54223">
        <ele>1451</ele>
        <time>2010-01-01T03:06:37Z</time>
      </trkpt>
      <trkpt lat="44.66796" lon="3.54296">
        <ele>1453</ele>
        <time>2010-01-01T03:06:45Z</time>
      </trkpt>
      <trkpt lat="44.66796" lon="3.54331">
        <ele>1454</ele>
        <time>2010-01-01T03:06:49Z</time>
      </trkpt>
      <trkpt lat="44.66796" lon="3.54386">
        <ele>1452</ele>
        <time>2010-01-01T03:06:55Z</time>
      </trkpt>
      <trkpt lat="44.66775" lon="3.54442">
        <ele>1449</ele>
        <time>2010-01-01T03:07:03Z</time>
      </trkpt>
      <trkpt lat="44.66741" lon="3.54464">
        <ele>1447</ele>
        <time>2010-01-01T03:07:09Z</time>
      </trkpt>
      <trkpt lat="44.66689" lon="3.54468">
        <ele>1449</ele>
        <time>2010-01-01T03:07:17Z</time>
      </trkpt>
      <trkpt lat="44.66668" lon="3.54472">
        <ele>1450</ele>
        <time>2010-01-01T03:07:20Z</time>
      </trkpt>
      <trkpt lat="44.66659" lon="3.54485">
        <ele>1450</ele>
        <time>2010-01-01T03:07:22Z</time>
      </trkpt>
      <trkpt lat="44.66659" lon="3.54524">
        <ele>1449</ele>
        <time>2010-01-01T03:07:27Z</time>
      </trkpt>
      <trkpt lat="44.66672" lon="3.54549">
        <ele>1448</ele>
        <time>2010-01-01T03:07:30Z</time>
      </trkpt>
      <trkpt lat="44.66715" lon="3.54648">
        <ele>1447</ele>
        <time>2010-01-01T03:07:43Z</time>
      </trkpt>
      <trkpt lat="44.66753" lon="3.547">
        <ele>1448</ele>
        <time>2010-01-01T03:07:52Z</time>
      </trkpt>
      <trkpt lat="44.66775" lon="3.54708">
        <ele>1447</ele>
        <time>2010-01-01T03:07:56Z</time>
      </trkpt>
      <trkpt lat="44.66818" lon="3.54695">
        <ele>1444</ele>
        <time>2010-01-01T03:08:03Z</time>
      </trkpt>
      <trkpt lat="44.66852" lon="3.54708">
        <ele>1443</ele>
        <time>2010-01-01T03:08:08Z</time>
      </trkpt>
      <trkpt lat="44.66887" lon="3.54734">
        <ele>1441</ele>
        <time>2010-01-01T03:08:14Z</time>
      </trkpt>
      <trkpt lat="44.66938" lon="3.5479">
        <ele>1439</ele>
        <time>2010-01-01T03:08:25Z</time>
      </trkpt>
      <trkpt lat="44.67088" lon="3.54957">
        <ele>1427</ele>
        <time>2010-01-01T03:08:56Z</time>
      </trkpt>
      <trkpt lat="44.6714" lon="3.5503">
        <ele>1424</ele>
        <time>2010-01-01T03:09:07Z</time>
      </trkpt>
      <trkpt lat="44.67161" lon="3.55116">
        <ele>1421</ele>
        <time>2010-01-01T03:09:18Z</time>
      </trkpt>
      <trkpt lat="44.67161" lon="3.55155">
        <ele>1420</ele>
        <time>2010-01-01T03:09:22Z</time>
      </trkpt>
      <trkpt lat="44.67157" lon="3.55197">
        <ele>1420</ele>
        <time>2010-01-01T03:09:27Z</time>
      </trkpt>
      <trkpt lat="44.6708" lon="3.55476">
        <ele>1411</ele>
        <time>2010-01-01T03:10:01Z</time>
      </trkpt>
      <trkpt lat="44.67041" lon="3.55609">
        <ele>1408</ele>
        <time>2010-01-01T03:10:17Z</time>
      </trkpt>
      <trkpt lat="44.6702" lon="3.55631">
        <ele>1408</ele>
        <time>2010-01-01T03:10:22Z</time>
      </trkpt>
      <trkpt lat="44.66981" lon="3.55644">
        <ele>1410</ele>
        <time>2010-01-01T03:10:28Z</time>
      </trkpt>
      <trkpt lat="44.66964" lon="3.55657">
        <ele>1411</ele>
        <time>2010-01-01T03:10:31Z</time>
      </trkpt>
      <trkpt lat="44.66959" lon="3.55674">
        <ele>1411</ele>
        <time>2010-01-01T03:10:33Z</time>
      </trkpt>
      <trkpt lat="44.66964" lon="3.557">
        <ele>1410</ele>
        <time>2010-01-01T03:10:36Z</time>
      </trkpt>
      <trkpt lat="44.67105" lon="3.5609">
        <ele>1391</ele>
        <time>2010-01-01T03:11:26Z</time>
      </trkpt>
      <trkpt lat="44.67165" lon="3.56266">
        <ele>1389</ele>
        <time>2010-01-01T03:11:48Z</time>
      </trkpt>
      <trkpt lat="44.67213" lon="3.56438">
        <ele>1379</ele>
        <time>2010-01-01T03:12:09Z</time>
      </trkpt>
      <trkpt lat="44.67217" lon="3.56489">
        <ele>1378</ele>
        <time>2010-01-01T03:12:15Z</time>
      </trkpt>
      <trkpt lat="44.67208" lon="3.56622">
        <ele>1371</ele>
        <time>2010-01-01T03:12:30Z</time>
      </trkpt>
      <trkpt lat="44.67191" lon="3.56678">
        <ele>1371</ele>
        <time>2010-01-01T03:12:37Z</time>
      </trkpt>
      <trkpt lat="44.67153" lon="3.56888">
        <ele>1360</ele>
        <time>2010-01-01T03:13:02Z</time>
      </trkpt>
      <trkpt lat="44.67135" lon="3.56927">
        <ele>1356</ele>
        <time>2010-01-01T03:13:07Z</time>
      </trkpt>
      <trkpt lat="44.6708" lon="3.56996">
        <ele>1354</ele>
        <time>2010-01-01T03:13:19Z</time>
      </trkpt>
      <trkpt lat="44.67041" lon="3.57013">
        <ele>1353</ele>
        <time>2010-01-01T03:13:26Z</time>
      </trkpt>
      <trkpt lat="44.67011" lon="3.57021">
        <ele>1353</ele>
        <time>2010-01-01T03:13:31Z</time>
      </trkpt>
      <trkpt lat="44.6699" lon="3.57038">
        <ele>1352</ele>
        <time>2010-01-01T03:13:34Z</time>
      </trkpt>
      <trkpt lat="44.66925" lon="3.57124">
        <ele>1346</ele>
        <time>2010-01-01T03:13:49Z</time>
      </trkpt>
      <trkpt lat="44.66869" lon="3.57202">
        <ele>1340</ele>
        <time>2010-01-01T03:14:01Z</time>
      </trkpt>
      <trkpt lat="44.66809" lon="3.57232">
        <ele>1339</ele>
        <time>2010-01-01T03:14:11Z</time>
      </trkpt>
      <trkpt lat="44.66801" lon="3.57249">
        <ele>1337</ele>
        <time>2010-01-01T03:14:14Z</time>
      </trkpt>
      <trkpt lat="44.66796" lon="3.57275">
        <ele>1337</ele>
        <time>2010-01-01T03:14:17Z</time>
      </trkpt>
      <trkpt lat="44.66801" lon="3.573">
        <ele>1336</ele>
        <time>2010-01-01T03:14:20Z</time>
      </trkpt>
      <trkpt lat="44.66887" lon="3.57416">
        <ele>1332</ele>
        <time>2010-01-01T03:14:39Z</time>
      </trkpt>
      <trkpt lat="44.66908" lon="3.57455">
        <ele>1332</ele>
        <time>2010-01-01T03:14:44Z</time>
      </trkpt>
      <trkpt lat="44.66925" lon="3.57498">
        <ele>1332</ele>
        <time>2010-01-01T03:14:50Z</time>
      </trkpt>
      <trkpt lat="44.66938" lon="3.57562">
        <ele>1330</ele>
        <time>2010-01-01T03:14:58Z</time>
      </trkpt>
      <trkpt lat="44.66959" lon="3.57626">
        <ele>1325</ele>
        <time>2010-01-01T03:15:06Z</time>
      </trkpt>
      <trkpt lat="44.66972" lon="3.57695">
        <ele>1322</ele>
        <time>2010-01-01T03:15:14Z</time>
      </trkpt>
      <trkpt lat="44.66981" lon="3.5779">
        <ele>1320</ele>
        <time>2010-01-01T03:15:25Z</time>
      </trkpt>
      <trkpt lat="44.66972" lon="3.57854">
        <ele>1318</ele>
        <time>2010-01-01T03:15:32Z</time>
      </trkpt>
      <trkpt lat="44.66964" lon="3.57888">
        <ele>1316</ele>
        <time>2010-01-01T03:15:36Z</time>
      </trkpt>
      <trkpt lat="44.66925" lon="3.57961">
        <ele>1316</ele>
        <time>2010-01-01T03:15:47Z</time>
      </trkpt>
      <trkpt lat="44.66921" lon="3.57987">
        <ele>1315</ele>
        <time>2010-01-01T03:15:50Z</time>
      </trkpt>
      <trkpt lat="44.66938" lon="3.5809">
        <ele>1314</ele>
        <time>2010-01-01T03:16:02Z</time>
      </trkpt>
      <trkpt lat="44.66951" lon="3.58129">
        <ele>1312</ele>
        <time>2010-01-01T03:16:07Z</time>
      </trkpt>
      <trkpt lat="44.66955" lon="3.58163">
        <ele>1311</ele>
        <time>2010-01-01T03:16:11Z</time>
      </trkpt>
      <trkpt lat="44.66955" lon="3.58227">
        <ele>1311</ele>
        <time>2010-01-01T03:16:18Z</time>
      </trkpt>
      <trkpt lat="44.66912" lon="3.5839">
        <ele>1307</ele>
        <time>2010-01-01T03:16:38Z</time>
      </trkpt>
      <trkpt lat="44.66925" lon="3.58472">
        <ele>1301</ele>
        <time>2010-01-01T03:16:47Z</time>
      </trkpt>
      <trkpt lat="44.66925" lon="3.58601">
        <ele>1298</ele>
        <time>2010-01-01T03:17:02Z</time>
      </trkpt>
      <trkpt lat="44.66904" lon="3.58725">
        <ele>1294</ele>
        <time>2010-01-01T03:17:16Z</time>
      </trkpt>
      <trkpt lat="44.66861" lon="3.58871">
        <ele>1289</ele>
        <time>2010-01-01T03:17:34Z</time>
      </trkpt>
      <trkpt lat="44.66839" lon="3.58991">
        <ele>1283</ele>
        <time>2010-01-01T03:17:49Z</time>
      </trkpt>
      <trkpt lat="44.66822" lon="3.59094">
        <ele>1283</ele>
        <time>2010-01-01T03:18:01Z</time>
      </trkpt>
      <trkpt lat="44.66826" lon="3.5912">
        <ele>1281</ele>
        <time>2010-01-01T03:18:04Z</time>
      </trkpt>
      <trkpt lat="44.66852" lon="3.59154">
        <ele>1281</ele>
        <time>2010-01-01T03:18:09Z</time>
      </trkpt>
      <trkpt lat="44.66865" lon="3.59163">
        <ele>1282</ele>
        <time>2010-01-01T03:18:12Z</time>
      </trkpt>
      <trkpt lat="44.66874" lon="3.59184">
        <ele>1283</ele>
        <time>2010-01-01T03:18:14Z</time>
      </trkpt>
      <trkpt lat="44.66852" lon="3.59266">
        <ele>1282</ele>
        <time>2010-01-01T03:18:24Z</time>
      </trkpt>
      <trkpt lat="44.66822" lon="3.59356">
        <ele>1280</ele>
        <time>2010-01-01T03:18:36Z</time>
      </trkpt>
      <trkpt lat="44.66779" lon="3.59523">
        <ele>1278</ele>
        <time>2010-01-01T03:18:56Z</time>
      </trkpt>
      <trkpt lat="44.66779" lon="3.59553">
        <ele>1278</ele>
        <time>2010-01-01T03:18:59Z</time>
      </trkpt>
      <trkpt lat="44.66766" lon="3.59643">
        <ele>1276</ele>
        <time>2010-01-01T03:19:10Z</time>
      </trkpt>
      <trkpt lat="44.66749" lon="3.59721">
        <ele>1274</ele>
        <time>2010-01-01T03:19:19Z</time>
      </trkpt>
      <trkpt lat="44.66732" lon="3.59794">
        <ele>1274</ele>
        <time>2010-01-01T03:19:28Z</time>
      </trkpt>
      <trkpt lat="44.66719" lon="3.59828">
        <ele>1274</ele>
        <time>2010-01-01T03:19:32Z</time>
      </trkpt>
      <trkpt lat="44.66681" lon="3.59888">
        <ele>1274</ele>
        <time>2010-01-01T03:19:41Z</time>
      </trkpt>
      <trkpt lat="44.66668" lon="3.59918">
        <ele>1273</ele>
        <time>2010-01-01T03:19:45Z</time>
      </trkpt>
      <trkpt lat="44.6665" lon="3.60021">
        <ele>1276</ele>
        <time>2010-01-01T03:19:57Z</time>
      </trkpt>
      <trkpt lat="44.66638" lon="3.60055">
        <ele>1276</ele>
        <time>2010-01-01T03:20:02Z</time>
      </trkpt>
      <trkpt lat="44.66517" lon="3.60227">
        <ele>1268</ele>
        <time>2010-01-01T03:20:29Z</time>
      </trkpt>
      <trkpt lat="44.66436" lon="3.60322">
        <ele>1262</ele>
        <time>2010-01-01T03:20:46Z</time>
      </trkpt>
      <trkpt lat="44.66419" lon="3.6036">
        <ele>1258</ele>
        <time>2010-01-01T03:20:51Z</time>
      </trkpt>
      <trkpt lat="44.66423" lon="3.60382">
        <ele>1258</ele>
        <time>2010-01-01T03:20:54Z</time>
      </trkpt>
      <trkpt lat="44.66436" lon="3.60394">
        <ele>1259</ele>
        <time>2010-01-01T03:20:56Z</time>
      </trkpt>
      <trkpt lat="44.66462" lon="3.60407">
        <ele>1262</ele>
        <time>2010-01-01T03:21:01Z</time>
      </trkpt>
      <trkpt lat="44.66479" lon="3.6042">
        <ele>1264</ele>
        <time>2010-01-01T03:21:04Z</time>
      </trkpt>
      <trkpt lat="44.66496" lon="3.60455">
        <ele>1262</ele>
        <time>2010-01-01T03:21:09Z</time>
      </trkpt>
      <trkpt lat="44.665" lon="3.60493">
        <ele>1259</ele>
        <time>2010-01-01T03:21:13Z</time>
      </trkpt>
      <trkpt lat="44.66517" lon="3.60609">
        <ele>1254</ele>
        <time>2010-01-01T03:21:27Z</time>
      </trkpt>
      <trkpt lat="44.66513" lon="3.60631">
        <ele>1252</ele>
        <time>2010-01-01T03:21:29Z</time>
      </trkpt>
      <trkpt lat="44.66483" lon="3.60703">
        <ele>1250</ele>
        <time>2010-01-01T03:21:39Z</time>
      </trkpt>
      <trkpt lat="44.66466" lon="3.60802">
        <ele>1250</ele>
        <time>2010-01-01T03:21:50Z</time>
      </trkpt>
      <trkpt lat="44.66329" lon="3.6112">
        <ele>1247</ele>
        <time>2010-01-01T03:22:33Z</time>
      </trkpt>
      <trkpt lat="44.6632" lon="3.6115">
        <ele>1248</ele>
        <time>2010-01-01T03:22:36Z</time>
      </trkpt>
      <trkpt lat="44.66311" lon="3.61193">
        <ele>1248</ele>
        <time>2010-01-01T03:22:41Z</time>
      </trkpt>
      <trkpt lat="44.66311" lon="3.61244">
        <ele>1249</ele>
        <time>2010-01-01T03:22:47Z</time>
      </trkpt>
      <trkpt lat="44.6632" lon="3.61373">
        <ele>1248</ele>
        <time>2010-01-01T03:23:02Z</time>
      </trkpt>
      <trkpt lat="44.66329" lon="3.61446">
        <ele>1248</ele>
        <time>2010-01-01T03:23:10Z</time>
      </trkpt>
      <trkpt lat="44.66333" lon="3.61515">
        <ele>1248</ele>
        <time>2010-01-01T03:23:18Z</time>
      </trkpt>
      <trkpt lat="44.66273" lon="3.61879">
        <ele>1238</ele>
        <time>2010-01-01T03:24:01Z</time>
      </trkpt>
      <trkpt lat="44.6626" lon="3.61927">
        <ele>1235</ele>
        <time>2010-01-01T03:24:07Z</time>
      </trkpt>
      <trkpt lat="44.66101" lon="3.62343">
        <ele>1216</ele>
        <time>2010-01-01T03:25:00Z</time>
      </trkpt>
      <trkpt lat="44.66075" lon="3.62416">
        <ele>1210</ele>
        <time>2010-01-01T03:25:10Z</time>
      </trkpt>
      <trkpt lat="44.66067" lon="3.62472">
        <ele>1210</ele>
        <time>2010-01-01T03:25:16Z</time>
      </trkpt>
      <trkpt lat="44.66071" lon="3.62592">
        <ele>1209</ele>
        <time>2010-01-01T03:25:30Z</time>
      </trkpt>
      <trkpt lat="44.66063" lon="3.62665">
        <ele>1208</ele>
        <time>2010-01-01T03:25:38Z</time>
      </trkpt>
      <trkpt lat="44.6602" lon="3.62896">
        <ele>1196</ele>
        <time>2010-01-01T03:26:06Z</time>
      </trkpt>
      <trkpt lat="44.66011" lon="3.62931">
        <ele>1193</ele>
        <time>2010-01-01T03:26:10Z</time>
      </trkpt>
      <trkpt lat="44.65985" lon="3.62974">
        <ele>1188</ele>
        <time>2010-01-01T03:26:16Z</time>
      </trkpt>
      <trkpt lat="44.65985" lon="3.62991">
        <ele>1188</ele>
        <time>2010-01-01T03:26:18Z</time>
      </trkpt>
      <trkpt lat="44.65994" lon="3.63008">
        <ele>1186</ele>
        <time>2010-01-01T03:26:21Z</time>
      </trkpt>
      <trkpt lat="44.66028" lon="3.63042">
        <ele>1188</ele>
        <time>2010-01-01T03:26:27Z</time>
      </trkpt>
      <trkpt lat="44.66041" lon="3.63068">
        <ele>1186</ele>
        <time>2010-01-01T03:26:31Z</time>
      </trkpt>
      <trkpt lat="44.66063" lon="3.63128">
        <ele>1182</ele>
        <time>2010-01-01T03:26:39Z</time>
      </trkpt>
      <trkpt lat="44.66067" lon="3.63141">
        <ele>1181</ele>
        <time>2010-01-01T03:26:40Z</time>
      </trkpt>
      <trkpt lat="44.66097" lon="3.63253">
        <ele>1177</ele>
        <time>2010-01-01T03:26:54Z</time>
      </trkpt>
      <trkpt lat="44.6614" lon="3.63407">
        <ele>1176</ele>
        <time>2010-01-01T03:27:13Z</time>
      </trkpt>
      <trkpt lat="44.66153" lon="3.63463">
        <ele>1175</ele>
        <time>2010-01-01T03:27:19Z</time>
      </trkpt>
      <trkpt lat="44.66144" lon="3.63497">
        <ele>1174</ele>
        <time>2010-01-01T03:27:23Z</time>
      </trkpt>
      <trkpt lat="44.66127" lon="3.63523">
        <ele>1174</ele>
        <time>2010-01-01T03:27:27Z</time>
      </trkpt>
      <trkpt lat="44.66041" lon="3.63626">
        <ele>1172</ele>
        <time>2010-01-01T03:27:46Z</time>
      </trkpt>
      <trkpt lat="44.66015" lon="3.63656">
        <ele>1170</ele>
        <time>2010-01-01T03:27:51Z</time>
      </trkpt>
      <trkpt lat="44.65754" lon="3.63815">
        <ele>1169</ele>
        <time>2010-01-01T03:28:37Z</time>
      </trkpt>
      <trkpt lat="44.65633" lon="3.63832">
        <ele>1169</ele>
        <time>2010-01-01T03:28:56Z</time>
      </trkpt>
      <trkpt lat="44.65569" lon="3.63879">
        <ele>1169</ele>
        <time>2010-01-01T03:29:08Z</time>
      </trkpt>
      <trkpt lat="44.65445" lon="3.64017">
        <ele>1168</ele>
        <time>2010-01-01T03:29:33Z</time>
      </trkpt>
      <trkpt lat="44.65397" lon="3.64055">
        <ele>1167</ele>
        <time>2010-01-01T03:29:42Z</time>
      </trkpt>
      <trkpt lat="44.6538" lon="3.64081">
        <ele>1167</ele>
        <time>2010-01-01T03:29:46Z</time>
      </trkpt>
      <trkpt lat="44.6535" lon="3.64205">
        <ele>1166</ele>
        <time>2010-01-01T03:30:01Z</time>
      </trkpt>
      <trkpt lat="44.6535" lon="3.64244">
        <ele>1165</ele>
        <time>2010-01-01T03:30:05Z</time>
      </trkpt>
      <trkpt lat="44.65359" lon="3.6427">
        <ele>1165</ele>
        <time>2010-01-01T03:30:08Z</time>
      </trkpt>
      <trkpt lat="44.65367" lon="3.643">
        <ele>1165</ele>
        <time>2010-01-01T03:30:12Z</time>
      </trkpt>
      <trkpt lat="44.65436" lon="3.64398">
        <ele>1165</ele>
        <time>2010-01-01T03:30:28Z</time>
      </trkpt>
      <trkpt lat="44.65462" lon="3.64467">
        <ele>1163</ele>
        <time>2010-01-01T03:30:36Z</time>
      </trkpt>
      <trkpt lat="44.65475" lon="3.64489">
        <ele>1161</ele>
        <time>2010-01-01T03:30:40Z</time>
      </trkpt>
      <trkpt lat="44.65535" lon="3.64532">
        <ele>1162</ele>
        <time>2010-01-01T03:30:50Z</time>
      </trkpt>
      <trkpt lat="44.65565" lon="3.64579">
        <ele>1160</ele>
        <time>2010-01-01T03:30:58Z</time>
      </trkpt>
      <trkpt lat="44.65586" lon="3.64639">
        <ele>1158</ele>
        <time>2010-01-01T03:31:05Z</time>
      </trkpt>
      <trkpt lat="44.65608" lon="3.64682">
        <ele>1159</ele>
        <time>2010-01-01T03:31:11Z</time>
      </trkpt>
      <trkpt lat="44.65706" lon="3.64785">
        <ele>1159</ele>
        <time>2010-01-01T03:31:31Z</time>
      </trkpt>
      <trkpt lat="44.65788" lon="3.64815">
        <ele>1157</ele>
        <time>2010-01-01T03:31:44Z</time>
      </trkpt>
      <trkpt lat="44.65822" lon="3.64845">
        <ele>1155</ele>
        <time>2010-01-01T03:31:51Z</time>
      </trkpt>
      <trkpt lat="44.65835" lon="3.64866">
        <ele>1155</ele>
        <time>2010-01-01T03:31:54Z</time>
      </trkpt>
      <trkpt lat="44.65861" lon="3.64965">
        <ele>1154</ele>
        <time>2010-01-01T03:32:06Z</time>
      </trkpt>
      <trkpt lat="44.65865" lon="3.65025">
        <ele>1152</ele>
        <time>2010-01-01T03:32:13Z</time>
      </trkpt>
      <trkpt lat="44.65844" lon="3.65167">
        <ele>1151</ele>
        <time>2010-01-01T03:32:29Z</time>
      </trkpt>
      <trkpt lat="44.65775" lon="3.6548">
        <ele>1152</ele>
        <time>2010-01-01T03:33:07Z</time>
      </trkpt>
      <trkpt lat="44.65766" lon="3.65557">
        <ele>1152</ele>
        <time>2010-01-01T03:33:16Z</time>
      </trkpt>
      <trkpt lat="44.65766" lon="3.6566">
        <ele>1153</ele>
        <time>2010-01-01T03:33:27Z</time>
      </trkpt>
      <trkpt lat="44.65758" lon="3.65883">
        <ele>1150</ele>
        <time>2010-01-01T03:33:53Z</time>
      </trkpt>
      <trkpt lat="44.65732" lon="3.66059">
        <ele>1148</ele>
        <time>2010-01-01T03:34:13Z</time>
      </trkpt>
      <trkpt lat="44.65771" lon="3.66377">
        <ele>1147</ele>
        <time>2010-01-01T03:34:50Z</time>
      </trkpt>
      <trkpt lat="44.65805" lon="3.66677">
        <ele>1143</ele>
        <time>2010-01-01T03:35:25Z</time>
      </trkpt>
      <trkpt lat="44.65809" lon="3.66793">
        <ele>1145</ele>
        <time>2010-01-01T03:35:38Z</time>
      </trkpt>
      <trkpt lat="44.65801" lon="3.66845">
        <ele>1146</ele>
        <time>2010-01-01T03:35:44Z</time>
      </trkpt>
      <trkpt lat="44.65796" lon="3.66866">
        <ele>1146</ele>
        <time>2010-01-01T03:35:47Z</time>
      </trkpt>
      <trkpt lat="44.65724" lon="3.67064">
        <ele>1145</ele>
        <time>2010-01-01T03:36:12Z</time>
      </trkpt>
      <trkpt lat="44.65719" lon="3.67089">
        <ele>1146</ele>
        <time>2010-01-01T03:36:15Z</time>
      </trkpt>
      <trkpt lat="44.65728" lon="3.67106">
        <ele>1146</ele>
        <time>2010-01-01T03:36:17Z</time>
      </trkpt>
      <trkpt lat="44.6564" lon="3.67171">
        <ele>1143</ele>
        <time>2010-01-01T03:36:33Z</time>
      </trkpt>
      <trkpt lat="44.655" lon="3.67274">
        <ele>1143</ele>
        <time>2010-01-01T03:36:58Z</time>
      </trkpt>
      <trkpt lat="44.65393" lon="3.67364">
        <ele>1142</ele>
        <time>2010-01-01T03:37:18Z</time>
      </trkpt>
      <trkpt lat="44.65329" lon="3.67454">
        <ele>1143</ele>
        <time>2010-01-01T03:37:33Z</time>
      </trkpt>
      <trkpt lat="44.65251" lon="3.67596">
        <ele>1139</ele>
        <time>2010-01-01T03:37:53Z</time>
      </trkpt>
      <trkpt lat="44.65239" lon="3.67617">
        <ele>1139</ele>
        <time>2010-01-01T03:37:56Z</time>
      </trkpt>
      <trkpt lat="44.65196" lon="3.67664">
        <ele>1138</ele>
        <time>2010-01-01T03:38:05Z</time>
      </trkpt>
      <trkpt lat="44.65144" lon="3.67694">
        <ele>1139</ele>
        <time>2010-01-01T03:38:14Z</time>
      </trkpt>
      <trkpt lat="44.65045" lon="3.67716">
        <ele>1140</ele>
        <time>2010-01-01T03:38:30Z</time>
      </trkpt>
      <trkpt lat="44.64938" lon="3.67746">
        <ele>1143</ele>
        <time>2010-01-01T03:38:48Z</time>
      </trkpt>
      <trkpt lat="44.64917" lon="3.67742">
        <ele>1145</ele>
        <time>2010-01-01T03:38:51Z</time>
      </trkpt>
      <trkpt lat="44.649" lon="3.67815">
        <ele>1144</ele>
        <time>2010-01-01T03:39:00Z</time>
      </trkpt>
      <trkpt lat="44.64895" lon="3.67879">
        <ele>1143</ele>
        <time>2010-01-01T03:39:07Z</time>
      </trkpt>
      <trkpt lat="44.649" lon="3.67905">
        <ele>1142</ele>
        <time>2010-01-01T03:39:10Z</time>
      </trkpt>
      <trkpt lat="44.64941" lon="3.68107">
        <ele>1143</ele>
        <time>2010-01-01T03:39:34Z</time>
      </trkpt>
      <trkpt lat="44.64998" lon="3.68385">
        <ele>1141</ele>
        <time>2010-01-01T03:40:07Z</time>
      </trkpt>
      <trkpt lat="44.65007" lon="3.68424">
        <ele>1141</ele>
        <time>2010-01-01T03:40:12Z</time>
      </trkpt>
      <trkpt lat="44.65028" lon="3.68475">
        <ele>1141</ele>
        <time>2010-01-01T03:40:19Z</time>
      </trkpt>
      <trkpt lat="44.65067" lon="3.68536">
        <ele>1143</ele>
        <time>2010-01-01T03:40:28Z</time>
      </trkpt>
      <trkpt lat="44.65144" lon="3.68604">
        <ele>1144</ele>
        <time>2010-01-01T03:40:42Z</time>
      </trkpt>
      <trkpt lat="44.65191" lon="3.68639">
        <ele>1146</ele>
        <time>2010-01-01T03:40:51Z</time>
      </trkpt>
      <trkpt lat="44.65376" lon="3.68737">
        <ele>1143</ele>
        <time>2010-01-01T03:41:23Z</time>
      </trkpt>
      <trkpt lat="44.65419" lon="3.68776">
        <ele>1141</ele>
        <time>2010-01-01T03:41:31Z</time>
      </trkpt>
      <trkpt lat="44.65445" lon="3.68823">
        <ele>1143</ele>
        <time>2010-01-01T03:41:38Z</time>
      </trkpt>
      <trkpt lat="44.65457" lon="3.68866">
        <ele>1144</ele>
        <time>2010-01-01T03:41:43Z</time>
      </trkpt>
      <trkpt lat="44.65462" lon="3.6896">
        <ele>1148</ele>
        <time>2010-01-01T03:41:54Z</time>
      </trkpt>
      <trkpt lat="44.65466" lon="3.6899">
        <ele>1147</ele>
        <time>2010-01-01T03:41:57Z</time>
      </trkpt>
      <trkpt lat="44.65475" lon="3.69008">
        <ele>1146</ele>
        <time>2010-01-01T03:41:59Z</time>
      </trkpt>
      <trkpt lat="44.65496" lon="3.6902">
        <ele>1141</ele>
        <time>2010-01-01T03:42:03Z</time>
      </trkpt>
      <trkpt lat="44.65595" lon="3.69046">
        <ele>1143</ele>
        <time>2010-01-01T03:42:19Z</time>
      </trkpt>
      <trkpt lat="44.65655" lon="3.69076">
        <ele>1141</ele>
        <time>2010-01-01T03:42:29Z</time>
      </trkpt>
      <trkpt lat="44.65702" lon="3.69128">
        <ele>1141</ele>
        <time>2010-01-01T03:42:39Z</time>
      </trkpt>
      <trkpt lat="44.65732" lon="3.69179">
        <ele>1142</ele>
        <time>2010-01-01T03:42:47Z</time>
      </trkpt>
      <trkpt lat="44.65779" lon="3.69299">
        <ele>1143</ele>
        <time>2010-01-01T03:43:02Z</time>
      </trkpt>
      <trkpt lat="44.65809" lon="3.69338">
        <ele>1143</ele>
        <time>2010-01-01T03:43:09Z</time>
      </trkpt>
      <trkpt lat="44.65857" lon="3.69377">
        <ele>1143</ele>
        <time>2010-01-01T03:43:18Z</time>
      </trkpt>
      <trkpt lat="44.65925" lon="3.69411">
        <ele>1144</ele>
        <time>2010-01-01T03:43:29Z</time>
      </trkpt>
      <trkpt lat="44.6596" lon="3.69437">
        <ele>1146</ele>
        <time>2010-01-01T03:43:35Z</time>
      </trkpt>
      <trkpt lat="44.66037" lon="3.69527">
        <ele>1142</ele>
        <time>2010-01-01T03:43:52Z</time>
      </trkpt>
      <trkpt lat="44.66054" lon="3.69565">
        <ele>1140</ele>
        <time>2010-01-01T03:43:57Z</time>
      </trkpt>
      <trkpt lat="44.66067" lon="3.69604">
        <ele>1139</ele>
        <time>2010-01-01T03:44:02Z</time>
      </trkpt>
      <trkpt lat="44.66075" lon="3.69621">
        <ele>1138</ele>
        <time>2010-01-01T03:44:04Z</time>
      </trkpt>
      <trkpt lat="44.66174" lon="3.69711">
        <ele>1139</ele>
        <time>2010-01-01T03:44:23Z</time>
      </trkpt>
      <trkpt lat="44.66226" lon="3.69741">
        <ele>1136</ele>
        <time>2010-01-01T03:44:32Z</time>
      </trkpt>
      <trkpt lat="44.6626" lon="3.69746">
        <ele>1136</ele>
        <time>2010-01-01T03:44:37Z</time>
      </trkpt>
      <trkpt lat="44.66346" lon="3.69724">
        <ele>1138</ele>
        <time>2010-01-01T03:44:51Z</time>
      </trkpt>
      <trkpt lat="44.66406" lon="3.69699">
        <ele>1139</ele>
        <time>2010-01-01T03:45:01Z</time>
      </trkpt>
      <trkpt lat="44.66475" lon="3.69651">
        <ele>1141</ele>
        <time>2010-01-01T03:45:14Z</time>
      </trkpt>
      <trkpt lat="44.66513" lon="3.69651">
        <ele>1139</ele>
        <time>2010-01-01T03:45:20Z</time>
      </trkpt>
      <trkpt lat="44.66569" lon="3.69664">
        <ele>1136</ele>
        <time>2010-01-01T03:45:29Z</time>
      </trkpt>
      <trkpt lat="44.66698" lon="3.69694">
        <ele>1134</ele>
        <time>2010-01-01T03:45:50Z</time>
      </trkpt>
      <trkpt lat="44.66728" lon="3.69694">
        <ele>1133</ele>
        <time>2010-01-01T03:45:54Z</time>
      </trkpt>
      <trkpt lat="44.66745" lon="3.69681">
        <ele>1133</ele>
        <time>2010-01-01T03:45:58Z</time>
      </trkpt>
      <trkpt lat="44.66814" lon="3.69604">
        <ele>1134</ele>
        <time>2010-01-01T03:46:12Z</time>
      </trkpt>
      <trkpt lat="44.66848" lon="3.69583">
        <ele>1133</ele>
        <time>2010-01-01T03:46:18Z</time>
      </trkpt>
      <trkpt lat="44.66904" lon="3.69574">
        <ele>1132</ele>
        <time>2010-01-01T03:46:27Z</time>
      </trkpt>
      <trkpt lat="44.66947" lon="3.69583">
        <ele>1133</ele>
        <time>2010-01-01T03:46:34Z</time>
      </trkpt>
      <trkpt lat="44.66977" lon="3.69596">
        <ele>1133</ele>
        <time>2010-01-01T03:46:39Z</time>
      </trkpt>
      <trkpt lat="44.66998" lon="3.69621">
        <ele>1132</ele>
        <time>2010-01-01T03:46:43Z</time>
      </trkpt>
      <trkpt lat="44.67045" lon="3.69677">
        <ele>1134</ele>
        <time>2010-01-01T03:46:53Z</time>
      </trkpt>
      <trkpt lat="44.67075" lon="3.69699">
        <ele>1134</ele>
        <time>2010-01-01T03:46:58Z</time>
      </trkpt>
      <trkpt lat="44.67114" lon="3.69707">
        <ele>1133</ele>
        <time>2010-01-01T03:47:05Z</time>
      </trkpt>
      <trkpt lat="44.6717" lon="3.69703">
        <ele>1133</ele>
        <time>2010-01-01T03:47:14Z</time>
      </trkpt>
      <trkpt lat="44.67204" lon="3.69711">
        <ele>1130</ele>
        <time>2010-01-01T03:47:19Z</time>
      </trkpt>
      <trkpt lat="44.67234" lon="3.69746">
        <ele>1129</ele>
        <time>2010-01-01T03:47:25Z</time>
      </trkpt>
      <trkpt lat="44.67251" lon="3.69789">
        <ele>1129</ele>
        <time>2010-01-01T03:47:31Z</time>
      </trkpt>
      <trkpt lat="44.67273" lon="3.69862">
        <ele>1133</ele>
        <time>2010-01-01T03:47:40Z</time>
      </trkpt>
      <trkpt lat="44.67299" lon="3.6993">
        <ele>1130</ele>
        <time>2010-01-01T03:47:49Z</time>
      </trkpt>
      <trkpt lat="44.67307" lon="3.69943">
        <ele>1129</ele>
        <time>2010-01-01T03:47:51Z</time>
      </trkpt>
      <trkpt lat="44.67329" lon="3.69952">
        <ele>1127</ele>
        <time>2010-01-01T03:47:54Z</time>
      </trkpt>
      <trkpt lat="44.67384" lon="3.69947">
        <ele>1132</ele>
        <time>2010-01-01T03:48:03Z</time>
      </trkpt>
      <trkpt lat="44.67432" lon="3.69956">
        <ele>1133</ele>
        <time>2010-01-01T03:48:11Z</time>
      </trkpt>
      <trkpt lat="44.67453" lon="3.69969">
        <ele>1132</ele>
        <time>2010-01-01T03:48:15Z</time>
      </trkpt>
      <trkpt lat="44.67474" lon="3.69995">
        <ele>1128</ele>
        <time>2010-01-01T03:48:19Z</time>
      </trkpt>
      <trkpt lat="44.67517" lon="3.70063">
        <ele>1125</ele>
        <time>2010-01-01T03:48:30Z</time>
      </trkpt>
      <trkpt lat="44.67543" lon="3.70149">
        <ele>1122</ele>
        <time>2010-01-01T03:48:40Z</time>
      </trkpt>
      <trkpt lat="44.67573" lon="3.70274">
        <ele>1116</ele>
        <time>2010-01-01T03:48:55Z</time>
      </trkpt>
      <trkpt lat="44.6759" lon="3.70304">
        <ele>1112</ele>
        <time>2010-01-01T03:49:00Z</time>
      </trkpt>
      <trkpt lat="44.67599" lon="3.70317">
        <ele>1111</ele>
        <time>2010-01-01T03:49:02Z</time>
      </trkpt>
      <trkpt lat="44.67616" lon="3.70321">
        <ele>1111</ele>
        <time>2010-01-01T03:49:04Z</time>
      </trkpt>
      <trkpt lat="44.67685" lon="3.70321">
        <ele>1114</ele>
        <time>2010-01-01T03:49:15Z</time>
      </trkpt>
      <trkpt lat="44.67698" lon="3.70334">
        <ele>1113</ele>
        <time>2010-01-01T03:49:18Z</time>
      </trkpt>
      <trkpt lat="44.6771" lon="3.70364">
        <ele>1112</ele>
        <time>2010-01-01T03:49:22Z</time>
      </trkpt>
      <trkpt lat="44.6771" lon="3.70385">
        <ele>1111</ele>
        <time>2010-01-01T03:49:24Z</time>
      </trkpt>
      <trkpt lat="44.67698" lon="3.7045">
        <ele>1105</ele>
        <time>2010-01-01T03:49:32Z</time>
      </trkpt>
      <trkpt lat="44.67702" lon="3.70484">
        <ele>1103</ele>
        <time>2010-01-01T03:49:36Z</time>
      </trkpt>
      <trkpt lat="44.67719" lon="3.70501">
        <ele>1104</ele>
        <time>2010-01-01T03:49:39Z</time>
      </trkpt>
      <trkpt lat="44.67758" lon="3.70505">
        <ele>1106</ele>
        <time>2010-01-01T03:49:46Z</time>
      </trkpt>
      <trkpt lat="44.67852" lon="3.70475">
        <ele>1109</ele>
        <time>2010-01-01T03:50:01Z</time>
      </trkpt>
      <trkpt lat="44.67972" lon="3.70428">
        <ele>1106</ele>
        <time>2010-01-01T03:50:21Z</time>
      </trkpt>
      <trkpt lat="44.68019" lon="3.70398">
        <ele>1105</ele>
        <time>2010-01-01T03:50:29Z</time>
      </trkpt>
      <trkpt lat="44.68075" lon="3.70381">
        <ele>1103</ele>
        <time>2010-01-01T03:50:38Z</time>
      </trkpt>
      <trkpt lat="44.68122" lon="3.70377">
        <ele>1106</ele>
        <time>2010-01-01T03:50:46Z</time>
      </trkpt>
      <trkpt lat="44.68178" lon="3.70394">
        <ele>1106</ele>
        <time>2010-01-01T03:50:55Z</time>
      </trkpt>
      <trkpt lat="44.68251" lon="3.70428">
        <ele>1106</ele>
        <time>2010-01-01T03:51:07Z</time>
      </trkpt>
      <trkpt lat="44.68311" lon="3.70471">
        <ele>1108</ele>
        <time>2010-01-01T03:51:18Z</time>
      </trkpt>
      <trkpt lat="44.6835" lon="3.70527">
        <ele>1107</ele>
        <time>2010-01-01T03:51:27Z</time>
      </trkpt>
      <trkpt lat="44.68376" lon="3.70613">
        <ele>1102</ele>
        <time>2010-01-01T03:51:38Z</time>
      </trkpt>
      <trkpt lat="44.68389" lon="3.7063">
        <ele>1101</ele>
        <time>2010-01-01T03:51:41Z</time>
      </trkpt>
      <trkpt lat="44.68406" lon="3.70634">
        <ele>1102</ele>
        <time>2010-01-01T03:51:43Z</time>
      </trkpt>
      <trkpt lat="44.68466" lon="3.70634">
        <ele>1102</ele>
        <time>2010-01-01T03:51:53Z</time>
      </trkpt>
      <trkpt lat="44.68492" lon="3.7063">
        <ele>1102</ele>
        <time>2010-01-01T03:51:57Z</time>
      </trkpt>
      <trkpt lat="44.68522" lon="3.70608">
        <ele>1103</ele>
        <time>2010-01-01T03:52:03Z</time>
      </trkpt>
      <trkpt lat="44.68672" lon="3.70488">
        <ele>1102</ele>
        <time>2010-01-01T03:52:30Z</time>
      </trkpt>
      <trkpt lat="44.68706" lon="3.70484">
        <ele>1104</ele>
        <time>2010-01-01T03:52:36Z</time>
      </trkpt>
      <trkpt lat="44.68753" lon="3.70505">
        <ele>1103</ele>
        <time>2010-01-01T03:52:44Z</time>
      </trkpt>
      <trkpt lat="44.68895" lon="3.70561">
        <ele>1103</ele>
        <time>2010-01-01T03:53:07Z</time>
      </trkpt>
      <trkpt lat="44.68925" lon="3.70583">
        <ele>1100</ele>
        <time>2010-01-01T03:53:13Z</time>
      </trkpt>
      <trkpt lat="44.68942" lon="3.706">
        <ele>1102</ele>
        <time>2010-01-01T03:53:16Z</time>
      </trkpt>
      <trkpt lat="44.68955" lon="3.7063">
        <ele>1104</ele>
        <time>2010-01-01T03:53:20Z</time>
      </trkpt>
      <trkpt lat="44.68955" lon="3.70737">
        <ele>1105</ele>
        <time>2010-01-01T03:53:32Z</time>
      </trkpt>
      <trkpt lat="44.68968" lon="3.70797">
        <ele>1104</ele>
        <time>2010-01-01T03:53:39Z</time>
      </trkpt>
      <trkpt lat="44.69071" lon="3.70947">
        <ele>1106</ele>
        <time>2010-01-01T03:54:03Z</time>
      </trkpt>
      <trkpt lat="44.69092" lon="3.70995">
        <ele>1105</ele>
        <time>2010-01-01T03:54:09Z</time>
      </trkpt>
      <trkpt lat="44.69114" lon="3.71072">
        <ele>1106</ele>
        <time>2010-01-01T03:54:19Z</time>
      </trkpt>
      <trkpt lat="44.69127" lon="3.71166">
        <ele>1102</ele>
        <time>2010-01-01T03:54:30Z</time>
      </trkpt>
      <trkpt lat="44.69144" lon="3.71467">
        <ele>1100</ele>
        <time>2010-01-01T03:55:04Z</time>
      </trkpt>
      <trkpt lat="44.69152" lon="3.71518">
        <ele>1097</ele>
        <time>2010-01-01T03:55:10Z</time>
      </trkpt>
      <trkpt lat="44.69174" lon="3.71578">
        <ele>1094</ele>
        <time>2010-01-01T03:55:18Z</time>
      </trkpt>
      <trkpt lat="44.692" lon="3.71621">
        <ele>1094</ele>
        <time>2010-01-01T03:55:24Z</time>
      </trkpt>
      <trkpt lat="44.6923" lon="3.71643">
        <ele>1094</ele>
        <time>2010-01-01T03:55:30Z</time>
      </trkpt>
      <trkpt lat="44.69264" lon="3.71651">
        <ele>1094</ele>
        <time>2010-01-01T03:55:35Z</time>
      </trkpt>
      <trkpt lat="44.69324" lon="3.71655">
        <ele>1095</ele>
        <time>2010-01-01T03:55:45Z</time>
      </trkpt>
      <trkpt lat="44.69354" lon="3.71668">
        <ele>1094</ele>
        <time>2010-01-01T03:55:50Z</time>
      </trkpt>
      <trkpt lat="44.69388" lon="3.71698">
        <ele>1093</ele>
        <time>2010-01-01T03:55:56Z</time>
      </trkpt>
      <trkpt lat="44.69436" lon="3.71754">
        <ele>1093</ele>
        <time>2010-01-01T03:56:06Z</time>
      </trkpt>
      <trkpt lat="44.6947" lon="3.71823">
        <ele>1093</ele>
        <time>2010-01-01T03:56:16Z</time>
      </trkpt>
      <trkpt lat="44.69491" lon="3.71883">
        <ele>1093</ele>
        <time>2010-01-01T03:56:23Z</time>
      </trkpt>
      <trkpt lat="44.695" lon="3.71943">
        <ele>1093</ele>
        <time>2010-01-01T03:56:30Z</time>
      </trkpt>
      <trkpt lat="44.69496" lon="3.72007">
        <ele>1092</ele>
        <time>2010-01-01T03:56:38Z</time>
      </trkpt>
      <trkpt lat="44.69491" lon="3.7208">
        <ele>1091</ele>
        <time>2010-01-01T03:56:46Z</time>
      </trkpt>
      <trkpt lat="44.69491" lon="3.72136">
        <ele>1090</ele>
        <time>2010-01-01T03:56:52Z</time>
      </trkpt>
      <trkpt lat="44.69504" lon="3.72183">
        <ele>1089</ele>
        <time>2010-01-01T03:56:58Z</time>
      </trkpt>
      <trkpt lat="44.69522" lon="3.72222">
        <ele>1089</ele>
        <time>2010-01-01T03:57:03Z</time>
      </trkpt>
      <trkpt lat="44.69534" lon="3.72273">
        <ele>1090</ele>
        <time>2010-01-01T03:57:10Z</time>
      </trkpt>
      <trkpt lat="44.69543" lon="3.72419">
        <ele>1091</ele>
        <time>2010-01-01T03:57:26Z</time>
      </trkpt>
      <trkpt lat="44.69539" lon="3.72467">
        <ele>1092</ele>
        <time>2010-01-01T03:57:32Z</time>
      </trkpt>
      <trkpt lat="44.69526" lon="3.72509">
        <ele>1091</ele>
        <time>2010-01-01T03:57:37Z</time>
      </trkpt>
      <trkpt lat="44.69509" lon="3.72548">
        <ele>1091</ele>
        <time>2010-01-01T03:57:42Z</time>
      </trkpt>
      <trkpt lat="44.69466" lon="3.72612">
        <ele>1092</ele>
        <time>2010-01-01T03:57:52Z</time>
      </trkpt>
      <trkpt lat="44.69393" lon="3.72681">
        <ele>1090</ele>
        <time>2010-01-01T03:58:06Z</time>
      </trkpt>
      <trkpt lat="44.6935" lon="3.72737">
        <ele>1091</ele>
        <time>2010-01-01T03:58:16Z</time>
      </trkpt>
      <trkpt lat="44.69268" lon="3.7284">
        <ele>1091</ele>
        <time>2010-01-01T03:58:33Z</time>
      </trkpt>
      <trkpt lat="44.69234" lon="3.72874">
        <ele>1092</ele>
        <time>2010-01-01T03:58:40Z</time>
      </trkpt>
      <trkpt lat="44.69165" lon="3.72926">
        <ele>1091</ele>
        <time>2010-01-01T03:58:52Z</time>
      </trkpt>
      <trkpt lat="44.69118" lon="3.72986">
        <ele>1090</ele>
        <time>2010-01-01T03:59:03Z</time>
      </trkpt>
      <trkpt lat="44.69079" lon="3.73089">
        <ele>1091</ele>
        <time>2010-01-01T03:59:16Z</time>
      </trkpt>
      <trkpt lat="44.69058" lon="3.73158">
        <ele>1091</ele>
        <time>2010-01-01T03:59:24Z</time>
      </trkpt>
      <trkpt lat="44.69049" lon="3.73209">
        <ele>1090</ele>
        <time>2010-01-01T03:59:30Z</time>
      </trkpt>
      <trkpt lat="44.69045" lon="3.73273">
        <ele>1089</ele>
        <time>2010-01-01T03:59:38Z</time>
      </trkpt>
      <trkpt lat="44.69045" lon="3.73359">
        <ele>1088</ele>
        <time>2010-01-01T03:59:48Z</time>
      </trkpt>
      <trkpt lat="44.69049" lon="3.73376">
        <ele>1088</ele>
        <time>2010-01-01T03:59:50Z</time>
      </trkpt>
      <trkpt lat="44.69062" lon="3.73484">
        <ele>1087</ele>
        <time>2010-01-01T04:00:02Z</time>
      </trkpt>
      <trkpt lat="44.69067" lon="3.73505">
        <ele>1088</ele>
        <time>2010-01-01T04:00:05Z</time>
      </trkpt>
      <trkpt lat="44.69075" lon="3.73544">
        <ele>1086</ele>
        <time>2010-01-01T04:00:09Z</time>
      </trkpt>
      <trkpt lat="44.69114" lon="3.73638">
        <ele>1086</ele>
        <time>2010-01-01T04:00:22Z</time>
      </trkpt>
      <trkpt lat="44.69135" lon="3.73655">
        <ele>1088</ele>
        <time>2010-01-01T04:00:25Z</time>
      </trkpt>
      <trkpt lat="44.69165" lon="3.73681">
        <ele>1088</ele>
        <time>2010-01-01T04:00:31Z</time>
      </trkpt>
      <trkpt lat="44.69191" lon="3.73715">
        <ele>1090</ele>
        <time>2010-01-01T04:00:37Z</time>
      </trkpt>
      <trkpt lat="44.69234" lon="3.73801">
        <ele>1087</ele>
        <time>2010-01-01T04:00:49Z</time>
      </trkpt>
      <trkpt lat="44.69251" lon="3.73818">
        <ele>1086</ele>
        <time>2010-01-01T04:00:52Z</time>
      </trkpt>
      <trkpt lat="44.69324" lon="3.73844">
        <ele>1088</ele>
        <time>2010-01-01T04:01:04Z</time>
      </trkpt>
      <trkpt lat="44.69367" lon="3.73874">
        <ele>1089</ele>
        <time>2010-01-01T04:01:12Z</time>
      </trkpt>
      <trkpt lat="44.69419" lon="3.7393">
        <ele>1088</ele>
        <time>2010-01-01T04:01:22Z</time>
      </trkpt>
      <trkpt lat="44.69479" lon="3.74016">
        <ele>1086</ele>
        <time>2010-01-01T04:01:36Z</time>
      </trkpt>
      <trkpt lat="44.69513" lon="3.74037">
        <ele>1085</ele>
        <time>2010-01-01T04:01:42Z</time>
      </trkpt>
      <trkpt lat="44.69534" lon="3.74042">
        <ele>1085</ele>
        <time>2010-01-01T04:01:45Z</time>
      </trkpt>
      <trkpt lat="44.69564" lon="3.74033">
        <ele>1087</ele>
        <time>2010-01-01T04:01:50Z</time>
      </trkpt>
      <trkpt lat="44.69689" lon="3.73943">
        <ele>1089</ele>
        <time>2010-01-01T04:02:13Z</time>
      </trkpt>
      <trkpt lat="44.69719" lon="3.73921">
        <ele>1089</ele>
        <time>2010-01-01T04:02:18Z</time>
      </trkpt>
      <trkpt lat="44.69758" lon="3.73921">
        <ele>1086</ele>
        <time>2010-01-01T04:02:24Z</time>
      </trkpt>
      <trkpt lat="44.69813" lon="3.73939">
        <ele>1086</ele>
        <time>2010-01-01T04:02:33Z</time>
      </trkpt>
      <trkpt lat="44.69891" lon="3.7402">
        <ele>1088</ele>
        <time>2010-01-01T04:02:49Z</time>
      </trkpt>
      <trkpt lat="44.69899" lon="3.74046">
        <ele>1087</ele>
        <time>2010-01-01T04:02:52Z</time>
      </trkpt>
      <trkpt lat="44.69899" lon="3.74076">
        <ele>1086</ele>
        <time>2010-01-01T04:02:56Z</time>
      </trkpt>
      <trkpt lat="44.69899" lon="3.74123">
        <ele>1084</ele>
        <time>2010-01-01T04:03:01Z</time>
      </trkpt>
      <trkpt lat="44.69908" lon="3.74213">
        <ele>1081</ele>
        <time>2010-01-01T04:03:11Z</time>
      </trkpt>
      <trkpt lat="44.69908" lon="3.74222">
        <ele>1081</ele>
        <time>2010-01-01T04:03:12Z</time>
      </trkpt>
      <trkpt lat="44.69912" lon="3.74243">
        <ele>1080</ele>
        <time>2010-01-01T04:03:15Z</time>
      </trkpt>
      <trkpt lat="44.69925" lon="3.7426">
        <ele>1079</ele>
        <time>2010-01-01T04:03:18Z</time>
      </trkpt>
      <trkpt lat="44.69942" lon="3.74265">
        <ele>1078</ele>
        <time>2010-01-01T04:03:20Z</time>
      </trkpt>
      <trkpt lat="44.69968" lon="3.74256">
        <ele>1078</ele>
        <time>2010-01-01T04:03:25Z</time>
      </trkpt>
      <trkpt lat="44.70015" lon="3.74218">
        <ele>1081</ele>
        <time>2010-01-01T04:03:33Z</time>
      </trkpt>
      <trkpt lat="44.70191" lon="3.74059">
        <ele>1080</ele>
        <time>2010-01-01T04:04:07Z</time>
      </trkpt>
      <trkpt lat="44.70307" lon="3.73956">
        <ele>1081</ele>
        <time>2010-01-01T04:04:29Z</time>
      </trkpt>
      <trkpt lat="44.70333" lon="3.73939">
        <ele>1080</ele>
        <time>2010-01-01T04:04:33Z</time>
      </trkpt>
      <trkpt lat="44.70448" lon="3.73887">
        <ele>1077</ele>
        <time>2010-01-01T04:04:53Z</time>
      </trkpt>
      <trkpt lat="44.70509" lon="3.73861">
        <ele>1076</ele>
        <time>2010-01-01T04:05:03Z</time>
      </trkpt>
      <trkpt lat="44.7053" lon="3.7387">
        <ele>1079</ele>
        <time>2010-01-01T04:05:06Z</time>
      </trkpt>
      <trkpt lat="44.70564" lon="3.739">
        <ele>1080</ele>
        <time>2010-01-01T04:05:13Z</time>
      </trkpt>
      <trkpt lat="44.70762" lon="3.74136">
        <ele>1075</ele>
        <time>2010-01-01T04:05:54Z</time>
      </trkpt>
      <trkpt lat="44.70805" lon="3.74183">
        <ele>1073</ele>
        <time>2010-01-01T04:06:03Z</time>
      </trkpt>
      <trkpt lat="44.70822" lon="3.74196">
        <ele>1072</ele>
        <time>2010-01-01T04:06:06Z</time>
      </trkpt>
      <trkpt lat="44.70852" lon="3.74205">
        <ele>1071</ele>
        <time>2010-01-01T04:06:11Z</time>
      </trkpt>
      <trkpt lat="44.70882" lon="3.74196">
        <ele>1072</ele>
        <time>2010-01-01T04:06:16Z</time>
      </trkpt>
      <trkpt lat="44.70899" lon="3.74179">
        <ele>1072</ele>
        <time>2010-01-01T04:06:19Z</time>
      </trkpt>
      <trkpt lat="44.70916" lon="3.74153">
        <ele>1073</ele>
        <time>2010-01-01T04:06:23Z</time>
      </trkpt>
      <trkpt lat="44.70942" lon="3.74046">
        <ele>1074</ele>
        <time>2010-01-01T04:06:36Z</time>
      </trkpt>
      <trkpt lat="44.70976" lon="3.73986">
        <ele>1074</ele>
        <time>2010-01-01T04:06:45Z</time>
      </trkpt>
      <trkpt lat="44.71019" lon="3.73926">
        <ele>1075</ele>
        <time>2010-01-01T04:06:55Z</time>
      </trkpt>
      <trkpt lat="44.71045" lon="3.739">
        <ele>1074</ele>
        <time>2010-01-01T04:07:00Z</time>
      </trkpt>
      <trkpt lat="44.71066" lon="3.73896">
        <ele>1072</ele>
        <time>2010-01-01T04:07:03Z</time>
      </trkpt>
      <trkpt lat="44.71131" lon="3.73921">
        <ele>1072</ele>
        <time>2010-01-01T04:07:14Z</time>
      </trkpt>
      <trkpt lat="44.71217" lon="3.73921">
        <ele>1075</ele>
        <time>2010-01-01T04:07:28Z</time>
      </trkpt>
      <trkpt lat="44.71234" lon="3.73934">
        <ele>1075</ele>
        <time>2010-01-01T04:07:31Z</time>
      </trkpt>
      <trkpt lat="44.71315" lon="3.74072">
        <ele>1078</ele>
        <time>2010-01-01T04:07:51Z</time>
      </trkpt>
      <trkpt lat="44.71337" lon="3.74127">
        <ele>1077</ele>
        <time>2010-01-01T04:07:59Z</time>
      </trkpt>
      <trkpt lat="44.71345" lon="3.74209">
        <ele>1072</ele>
        <time>2010-01-01T04:08:08Z</time>
      </trkpt>
      <trkpt lat="44.71354" lon="3.74239">
        <ele>1071</ele>
        <time>2010-01-01T04:08:12Z</time>
      </trkpt>
      <trkpt lat="44.71423" lon="3.74303">
        <ele>1073</ele>
        <time>2010-01-01T04:08:25Z</time>
      </trkpt>
      <trkpt lat="44.71444" lon="3.74329">
        <ele>1072</ele>
        <time>2010-01-01T04:08:29Z</time>
      </trkpt>
      <trkpt lat="44.71466" lon="3.74368">
        <ele>1069</ele>
        <time>2010-01-01T04:08:35Z</time>
      </trkpt>
      <trkpt lat="44.71478" lon="3.74381">
        <ele>1068</ele>
        <time>2010-01-01T04:08:37Z</time>
      </trkpt>
      <trkpt lat="44.715" lon="3.74376">
        <ele>1070</ele>
        <time>2010-01-01T04:08:41Z</time>
      </trkpt>
      <trkpt lat="44.7153" lon="3.74359">
        <ele>1069</ele>
        <time>2010-01-01T04:08:46Z</time>
      </trkpt>
      <trkpt lat="44.71564" lon="3.74325">
        <ele>1068</ele>
        <time>2010-01-01T04:08:53Z</time>
      </trkpt>
      <trkpt lat="44.71599" lon="3.74282">
        <ele>1069</ele>
        <time>2010-01-01T04:09:00Z</time>
      </trkpt>
      <trkpt lat="44.71629" lon="3.74226">
        <ele>1070</ele>
        <time>2010-01-01T04:09:08Z</time>
      </trkpt>
      <trkpt lat="44.71663" lon="3.74145">
        <ele>1070</ele>
        <time>2010-01-01T04:09:19Z</time>
      </trkpt>
      <trkpt lat="44.71684" lon="3.74115">
        <ele>1070</ele>
        <time>2010-01-01T04:09:24Z</time>
      </trkpt>
      <trkpt lat="44.71702" lon="3.74093">
        <ele>1069</ele>
        <time>2010-01-01T04:09:27Z</time>
      </trkpt>
      <trkpt lat="44.71822" lon="3.74029">
        <ele>1067</ele>
        <time>2010-01-01T04:09:48Z</time>
      </trkpt>
      <trkpt lat="44.71839" lon="3.74024">
        <ele>1066</ele>
        <time>2010-01-01T04:09:51Z</time>
      </trkpt>
      <trkpt lat="44.71852" lon="3.74033">
        <ele>1066</ele>
        <time>2010-01-01T04:09:53Z</time>
      </trkpt>
      <trkpt lat="44.71882" lon="3.74093">
        <ele>1062</ele>
        <time>2010-01-01T04:10:01Z</time>
      </trkpt>
      <trkpt lat="44.71895" lon="3.74106">
        <ele>1062</ele>
        <time>2010-01-01T04:10:04Z</time>
      </trkpt>
      <trkpt lat="44.71925" lon="3.74106">
        <ele>1062</ele>
        <time>2010-01-01T04:10:09Z</time>
      </trkpt>
      <trkpt lat="44.72028" lon="3.74067">
        <ele>1066</ele>
        <time>2010-01-01T04:10:26Z</time>
      </trkpt>
      <trkpt lat="44.72062" lon="3.74063">
        <ele>1066</ele>
        <time>2010-01-01T04:10:31Z</time>
      </trkpt>
      <trkpt lat="44.72092" lon="3.74067">
        <ele>1065</ele>
        <time>2010-01-01T04:10:36Z</time>
      </trkpt>
      <trkpt lat="44.72135" lon="3.74084">
        <ele>1066</ele>
        <time>2010-01-01T04:10:43Z</time>
      </trkpt>
      <trkpt lat="44.72165" lon="3.7411">
        <ele>1067</ele>
        <time>2010-01-01T04:10:49Z</time>
      </trkpt>
      <trkpt lat="44.72187" lon="3.7414">
        <ele>1070</ele>
        <time>2010-01-01T04:10:54Z</time>
      </trkpt>
      <trkpt lat="44.72195" lon="3.74179">
        <ele>1070</ele>
        <time>2010-01-01T04:10:58Z</time>
      </trkpt>
      <trkpt lat="44.72195" lon="3.74226">
        <ele>1068</ele>
        <time>2010-01-01T04:11:04Z</time>
      </trkpt>
      <trkpt lat="44.72182" lon="3.74402">
        <ele>1063</ele>
        <time>2010-01-01T04:11:24Z</time>
      </trkpt>
      <trkpt lat="44.72195" lon="3.74449">
        <ele>1062</ele>
        <time>2010-01-01T04:11:30Z</time>
      </trkpt>
      <trkpt lat="44.72229" lon="3.74484">
        <ele>1062</ele>
        <time>2010-01-01T04:11:36Z</time>
      </trkpt>
      <trkpt lat="44.72302" lon="3.74501">
        <ele>1065</ele>
        <time>2010-01-01T04:11:48Z</time>
      </trkpt>
      <trkpt lat="44.72324" lon="3.74522">
        <ele>1064</ele>
        <time>2010-01-01T04:11:53Z</time>
      </trkpt>
      <trkpt lat="44.72363" lon="3.74574">
        <ele>1063</ele>
        <time>2010-01-01T04:12:01Z</time>
      </trkpt>
      <trkpt lat="44.72521" lon="3.74647">
        <ele>1061</ele>
        <time>2010-01-01T04:12:28Z</time>
      </trkpt>
      <trkpt lat="44.7253" lon="3.7466">
        <ele>1058</ele>
        <time>2010-01-01T04:12:30Z</time>
      </trkpt>
      <trkpt lat="44.72543" lon="3.74745">
        <ele>1056</ele>
        <time>2010-01-01T04:12:40Z</time>
      </trkpt>
      <trkpt lat="44.72487" lon="3.7475">
        <ele>1057</ele>
        <time>2010-01-01T04:12:49Z</time>
      </trkpt>
      <trkpt lat="44.7247" lon="3.74763">
        <ele>1059</ele>
        <time>2010-01-01T04:12:52Z</time>
      </trkpt>
      <trkpt lat="44.7244" lon="3.74793">
        <ele>1063</ele>
        <time>2010-01-01T04:12:58Z</time>
      </trkpt>
      <trkpt lat="44.72414" lon="3.7484">
        <ele>1064</ele>
        <time>2010-01-01T04:13:04Z</time>
      </trkpt>
      <trkpt lat="44.72405" lon="3.74896">
        <ele>1067</ele>
        <time>2010-01-01T04:13:11Z</time>
      </trkpt>
      <trkpt lat="44.72414" lon="3.74921">
        <ele>1066</ele>
        <time>2010-01-01T04:13:14Z</time>
      </trkpt>
      <trkpt lat="44.72487" lon="3.74981">
        <ele>1070</ele>
        <time>2010-01-01T04:13:28Z</time>
      </trkpt>
      <trkpt lat="44.72504" lon="3.75016">
        <ele>1070</ele>
        <time>2010-01-01T04:13:33Z</time>
      </trkpt>
      <trkpt lat="44.72534" lon="3.75097">
        <ele>1075</ele>
        <time>2010-01-01T04:13:43Z</time>
      </trkpt>
      <trkpt lat="44.72534" lon="3.75144">
        <ele>1076</ele>
        <time>2010-01-01T04:13:48Z</time>
      </trkpt>
      <trkpt lat="44.7253" lon="3.7517">
        <ele>1076</ele>
        <time>2010-01-01T04:13:51Z</time>
      </trkpt>
      <trkpt lat="44.72466" lon="3.75346">
        <ele>1080</ele>
        <time>2010-01-01T04:14:14Z</time>
      </trkpt>
      <trkpt lat="44.72461" lon="3.75393">
        <ele>1081</ele>
        <time>2010-01-01T04:14:19Z</time>
      </trkpt>
      <trkpt lat="44.72461" lon="3.75432">
        <ele>1081</ele>
        <time>2010-01-01T04:14:24Z</time>
      </trkpt>
      <trkpt lat="44.72474" lon="3.75484">
        <ele>1080</ele>
        <time>2010-01-01T04:14:30Z</time>
      </trkpt>
      <trkpt lat="44.72487" lon="3.75518">
        <ele>1077</ele>
        <time>2010-01-01T04:14:34Z</time>
      </trkpt>
      <trkpt lat="44.72508" lon="3.75569">
        <ele>1074</ele>
        <time>2010-01-01T04:14:41Z</time>
      </trkpt>
      <trkpt lat="44.72517" lon="3.75604">
        <ele>1073</ele>
        <time>2010-01-01T04:14:45Z</time>
      </trkpt>
      <trkpt lat="44.72526" lon="3.75634">
        <ele>1073</ele>
        <time>2010-01-01T04:14:49Z</time>
      </trkpt>
      <trkpt lat="44.72521" lon="3.7569">
        <ele>1073</ele>
        <time>2010-01-01T04:14:55Z</time>
      </trkpt>
      <trkpt lat="44.725" lon="3.7575">
        <ele>1073</ele>
        <time>2010-01-01T04:15:03Z</time>
      </trkpt>
      <trkpt lat="44.72444" lon="3.7581">
        <ele>1075</ele>
        <time>2010-01-01T04:15:14Z</time>
      </trkpt>
      <trkpt lat="44.72328" lon="3.75908">
        <ele>1077</ele>
        <time>2010-01-01T04:15:36Z</time>
      </trkpt>
      <trkpt lat="44.72302" lon="3.75947">
        <ele>1077</ele>
        <time>2010-01-01T04:15:42Z</time>
      </trkpt>
      <trkpt lat="44.72225" lon="3.7608">
        <ele>1079</ele>
        <time>2010-01-01T04:16:01Z</time>
      </trkpt>
      <trkpt lat="44.72204" lon="3.76132">
        <ele>1078</ele>
        <time>2010-01-01T04:16:08Z</time>
      </trkpt>
      <trkpt lat="44.72191" lon="3.76174">
        <ele>1078</ele>
        <time>2010-01-01T04:16:14Z</time>
      </trkpt>
      <trkpt lat="44.72187" lon="3.76213">
        <ele>1078</ele>
        <time>2010-01-01T04:16:18Z</time>
      </trkpt>
      <trkpt lat="44.72187" lon="3.76243">
        <ele>1078</ele>
        <time>2010-01-01T04:16:21Z</time>
      </trkpt>
      <trkpt lat="44.72195" lon="3.76282">
        <ele>1078</ele>
        <time>2010-01-01T04:16:26Z</time>
      </trkpt>
      <trkpt lat="44.72229" lon="3.76363">
        <ele>1078</ele>
        <time>2010-01-01T04:16:37Z</time>
      </trkpt>
      <trkpt lat="44.72238" lon="3.76419">
        <ele>1081</ele>
        <time>2010-01-01T04:16:43Z</time>
      </trkpt>
      <trkpt lat="44.72251" lon="3.76552">
        <ele>1080</ele>
        <time>2010-01-01T04:16:59Z</time>
      </trkpt>
      <trkpt lat="44.72255" lon="3.76569">
        <ele>1080</ele>
        <time>2010-01-01T04:17:01Z</time>
      </trkpt>
      <trkpt lat="44.7229" lon="3.76621">
        <ele>1079</ele>
        <time>2010-01-01T04:17:09Z</time>
      </trkpt>
      <trkpt lat="44.72307" lon="3.76672">
        <ele>1081</ele>
        <time>2010-01-01T04:17:15Z</time>
      </trkpt>
      <trkpt lat="44.7235" lon="3.76741">
        <ele>1080</ele>
        <time>2010-01-01T04:17:26Z</time>
      </trkpt>
      <trkpt lat="44.72393" lon="3.76865">
        <ele>1079</ele>
        <time>2010-01-01T04:17:41Z</time>
      </trkpt>
      <trkpt lat="44.72405" lon="3.76913">
        <ele>1081</ele>
        <time>2010-01-01T04:17:47Z</time>
      </trkpt>
      <trkpt lat="44.72415" lon="3.76982">
        <ele>1081</ele>
        <time>2010-01-01T04:17:55Z</time>
      </trkpt>
      <trkpt lat="44.72427" lon="3.77076">
        <ele>1083</ele>
        <time>2010-01-01T04:18:06Z</time>
      </trkpt>
      <trkpt lat="44.72431" lon="3.77119">
        <ele>1081</ele>
        <time>2010-01-01T04:18:11Z</time>
      </trkpt>
      <trkpt lat="44.72427" lon="3.77157">
        <ele>1080</ele>
        <time>2010-01-01T04:18:15Z</time>
      </trkpt>
      <trkpt lat="44.72418" lon="3.77183">
        <ele>1080</ele>
        <time>2010-01-01T04:18:19Z</time>
      </trkpt>
      <trkpt lat="44.72401" lon="3.77217">
        <ele>1080</ele>
        <time>2010-01-01T04:18:23Z</time>
      </trkpt>
      <trkpt lat="44.72371" lon="3.7726">
        <ele>1080</ele>
        <time>2010-01-01T04:18:30Z</time>
      </trkpt>
      <trkpt lat="44.72358" lon="3.77295">
        <ele>1082</ele>
        <time>2010-01-01T04:18:35Z</time>
      </trkpt>
      <trkpt lat="44.72367" lon="3.77372">
        <ele>1081</ele>
        <time>2010-01-01T04:18:43Z</time>
      </trkpt>
      <trkpt lat="44.72341" lon="3.77449">
        <ele>1084</ele>
        <time>2010-01-01T04:18:53Z</time>
      </trkpt>
      <trkpt lat="44.72285" lon="3.77552">
        <ele>1083</ele>
        <time>2010-01-01T04:19:08Z</time>
      </trkpt>
      <trkpt lat="44.72238" lon="3.77629">
        <ele>1085</ele>
        <time>2010-01-01T04:19:20Z</time>
      </trkpt>
      <trkpt lat="44.72225" lon="3.77655">
        <ele>1085</ele>
        <time>2010-01-01T04:19:23Z</time>
      </trkpt>
      <trkpt lat="44.72221" lon="3.77732">
        <ele>1082</ele>
        <time>2010-01-01T04:19:32Z</time>
      </trkpt>
      <trkpt lat="44.72212" lon="3.77758">
        <ele>1082</ele>
        <time>2010-01-01T04:19:35Z</time>
      </trkpt>
      <trkpt lat="44.72174" lon="3.7781">
        <ele>1082</ele>
        <time>2010-01-01T04:19:44Z</time>
      </trkpt>
      <trkpt lat="44.72161" lon="3.77822">
        <ele>1082</ele>
        <time>2010-01-01T04:19:46Z</time>
      </trkpt>
      <trkpt lat="44.72131" lon="3.77827">
        <ele>1084</ele>
        <time>2010-01-01T04:19:51Z</time>
      </trkpt>
      <trkpt lat="44.72114" lon="3.77835">
        <ele>1086</ele>
        <time>2010-01-01T04:19:54Z</time>
      </trkpt>
      <trkpt lat="44.72092" lon="3.779">
        <ele>1083</ele>
        <time>2010-01-01T04:20:02Z</time>
      </trkpt>
      <trkpt lat="44.72032" lon="3.77968">
        <ele>1083</ele>
        <time>2010-01-01T04:20:14Z</time>
      </trkpt>
      <trkpt lat="44.72023" lon="3.78011">
        <ele>1080</ele>
        <time>2010-01-01T04:20:20Z</time>
      </trkpt>
      <trkpt lat="44.72036" lon="3.78041">
        <ele>1079</ele>
        <time>2010-01-01T04:20:23Z</time>
      </trkpt>
      <trkpt lat="44.72058" lon="3.78058">
        <ele>1078</ele>
        <time>2010-01-01T04:20:27Z</time>
      </trkpt>
      <trkpt lat="44.72092" lon="3.78067">
        <ele>1077</ele>
        <time>2010-01-01T04:20:33Z</time>
      </trkpt>
      <trkpt lat="44.72101" lon="3.78071">
        <ele>1077</ele>
        <time>2010-01-01T04:20:34Z</time>
      </trkpt>
      <trkpt lat="44.72114" lon="3.78093">
        <ele>1076</ele>
        <time>2010-01-01T04:20:38Z</time>
      </trkpt>
      <trkpt lat="44.72126" lon="3.78136">
        <ele>1077</ele>
        <time>2010-01-01T04:20:43Z</time>
      </trkpt>
      <trkpt lat="44.72139" lon="3.78161">
        <ele>1077</ele>
        <time>2010-01-01T04:20:47Z</time>
      </trkpt>
      <trkpt lat="44.72165" lon="3.7817">
        <ele>1076</ele>
        <time>2010-01-01T04:20:51Z</time>
      </trkpt>
      <trkpt lat="44.72217" lon="3.78161">
        <ele>1076</ele>
        <time>2010-01-01T04:20:59Z</time>
      </trkpt>
      <trkpt lat="44.72238" lon="3.78174">
        <ele>1076</ele>
        <time>2010-01-01T04:21:03Z</time>
      </trkpt>
      <trkpt lat="44.72251" lon="3.78187">
        <ele>1076</ele>
        <time>2010-01-01T04:21:05Z</time>
      </trkpt>
      <trkpt lat="44.72251" lon="3.7823">
        <ele>1077</ele>
        <time>2010-01-01T04:21:10Z</time>
      </trkpt>
      <trkpt lat="44.72242" lon="3.78273">
        <ele>1077</ele>
        <time>2010-01-01T04:21:15Z</time>
      </trkpt>
      <trkpt lat="44.72182" lon="3.78367">
        <ele>1081</ele>
        <time>2010-01-01T04:21:30Z</time>
      </trkpt>
      <trkpt lat="44.72122" lon="3.78599">
        <ele>1077</ele>
        <time>2010-01-01T04:21:58Z</time>
      </trkpt>
      <trkpt lat="44.72088" lon="3.78668">
        <ele>1074</ele>
        <time>2010-01-01T04:22:07Z</time>
      </trkpt>
      <trkpt lat="44.72071" lon="3.78689">
        <ele>1074</ele>
        <time>2010-01-01T04:22:11Z</time>
      </trkpt>
      <trkpt lat="44.72054" lon="3.78706">
        <ele>1073</ele>
        <time>2010-01-01T04:22:14Z</time>
      </trkpt>
      <trkpt lat="44.72028" lon="3.78736">
        <ele>1072</ele>
        <time>2010-01-01T04:22:20Z</time>
      </trkpt>
      <trkpt lat="44.71929" lon="3.78852">
        <ele>1066</ele>
        <time>2010-01-01T04:22:40Z</time>
      </trkpt>
      <trkpt lat="44.71912" lon="3.78882">
        <ele>1065</ele>
        <time>2010-01-01T04:22:45Z</time>
      </trkpt>
      <trkpt lat="44.71843" lon="3.78938">
        <ele>1061</ele>
        <time>2010-01-01T04:22:57Z</time>
      </trkpt>
      <trkpt lat="44.71809" lon="3.78985">
        <ele>1058</ele>
        <time>2010-01-01T04:23:05Z</time>
      </trkpt>
      <trkpt lat="44.71792" lon="3.7902">
        <ele>1057</ele>
        <time>2010-01-01T04:23:10Z</time>
      </trkpt>
      <trkpt lat="44.71762" lon="3.79114">
        <ele>1054</ele>
        <time>2010-01-01T04:23:22Z</time>
      </trkpt>
      <trkpt lat="44.71723" lon="3.7917">
        <ele>1051</ele>
        <time>2010-01-01T04:23:31Z</time>
      </trkpt>
      <trkpt lat="44.7168" lon="3.7926">
        <ele>1048</ele>
        <time>2010-01-01T04:23:43Z</time>
      </trkpt>
      <trkpt lat="44.71603" lon="3.7935">
        <ele>1043</ele>
        <time>2010-01-01T04:23:59Z</time>
      </trkpt>
      <trkpt lat="44.71547" lon="3.79406">
        <ele>1040</ele>
        <time>2010-01-01T04:24:10Z</time>
      </trkpt>
      <trkpt lat="44.71504" lon="3.79475">
        <ele>1036</ele>
        <time>2010-01-01T04:24:20Z</time>
      </trkpt>
      <trkpt lat="44.71474" lon="3.79548">
        <ele>1034</ele>
        <time>2010-01-01T04:24:30Z</time>
      </trkpt>
      <trkpt lat="44.71444" lon="3.79638">
        <ele>1030</ele>
        <time>2010-01-01T04:24:41Z</time>
      </trkpt>
      <trkpt lat="44.7144" lon="3.79685">
        <ele>1029</ele>
        <time>2010-01-01T04:24:47Z</time>
      </trkpt>
      <trkpt lat="44.71436" lon="3.79711">
        <ele>1028</ele>
        <time>2010-01-01T04:24:50Z</time>
      </trkpt>
      <trkpt lat="44.71401" lon="3.79809">
        <ele>1023</ele>
        <time>2010-01-01T04:25:02Z</time>
      </trkpt>
      <trkpt lat="44.71375" lon="3.7993">
        <ele>1017</ele>
        <time>2010-01-01T04:25:16Z</time>
      </trkpt>
      <trkpt lat="44.71375" lon="3.79951">
        <ele>1016</ele>
        <time>2010-01-01T04:25:19Z</time>
      </trkpt>
      <trkpt lat="44.71397" lon="3.7999">
        <ele>1016</ele>
        <time>2010-01-01T04:25:24Z</time>
      </trkpt>
      <trkpt lat="44.71397" lon="3.80011">
        <ele>1015</ele>
        <time>2010-01-01T04:25:27Z</time>
      </trkpt>
      <trkpt lat="44.71414" lon="3.80213">
        <ele>1007</ele>
        <time>2010-01-01T04:25:50Z</time>
      </trkpt>
      <trkpt lat="44.71406" lon="3.80273">
        <ele>1007</ele>
        <time>2010-01-01T04:25:57Z</time>
      </trkpt>
      <trkpt lat="44.71397" lon="3.80311">
        <ele>1007</ele>
        <time>2010-01-01T04:26:02Z</time>
      </trkpt>
      <trkpt lat="44.71397" lon="3.8035">
        <ele>1007</ele>
        <time>2010-01-01T04:26:06Z</time>
      </trkpt>
      <trkpt lat="44.71401" lon="3.8044">
        <ele>1005</ele>
        <time>2010-01-01T04:26:16Z</time>
      </trkpt>
      <trkpt lat="44.71406" lon="3.80466">
        <ele>1005</ele>
        <time>2010-01-01T04:26:19Z</time>
      </trkpt>
      <trkpt lat="44.71401" lon="3.80483">
        <ele>1005</ele>
        <time>2010-01-01T04:26:21Z</time>
      </trkpt>
      <trkpt lat="44.71393" lon="3.80509">
        <ele>1004</ele>
        <time>2010-01-01T04:26:25Z</time>
      </trkpt>
      <trkpt lat="44.71367" lon="3.80556">
        <ele>1003</ele>
        <time>2010-01-01T04:26:31Z</time>
      </trkpt>
      <trkpt lat="44.71363" lon="3.80582">
        <ele>1002</ele>
        <time>2010-01-01T04:26:34Z</time>
      </trkpt>
      <trkpt lat="44.71397" lon="3.80745">
        <ele>1003</ele>
        <time>2010-01-01T04:26:54Z</time>
      </trkpt>
      <trkpt lat="44.71414" lon="3.80792">
        <ele>1000</ele>
        <time>2010-01-01T04:27:00Z</time>
      </trkpt>
      <trkpt lat="44.71427" lon="3.80809">
        <ele>999</ele>
        <time>2010-01-01T04:27:03Z</time>
      </trkpt>
      <trkpt lat="44.71478" lon="3.80826">
        <ele>997</ele>
        <time>2010-01-01T04:27:11Z</time>
      </trkpt>
      <trkpt lat="44.71491" lon="3.80839">
        <ele>997</ele>
        <time>2010-01-01T04:27:14Z</time>
      </trkpt>
      <trkpt lat="44.71509" lon="3.80878">
        <ele>1001</ele>
        <time>2010-01-01T04:27:19Z</time>
      </trkpt>
      <trkpt lat="44.71517" lon="3.80887">
        <ele>1001</ele>
        <time>2010-01-01T04:27:20Z</time>
      </trkpt>
      <trkpt lat="44.7156" lon="3.80887">
        <ele>997</ele>
        <time>2010-01-01T04:27:27Z</time>
      </trkpt>
      <trkpt lat="44.71569" lon="3.80899">
        <ele>996</ele>
        <time>2010-01-01T04:27:29Z</time>
      </trkpt>
      <trkpt lat="44.71577" lon="3.80921">
        <ele>996</ele>
        <time>2010-01-01T04:27:32Z</time>
      </trkpt>
      <trkpt lat="44.7159" lon="3.80998">
        <ele>999</ele>
        <time>2010-01-01T04:27:41Z</time>
      </trkpt>
      <trkpt lat="44.71569" lon="3.81093">
        <ele>1006</ele>
        <time>2010-01-01T04:27:52Z</time>
      </trkpt>
      <trkpt lat="44.71569" lon="3.81127">
        <ele>1009</ele>
        <time>2010-01-01T04:27:56Z</time>
      </trkpt>
      <trkpt lat="44.71577" lon="3.81153">
        <ele>1010</ele>
        <time>2010-01-01T04:28:00Z</time>
      </trkpt>
      <trkpt lat="44.71603" lon="3.8117">
        <ele>1009</ele>
        <time>2010-01-01T04:28:04Z</time>
      </trkpt>
      <trkpt lat="44.71736" lon="3.81196">
        <ele>1007</ele>
        <time>2010-01-01T04:28:26Z</time>
      </trkpt>
      <trkpt lat="44.71762" lon="3.81213">
        <ele>1008</ele>
        <time>2010-01-01T04:28:30Z</time>
      </trkpt>
      <trkpt lat="44.71792" lon="3.81256">
        <ele>1013</ele>
        <time>2010-01-01T04:28:37Z</time>
      </trkpt>
      <trkpt lat="44.71813" lon="3.8132">
        <ele>1020</ele>
        <time>2010-01-01T04:28:45Z</time>
      </trkpt>
      <trkpt lat="44.71839" lon="3.81376">
        <ele>1022</ele>
        <time>2010-01-01T04:28:53Z</time>
      </trkpt>
      <trkpt lat="44.71882" lon="3.81423">
        <ele>1020</ele>
        <time>2010-01-01T04:29:01Z</time>
      </trkpt>
      <trkpt lat="44.71951" lon="3.81522">
        <ele>1020</ele>
        <time>2010-01-01T04:29:17Z</time>
      </trkpt>
      <trkpt lat="44.71985" lon="3.81556">
        <ele>1016</ele>
        <time>2010-01-01T04:29:24Z</time>
      </trkpt>
      <trkpt lat="44.72002" lon="3.81577">
        <ele>1015</ele>
        <time>2010-01-01T04:29:28Z</time>
      </trkpt>
      <trkpt lat="44.72006" lon="3.81612">
        <ele>1015</ele>
        <time>2010-01-01T04:29:32Z</time>
      </trkpt>
      <trkpt lat="44.72011" lon="3.8168">
        <ele>1014</ele>
        <time>2010-01-01T04:29:39Z</time>
      </trkpt>
      <trkpt lat="44.71998" lon="3.81878">
        <ele>1012</ele>
        <time>2010-01-01T04:30:02Z</time>
      </trkpt>
      <trkpt lat="44.72006" lon="3.81964">
        <ele>1008</ele>
        <time>2010-01-01T04:30:12Z</time>
      </trkpt>
      <trkpt lat="44.71985" lon="3.8214">
        <ele>1003</ele>
        <time>2010-01-01T04:30:32Z</time>
      </trkpt>
      <trkpt lat="44.71925" lon="3.82384">
        <ele>994</ele>
        <time>2010-01-01T04:31:02Z</time>
      </trkpt>
      <trkpt lat="44.71873" lon="3.8256">
        <ele>989</ele>
        <time>2010-01-01T04:31:23Z</time>
      </trkpt>
      <trkpt lat="44.71865" lon="3.82607">
        <ele>986</ele>
        <time>2010-01-01T04:31:29Z</time>
      </trkpt>
      <trkpt lat="44.71856" lon="3.82689">
        <ele>981</ele>
        <time>2010-01-01T04:31:38Z</time>
      </trkpt>
      <trkpt lat="44.71865" lon="3.8274">
        <ele>978</ele>
        <time>2010-01-01T04:31:44Z</time>
      </trkpt>
      <trkpt lat="44.72118" lon="3.83183">
        <ele>964</ele>
        <time>2010-01-01T04:32:49Z</time>
      </trkpt>
      <trkpt lat="44.72131" lon="3.83217">
        <ele>964</ele>
        <time>2010-01-01T04:32:53Z</time>
      </trkpt>
      <trkpt lat="44.72148" lon="3.83303">
        <ele>962</ele>
        <time>2010-01-01T04:33:03Z</time>
      </trkpt>
      <trkpt lat="44.72161" lon="3.83346">
        <ele>960</ele>
        <time>2010-01-01T04:33:09Z</time>
      </trkpt>
      <trkpt lat="44.72268" lon="3.83517">
        <ele>953</ele>
        <time>2010-01-01T04:33:35Z</time>
      </trkpt>
      <trkpt lat="44.72311" lon="3.83603">
        <ele>950</ele>
        <time>2010-01-01T04:33:47Z</time>
      </trkpt>
      <trkpt lat="44.7232" lon="3.83646">
        <ele>949</ele>
        <time>2010-01-01T04:33:52Z</time>
      </trkpt>
      <trkpt lat="44.72337" lon="3.83762">
        <ele>952</ele>
        <time>2010-01-01T04:34:05Z</time>
      </trkpt>
      <trkpt lat="44.72345" lon="3.83792">
        <ele>953</ele>
        <time>2010-01-01T04:34:09Z</time>
      </trkpt>
      <trkpt lat="44.72384" lon="3.83869">
        <ele>957</ele>
        <time>2010-01-01T04:34:20Z</time>
      </trkpt>
      <trkpt lat="44.72401" lon="3.83908">
        <ele>960</ele>
        <time>2010-01-01T04:34:25Z</time>
      </trkpt>
      <trkpt lat="44.72444" lon="3.84007">
        <ele>964</ele>
        <time>2010-01-01T04:34:38Z</time>
      </trkpt>
      <trkpt lat="44.72474" lon="3.83955">
        <ele>965</ele>
        <time>2010-01-01T04:34:45Z</time>
      </trkpt>
      <trkpt lat="44.72603" lon="3.83762">
        <ele>959</ele>
        <time>2010-01-01T04:35:16Z</time>
      </trkpt>
      <trkpt lat="44.72789" lon="3.83606">
        <ele>950</ele>
        <time>2010-01-01T04:35:50Z</time>
      </trkpt>
      <trkpt lat="44.72999" lon="3.83573">
        <ele>948</ele>
        <time>2010-01-01T04:36:24Z</time>
      </trkpt>
      <trkpt lat="44.73314" lon="3.83562">
        <ele>949</ele>
        <time>2010-01-01T04:37:15Z</time>
      </trkpt>
    </trkseg>
  </trk>
</gpx>